Date StartTime U_cm/s V_cm/s W_cm/s Ustd_cm/s Vstd_cm/s Wstd_cm/s Uvar_(cm/s)^2 Vvar_(cm/s)^2 Wvar_(cm/s)^2 KE_(m/s)^2 TurbulentKE_(m/s)^2 HorizWindSpeed_cm/s FrictionSpeec_cm/s DragCoef SpeedOfSound_m/s SonicTemperature_C Pressure_mb 
11/17/2013  00:00:00     -111.415      -72.489        4.283       49.206       44.611       22.174     2421.237     1990.126      491.701        1.129        0.245      132.920       19.923        0.022      335.054        5.433      857.079
11/17/2013  00:01:00     -102.742      -53.555       -2.691       38.196       29.972       18.537     1458.929      898.311      343.618        0.807        0.135      115.863       19.248        0.028      334.988        5.325      857.091
11/17/2013  00:02:00      -74.528      -30.069      -11.036       23.282       12.609       14.357      542.052      158.990      206.113        0.374        0.045       80.365        5.130        0.004      334.972        5.296      857.087
11/17/2013  00:03:00      -10.965      -16.527        4.070        7.792       14.055       10.279       60.715      197.540      105.662        0.039        0.018       19.833        6.336        0.102      334.955        5.268      857.093
11/17/2013  00:04:00      -53.699        2.046      -10.452       17.586       10.583        9.299      309.284      111.995       86.476        0.175        0.025       53.738        7.832        0.021      334.834        5.067      857.107
11/17/2013  00:05:00      -90.224       -8.271       -8.438       16.811       13.551        9.936      282.615      183.621       98.723        0.442        0.028       90.602        6.490        0.005      334.823        5.049      857.114
11/17/2013  00:06:00     -110.522      -20.913       -8.064       28.403       18.676       16.668      806.710      348.810      277.815        0.708        0.072      112.483       10.816        0.009      334.711        4.864      857.132
11/17/2013  00:07:00     -127.026      -20.854       -5.535       27.345       21.274       15.933      747.729      452.595      253.863        0.903        0.073      128.726       12.786        0.010      334.744        4.916      857.147
11/17/2013  00:08:00     -109.271      -71.006       -8.022       27.949       19.179       16.164      781.157      367.832      261.269        0.923        0.071      130.315        8.868        0.005      334.809        5.027      857.160
11/17/2013  00:09:00      -98.591      -65.786      -11.793       20.441       16.191       13.465      417.852      262.154      181.300        0.752        0.043      118.524        6.636        0.003      334.796        5.004      857.170
11/17/2013  00:10:00     -104.366      -41.873       -9.139       17.940       15.838       11.985      321.834      250.853      143.647        0.672        0.036      112.453        9.410        0.007      334.681        4.811      857.170
11/17/2013  00:11:00     -100.610      -49.753       -3.474       23.878       20.074       15.273      570.136      402.954      233.261        0.691        0.060      112.240       15.294        0.019      334.686        4.820      857.171
11/17/2013  00:12:00     -106.515      -53.760       -3.219       21.667       19.879       14.089      469.475      395.156      198.506        0.765        0.053      119.313       12.099        0.010      334.698        4.841      857.176
11/17/2013  00:13:00     -119.670      -30.315       -6.468       27.936       30.656       18.282      780.412      939.802      334.225        0.867        0.103      123.450       18.294        0.022      334.731        4.897      857.191
11/17/2013  00:14:00      -99.971       -9.714       -6.533       36.932       26.180       16.444     1363.944      685.389      270.418        0.623        0.116      100.442       11.933        0.014      334.609        4.695      857.205
11/17/2013  00:15:00     -131.289      -13.470      -15.445       43.654       26.447       22.872     1905.629      699.433      523.132        1.039        0.156      131.978       18.358        0.019      334.605        4.685      857.218
11/17/2013  00:16:00      -80.620       -7.502       -5.095       23.254       22.858       13.901      540.764      522.490      193.250        0.392        0.063       80.968        8.542        0.011      334.500        4.513      857.225
11/17/2013  00:17:00      -92.702      -34.076       -3.889       33.289       25.001       18.401     1108.138      625.026      338.601        0.592        0.104       98.766       16.940        0.029      334.570        4.630      857.227
11/17/2013  00:18:00      -90.375      -46.345       -6.116       44.232       24.054       14.481     1956.486      578.586      209.697        0.655        0.137      101.565       17.357        0.029      334.470        4.463      857.227
11/17/2013  00:19:00      -79.034      -22.576       -1.189       22.302       14.772       13.612      497.385      218.223      185.274        0.383        0.045       82.195       13.583        0.027      334.440        4.414      857.220
11/17/2013  00:20:00      -98.970       -4.853      -13.362       24.525       20.421       15.745      601.481      417.010      247.910        0.563        0.063       99.089       17.800        0.032      334.475        4.473      857.205
11/17/2013  00:21:00     -118.965       25.330       -8.251       26.293       29.782       20.361      691.313      886.943      414.585        0.843        0.100      121.632       10.100        0.007      334.440        4.414      857.206
11/17/2013  00:22:00     -128.577       11.049      -21.353       31.912       33.973       17.586     1018.383     1154.140      309.274        0.980        0.124      129.051       10.688        0.007      334.432        4.401      857.207
11/17/2013  00:23:00      -74.332      -13.055       -8.406       38.897       31.171       19.260     1512.941      971.620      370.951        0.431        0.143       75.469       20.341        0.073      334.355        4.273      857.203
11/17/2013  00:24:00     -116.853        5.043      -14.594       27.087       17.916       20.432      733.694      320.981      417.465        0.768        0.074      116.962       16.480        0.020      334.400        4.347      857.195
11/17/2013  00:25:00      -67.844      -19.650      -13.398       13.482       20.518       10.985      181.773      420.972      120.673        0.295        0.036       70.632        5.209        0.005      334.360        4.281      857.188
11/17/2013  00:26:00      -76.342       -6.199       -9.414       21.808       25.537       16.264      475.577      652.126      264.532        0.367        0.070       76.593       12.651        0.027      334.325        4.223      857.173
11/17/2013  00:27:00     -124.343       13.360      -18.358       21.781       24.273       16.287      474.411      589.187      265.265        0.865        0.066      125.058       10.418        0.007      334.344        4.254      857.170
11/17/2013  00:28:00     -152.473       24.594      -14.674       32.190       25.473       18.934     1036.214      648.895      358.485        1.306        0.102      154.444       11.728        0.006      334.304        4.188      857.162
11/17/2013  00:29:00     -109.317        9.104      -10.497       27.020       31.949       19.629      730.073     1020.754      385.299        0.714        0.107      109.695       16.594        0.023      334.207        4.026      857.146
11/17/2013  00:30:00     -130.321       19.514      -21.730       41.032       35.300       25.087     1683.608     1246.063      629.382        1.070        0.178      131.774       27.104        0.042      334.359        4.279      857.133
11/17/2013  00:31:00      -97.361       -8.973      -12.192       27.120       36.596       17.833      735.471     1339.239      318.027        0.605        0.120       97.774        7.913        0.007      334.328        4.227      857.103
11/17/2013  00:32:00     -121.906      -14.765      -10.471       41.081       32.265       28.842     1687.646     1041.004      831.852        0.937        0.178      122.797       26.648        0.047      334.407        4.360      857.087
11/17/2013  00:33:00     -105.998      -57.051      -10.485       44.562       32.954       24.985     1985.729     1085.939      624.228        0.915        0.185      120.376       19.913        0.027      334.315        4.208      857.082
11/17/2013  00:34:00     -156.874      -19.306      -12.683       29.831       29.733       20.151      889.899      884.067      406.082        1.366        0.109      158.057       16.883        0.011      334.273        4.138      857.087
11/17/2013  00:35:00     -145.950      -12.271      -14.038       29.361       23.241       14.898      862.045      540.131      221.941        1.164        0.081      146.465       11.153        0.006      334.264        4.122      857.070
11/17/2013  00:36:00     -133.885      -10.684      -13.224       38.747       19.429       21.489     1501.313      377.498      461.780        1.028        0.117      134.311       22.124        0.027      334.300        4.182      857.060
11/17/2013  00:37:00     -110.934       -8.306      -14.390       33.538       20.842       18.381     1124.811      434.377      337.851        0.724        0.095      111.245       15.419        0.019      334.270        4.132      857.056
11/17/2013  00:38:00     -100.520        1.159       -8.296       31.575       26.383       17.547      996.995      696.066      307.888        0.609        0.100      100.527       17.824        0.031      334.325        4.223      857.045
11/17/2013  00:39:00     -121.369       -0.714      -19.484       27.854       19.649       15.162      775.871      386.072      229.875        0.825        0.070      121.371        7.836        0.004      334.362        4.286      857.041
11/17/2013  00:40:00     -149.617        2.415      -18.428       15.439       15.285       12.382      238.359      233.618      153.325        1.168        0.031      149.637        5.482        0.001      334.377        4.310      857.041
11/17/2013  00:41:00     -128.898        1.089      -17.613       11.248       20.410       12.697      126.507      416.566      161.226        0.882        0.035      128.903        6.927        0.003      334.355        4.274      857.027
11/17/2013  00:42:00     -130.824       -2.933      -12.819       15.958       15.425       10.749      254.643      237.923      115.543        0.895        0.030      130.857        7.508        0.003      334.395        4.339      857.020
11/17/2013  00:43:00     -128.463      -13.363      -15.289       31.629       21.358       16.346     1000.413      456.157      267.206        0.932        0.086      129.156       12.949        0.010      334.425        4.389      857.034
11/17/2013  00:44:00     -135.349      -16.532      -14.087       16.814       21.602       13.146      282.721      466.651      172.819        0.986        0.046      136.354        9.654        0.005      334.446        4.425      857.034
11/17/2013  00:45:00     -112.727      -14.034       -7.689       38.144       23.006       16.999     1454.937      529.297      288.979        0.762        0.114      113.598       18.911        0.028      334.402        4.351      857.023
11/17/2013  00:46:00     -120.660      -18.781       -9.950       31.906       28.129       17.089     1017.965      791.234      292.024        0.856        0.105      122.112       12.583        0.011      334.317        4.209      857.023
11/17/2013  00:47:00     -157.510       -6.553      -11.852       30.586       24.830       14.570      935.534      616.522      212.288        1.338        0.088      157.646       14.232        0.008      334.286        4.158      857.032
11/17/2013  00:48:00     -167.645       16.071      -16.620       34.847       27.329       20.760     1214.341      746.871      430.995        1.552        0.120      168.414       18.087        0.012      334.214        4.039      857.032
11/17/2013  00:49:00     -168.476       43.270      -16.091       19.590       23.327       18.162      383.753      544.147      329.860        1.589        0.063      173.943        9.712        0.003      334.223        4.054      857.021
11/17/2013  00:50:00     -155.574       17.207       -8.420       34.560       36.690       17.096     1194.383     1346.128      292.280        1.370        0.142      156.523       12.346        0.006      334.181        3.983      857.002
11/17/2013  00:51:00     -135.274        5.378      -11.636       29.336       28.137       19.617      860.596      791.675      384.823        1.025        0.102      135.381       11.546        0.007      334.143        3.921      856.996
11/17/2013  00:52:00     -112.042       -5.866       -8.976       32.516       33.165       23.922     1057.289     1099.886      572.280        0.770        0.136      112.196       18.529        0.027      334.120        3.883      856.992
11/17/2013  00:53:00     -122.702       -1.545       -4.395       51.099       38.800       30.113     2611.131     1505.477      906.819        1.005        0.251      122.712       28.142        0.053      334.020        3.717      857.014
11/17/2013  00:54:00     -152.221       -6.515       -9.862       36.579       24.634       22.632     1338.003      606.829      512.204        1.288        0.123      152.360       18.489        0.015      334.050        3.766      857.054
11/17/2013  00:55:00     -142.389      -21.209       -8.356       40.011       29.643       23.826     1600.846      878.691      567.672        1.192        0.152      143.960       23.016        0.026      334.040        3.750      857.074
11/17/2013  00:56:00     -129.476      -30.779      -11.353       27.746       18.748       14.089      769.863      351.486      198.496        0.958        0.066      133.085       12.865        0.009      334.117        3.877      857.077
11/17/2013  00:57:00      -67.607      -32.280       -2.405       24.898       19.803       12.254      619.929      392.149      150.166        0.339        0.058       74.918        6.612        0.008      334.153        3.938      857.074
11/17/2013  00:58:00      -70.263      -50.731        3.330       42.410       26.766       17.674     1798.575      716.439      312.376        0.517        0.141       86.664       17.676        0.042      334.192        4.002      857.080
11/17/2013  00:59:00      -80.691      -70.547        6.427       43.528       47.243       26.387     1894.683     2231.915      696.299        0.818        0.241      107.182       21.900        0.042      334.229        4.064      857.093
11/17/2013  01:00:00     -110.328      -77.210        8.379       61.083       38.248       27.150     3731.134     1462.881      737.136        1.207        0.297      134.661       31.189        0.054      334.225        4.059      857.090
11/17/2013  01:01:00     -100.555      -97.676        5.119       55.011       43.346       27.843     3026.168     1878.917      775.224        1.268        0.284      140.185       24.661        0.031      334.171        3.967      857.104
11/17/2013  01:02:00     -138.842     -134.341      -11.622       44.284       47.982       34.595     1961.071     2302.311     1196.795        2.146        0.273      193.196       26.603        0.019      334.004        3.689      857.123
11/17/2013  01:03:00     -146.108      -69.534        4.006       59.899       44.912       27.661     3587.936     2017.107      765.110        1.628        0.319      161.810       27.239        0.028      333.993        3.671      857.125
11/17/2013  01:04:00     -162.001      -73.192       -5.767       51.194       52.507       28.559     2620.856     2757.031      815.589        1.891        0.310      177.768       29.900        0.028      334.040        3.749      857.125
11/17/2013  01:05:00      -96.445      -58.375       -3.275       39.463       27.234       18.482     1557.299      741.678      341.593        0.768        0.132      112.736       13.070        0.013      334.002        3.687      857.139
11/17/2013  01:06:00      -95.278      -49.168        5.677       54.051       32.295       26.873     2921.471     1042.972      722.184        0.811        0.234      107.217       23.549        0.048      333.964        3.626      857.170
11/17/2013  01:07:00     -108.695      -63.593        1.669       55.825       43.913       21.726     3116.445     1928.332      472.013        1.069        0.276      125.931       23.964        0.036      333.996        3.677      857.178
11/17/2013  01:08:00     -138.040      -79.522       -2.775       40.716       37.547       26.766     1657.829     1409.790      716.404        1.458        0.189      159.307       19.124        0.014      334.008        3.697      857.182
11/17/2013  01:09:00     -125.547      -58.520       -5.625       32.858       34.039       20.438     1079.648     1158.644      417.692        1.094        0.133      138.516       18.915        0.019      334.046        3.760      857.190
11/17/2013  01:10:00      -93.317      -60.669        2.279       41.002       30.677       22.119     1681.193      941.049      489.230        0.775        0.156      111.305       19.124        0.030      333.992        3.672      857.200
11/17/2013  01:11:00     -107.906      -44.132       -3.843       29.930       24.364       17.121      895.811      593.587      293.119        0.769        0.089      116.582       13.250        0.013      333.959        3.617      857.189
11/17/2013  01:12:00      -75.112      -65.932       -6.448       23.990       26.858       19.608      575.525      721.357      384.466        0.586        0.084       99.944       13.297        0.018      334.030        3.734      857.181
11/17/2013  01:13:00      -53.369      -35.485        6.573       26.067       29.635       16.969      679.493      878.220      287.931        0.300        0.092       64.089       15.898        0.062      334.018        3.715      857.180
11/17/2013  01:14:00      -64.633      -44.582        3.602       40.989       27.785       21.506     1680.103      771.990      462.510        0.455        0.146       78.517       20.590        0.069      334.026        3.727      857.192
11/17/2013  01:15:00      -26.391      -24.957        7.146       40.850       21.763       20.495     1668.691      473.644      420.041        0.197        0.128       36.323       20.417        0.316      333.985        3.660      857.179
11/17/2013  01:16:00      -53.677      -53.855        3.994       32.584       22.382       19.083     1061.740      500.938      364.153        0.386        0.096       76.037       20.185        0.070      334.061        3.785      857.168
11/17/2013  01:17:00      -54.819      -34.656       -0.197       30.037       17.694       15.081      902.250      313.073      227.425        0.282        0.072       64.855       13.622        0.044      334.035        3.741      857.176
11/17/2013  01:18:00      -55.422      -18.901        4.202       25.338       21.150       14.366      642.021      447.336      206.375        0.237        0.065       58.556       14.814        0.064      333.986        3.663      857.171
11/17/2013  01:19:00      -84.631       -0.709       -3.362       33.099       17.745       13.402     1095.528      314.870      179.605        0.438        0.080       84.634       15.191        0.032      333.855        3.444      857.175
11/17/2013  01:20:00      -90.223      -36.500        0.415       26.968       14.663        9.582      727.291      214.998       91.819        0.525        0.052       97.326       11.683        0.014      333.918        3.549      857.183
11/17/2013  01:21:00      -61.370      -32.857       -1.234       16.690       20.643       10.974      278.549      426.150      120.425        0.284        0.041       69.612        8.874        0.016      333.887        3.497      857.182
11/17/2013  01:22:00      -14.299      -38.486        0.715       21.737       15.513       10.067      472.500      240.650      101.341        0.125        0.041       41.057        5.676        0.019      334.068        3.796      857.186
11/17/2013  01:23:00      -24.222      -41.425        0.881       15.004       13.762        9.873      225.109      189.386       97.469        0.141        0.026       47.986        2.213        0.002      334.145        3.924      857.183
11/17/2013  01:24:00        1.439      -37.164        3.548       16.344       12.386       12.720      267.125      153.404      161.788        0.099        0.029       37.192       10.844        0.085      334.209        4.033      857.194
11/17/2013  01:25:00      -23.851        5.922        0.317       17.427        6.795        8.270      303.692       46.165       68.397        0.051        0.021       24.575        8.819        0.129      334.105        3.859      857.209
11/17/2013  01:26:00      -42.396       14.680      -10.726        8.451        6.017        5.959       71.413       36.204       35.507        0.114        0.007       44.866        5.252        0.014      334.094        3.838      857.246
11/17/2013  01:27:00      -82.031        0.308      -10.784       20.635       10.259       10.012      425.807      105.238      100.246        0.374        0.032       82.032        7.500        0.008      334.196        4.010      857.278
11/17/2013  01:28:00      -55.028       -5.050      -12.588       21.550       10.648       10.746      464.392      113.370      115.471        0.195        0.035       55.259       11.155        0.041      334.245        4.091      857.299
11/17/2013  01:29:00       -0.088        4.315       -4.079       10.578       12.428        9.312      111.887      154.448       86.721        0.019        0.018        4.316        7.507        3.024      334.150        3.934      857.303
11/17/2013  01:30:00       18.857        8.980       -4.420       10.776        7.646        8.521      116.117       58.459       72.611        0.035        0.012       20.886        7.651        0.134      334.042        3.752      857.302
11/17/2013  01:31:00        9.669        8.011       -1.893        6.722        9.603        5.061       45.187       92.226       25.617        0.016        0.008       12.556        4.555        0.132      334.085        3.827      857.298
11/17/2013  01:32:00      -19.332       -4.418       -1.616       17.788        4.654        3.125      316.400       21.663        9.763        0.037        0.017       19.831        5.873        0.088      334.070        3.799      857.302
11/17/2013  01:33:00      -61.253      -19.763       -5.273       12.513       12.593        6.120      156.563      158.574       37.454        0.226        0.018       64.362        5.667        0.008      333.991        3.671      857.319
11/17/2013  01:34:00      -46.466      -25.615       -4.596       18.084       10.143        9.665      327.026      102.890       93.412        0.168        0.026       53.059        6.119        0.013      333.916        3.544      857.334
11/17/2013  01:35:00      -53.857      -23.207       -7.147       10.986        9.212        7.329      120.681       84.859       53.710        0.187        0.013       58.645        1.290        0.000      333.883        3.491      857.341
11/17/2013  01:36:00      -58.042      -23.025       -7.850        6.487        8.589        6.060       42.087       73.769       36.725        0.206        0.008       62.442        3.066        0.002      333.963        3.623      857.338
11/17/2013  01:37:00      -62.761      -12.225      -11.369        6.864       11.112        5.360       47.113      123.472       28.725        0.221        0.010       63.940        3.829        0.004      333.987        3.666      857.324
11/17/2013  01:38:00      -55.457      -13.043      -12.120        8.015        9.492        5.949       64.234       90.099       35.388        0.179        0.009       56.970        3.551        0.004      334.044        3.757      857.302
11/17/2013  01:39:00      -42.704      -13.935       -6.665        4.134        6.920        3.257       17.091       47.887       10.611        0.107        0.004       44.920        2.860        0.004      334.031        3.735      857.291
11/17/2013  01:40:00      -56.529      -16.423       -7.079       12.434        6.396        4.429      154.598       40.904       19.613        0.187        0.011       58.866        5.647        0.009      334.000        3.687      857.298
11/17/2013  01:41:00      -81.806      -36.450       -8.657       11.179       13.855       10.274      124.971      191.954      105.547        0.426        0.021       89.559        6.812        0.006      333.937        3.580      857.317
11/17/2013  01:42:00      -66.913       -9.486       -8.657       16.047       10.615        9.806      257.518      112.671       96.162        0.255        0.023       67.582        6.901        0.010      333.791        3.336      857.333
11/17/2013  01:43:00      -52.311       -7.002       -5.163       18.925        9.146        6.057      358.173       83.642       36.693        0.165        0.024       52.777        4.607        0.008      333.830        3.401      857.327
11/17/2013  01:44:00      -70.811       -7.077      -11.718       13.241       12.594       10.877      175.329      158.602      118.299        0.283        0.023       71.163        7.519        0.011      333.890        3.502      857.331
11/17/2013  01:45:00      -66.859      -30.458       -8.619       12.092       10.596        7.879      146.209      112.276       62.081        0.290        0.016       73.470        3.199        0.002      333.820        3.386      857.345
11/17/2013  01:46:00      -88.695      -34.783      -12.522        9.173       13.719        8.644       84.139      188.215       74.716        0.479        0.017       95.271        5.009        0.003      333.703        3.191      857.374
11/17/2013  01:47:00      -96.235      -12.818      -12.446       10.731       11.955        7.401      115.146      142.914       54.780        0.495        0.016       97.085        3.836        0.002      333.647        3.098      857.397
11/17/2013  01:48:00      -65.912      -13.498       -7.753       21.271       12.088        7.455      452.447      146.121       55.578        0.262        0.033       67.280        8.713        0.017      333.695        3.178      857.402
11/17/2013  01:49:00        3.924      -11.028       -1.232       12.963       10.937        8.517      168.035      119.628       72.535        0.025        0.018       11.705        6.321        0.292      333.740        3.254      857.401
11/17/2013  01:50:00       27.728       27.486        9.173       14.290       11.332       12.406      204.207      128.410      153.898        0.105        0.024       39.043        7.593        0.038      333.788        3.332      857.415
11/17/2013  01:51:00       16.451       20.835        4.592       11.083       14.898       12.181      122.833      221.944      148.381        0.061        0.025       26.547       10.182        0.147      333.681        3.154      857.440
11/17/2013  01:52:00       13.534       10.414        7.607        9.208        7.620        9.486       84.783       58.057       89.991        0.029        0.012       17.077        6.094        0.127      333.630        3.071      857.461
11/17/2013  01:53:00       39.950       22.364       18.556       10.758       10.000       11.097      115.737      100.010      123.151        0.139        0.017       45.784        6.110        0.018      333.660        3.120      857.461
11/17/2013  01:54:00       38.093       28.558       22.541       15.490       16.559       16.356      239.955      274.210      267.530        0.178        0.039       47.609       10.575        0.049      333.667        3.131      857.474
11/17/2013  01:55:00       33.570       22.397       17.760       14.808       20.604       15.939      219.289      424.530      254.049        0.142        0.045       40.356       12.025        0.089      333.603        3.026      857.474
11/17/2013  01:56:00       25.222      -13.790        3.063       19.412       10.947       10.035      376.817      119.832      100.704        0.072        0.030       28.745       11.319        0.155      333.819        3.386      857.469
11/17/2013  01:57:00        8.691      -13.899        8.061       13.009       20.477        7.811      169.244      419.325       61.019        0.049        0.032       16.393        8.842        0.291      333.870        3.469      857.476
11/17/2013  01:58:00       28.227       29.652       10.242       18.814       16.493       12.035      353.973      272.024      144.847        0.128        0.039       40.940        6.996        0.029      333.738        3.250      857.481
11/17/2013  01:59:00       51.064       40.236        3.589       23.115       14.065       14.217      534.305      197.833      202.137        0.259        0.047       65.011        9.818        0.023      333.687        3.165      857.478
11/17/2013  02:00:00       30.102       21.701        3.092       19.640       13.786       15.357      385.711      190.058      235.836        0.110        0.041       37.109        9.755        0.069      333.610        3.039      857.464
11/17/2013  02:01:00       37.750        6.702        5.115       19.396       18.438       10.708      376.189      339.946      114.672        0.116        0.042       38.340        8.647        0.051      333.729        3.235      857.453
11/17/2013  02:02:00       38.913       -5.383        2.677       22.001       13.185        9.904      484.025      173.845       98.097        0.115        0.038       39.283        8.575        0.048      333.888        3.500      857.457
11/17/2013  02:03:00       -5.304        6.865       18.456        7.200       14.552        9.531       51.843      211.757       90.832        0.039        0.018        8.675        5.973        0.474      333.771        3.306      857.476
11/17/2013  02:04:00        4.454       19.123       22.962       16.823       11.584        8.252      283.013      134.180       68.102        0.070        0.024       19.635        5.138        0.068      333.695        3.178      857.489
11/17/2013  02:05:00       13.493       16.817       16.716       12.861        9.409        8.687      165.416       88.523       75.458        0.054        0.016       21.560        7.647        0.126      333.675        3.146      857.498
11/17/2013  02:06:00       13.468        9.287        8.272        9.466        8.218        7.779       89.599       67.531       60.510        0.028        0.011       16.359        5.907        0.130      333.626        3.064      857.509
11/17/2013  02:07:00       39.797       17.304        6.534       15.315        9.620        8.840      234.553       92.545       78.143        0.117        0.020       43.396        8.687        0.040      333.696        3.182      857.506
11/17/2013  02:08:00       25.901       10.687        1.782       11.554       10.084        6.769      133.493      101.697       45.824        0.053        0.014       28.020        6.048        0.047      333.702        3.190      857.509
11/17/2013  02:09:00      -16.483      -13.013       -0.836       11.945        9.620        4.523      142.690       92.552       20.458        0.035        0.013       21.001        2.613        0.015      333.599        3.021      857.520
11/17/2013  02:10:00      -25.564      -16.784        3.145       10.317        6.445        7.171      106.442       41.537       51.420        0.057        0.010       30.582        5.280        0.030      333.373        2.644      857.536
11/17/2013  02:11:00      -51.766      -27.271       -4.109       16.883        9.709        8.474      285.019       94.271       71.817        0.195        0.023       58.510        5.065        0.007      333.323        2.562      857.546
11/17/2013  02:12:00      -58.311      -25.344      -12.279        9.328        8.280        7.414       87.019       68.554       54.965        0.220        0.011       63.580        5.035        0.006      333.349        2.605      857.577
11/17/2013  02:13:00      -50.857      -13.886       -9.537       10.187       12.348        7.535      103.782      152.469       56.775        0.159        0.016       52.718        3.851        0.005      333.328        2.570      857.602
11/17/2013  02:14:00      -60.248       11.583      -10.987        9.812       11.442        8.771       96.268      130.911       76.926        0.209        0.015       61.351        6.746        0.012      333.343        2.596      857.611
11/17/2013  02:15:00      -59.716       -3.691      -10.896        4.815        5.418        6.319       23.181       29.352       39.930        0.190        0.005       59.830        3.820        0.004      333.499        2.852      857.630
11/17/2013  02:16:00      -55.410      -20.833      -14.669        7.824        6.956        5.171       61.214       48.385       26.735        0.193        0.007       59.197        2.134        0.001      333.515        2.881      857.646
11/17/2013  02:17:00      -54.912      -23.388      -14.884       15.705       11.175        8.211      246.650      124.883       67.422        0.211        0.022       59.685        4.909        0.007      333.531        2.906      857.645
11/17/2013  02:18:00      -90.120      -16.374      -13.745       18.835       16.149       11.041      354.753      260.800      121.906        0.466        0.037       91.596        4.096        0.002      333.345        2.598      857.638
11/17/2013  02:19:00     -114.294      -18.908      -10.461       22.740       21.780       15.970      517.091      474.362      255.044        0.739        0.062      115.848       12.281        0.011      333.286        2.501      857.627
11/17/2013  02:20:00     -122.162      -29.327      -18.214       26.267       17.313       17.955      689.944      299.733      322.381        0.871        0.066      125.633       12.715        0.010      333.101        2.196      857.624
11/17/2013  02:21:00      -83.759      -16.593       -6.477       14.486       13.935       10.898      209.847      194.178      118.777        0.393        0.026       85.387        5.950        0.005      333.154        2.280      857.623
11/17/2013  02:22:00     -100.973      -24.777      -13.486        9.502       14.521        6.807       90.288      210.849       46.333        0.567        0.017      103.968        3.363        0.001      333.242        2.429      857.617
11/17/2013  02:23:00      -89.131      -47.292       -1.881       20.895       16.621       13.687      436.604      276.267      187.340        0.554        0.045      100.900       10.048        0.010      333.235        2.418      857.612
11/17/2013  02:24:00      -91.500      -44.050        5.411       25.721       13.131       14.540      661.577      172.415      211.414        0.569        0.052      101.551       14.046        0.019      333.242        2.429      857.612
11/17/2013  02:25:00      -56.453      -11.849        0.584       29.473       25.774       19.188      868.670      664.304      368.184        0.261        0.095       57.683       15.655        0.074      333.103        2.198      857.619
11/17/2013  02:26:00      -91.387        3.635       -6.145       29.153       17.783       16.613      849.922      316.226      276.004        0.492        0.072       91.460       17.421        0.036      333.088        2.174      857.624
11/17/2013  02:27:00     -116.602      -17.209      -11.317       27.843       16.167       11.305      775.229      261.373      127.811        0.759        0.058      117.865       11.732        0.010      333.195        2.350      857.641
11/17/2013  02:28:00      -88.648      -14.789       -2.392       29.366       19.011       16.442      862.340      361.433      270.339        0.479        0.075       89.873       11.569        0.017      333.151        2.278      857.647
11/17/2013  02:29:00      -98.091      -27.570       -2.062       18.997       16.672       11.988      360.878      277.964      143.707        0.558        0.039      101.892        9.306        0.008      333.175        2.318      857.656
11/17/2013  02:30:00      -58.080      -29.032        6.634       29.335       18.937       12.955      860.550      358.594      167.834        0.282        0.069       64.931       12.470        0.037      333.193        2.345      857.669
11/17/2013  02:31:00      -72.415      -13.793        1.309       23.878       18.896       13.591      570.159      357.063      184.729        0.327        0.056       73.717       13.354        0.033      333.088        2.173      857.679
11/17/2013  02:32:00      -84.707       -6.680       -7.612       37.787       19.338       15.968     1427.830      373.968      254.969        0.467        0.103       84.970       19.605        0.053      333.033        2.083      857.709
11/17/2013  02:33:00     -119.631      -11.454       -8.170       29.153       18.372       15.529      849.895      337.525      241.156        0.797        0.071      120.178       14.377        0.014      332.931        1.915      857.725
11/17/2013  02:34:00     -116.137      -15.512        0.817       30.979       20.938       16.252      959.695      438.390      264.113        0.770        0.083      117.168       15.243        0.017      332.800        1.700      857.729
11/17/2013  02:35:00     -139.938      -30.337       -8.568       29.336       19.162       12.571      860.623      367.176      158.019        1.098        0.069      143.189        8.317        0.003      332.828        1.748      857.729
11/17/2013  02:36:00     -109.449      -44.501       -5.897       23.454       27.976       16.278      550.075      782.632      264.985        0.780        0.080      118.150       11.167        0.009      332.831        1.749      857.731
11/17/2013  02:37:00      -98.600      -40.606       -1.133       34.502       21.536       15.884     1190.374      463.778      252.287        0.664        0.095      106.634       17.112        0.026      332.885        1.839      857.727
11/17/2013  02:38:00      -92.628      -37.956       -1.449       31.102       20.869       15.494      967.325      435.497      240.054        0.583        0.082      100.103       15.446        0.024      332.916        1.889      857.702
11/17/2013  02:39:00     -113.549      -48.012       -8.691       18.131       20.793       14.146      328.731      432.365      200.096        0.812        0.048      123.282        8.606        0.005      332.955        1.956      857.678
11/17/2013  02:40:00      -99.531      -21.355      -11.278       46.553       33.972       21.208     2167.215     1154.129      449.785        0.713        0.189      101.796       22.353        0.048      332.925        1.905      857.671
11/17/2013  02:41:00     -103.408       -1.377      -10.374       45.049       33.028       25.620     2029.371     1090.834      656.394        0.729        0.189      103.417       24.776        0.057      332.972        1.984      857.677
11/17/2013  02:42:00     -113.506        3.152      -11.269       42.977       24.982       22.849     1847.056      624.107      522.057        0.801        0.150      113.550       11.527        0.010      333.028        2.074      857.668
11/17/2013  02:43:00      -97.110      -26.943       -8.940       37.238       24.141       20.532     1386.633      582.781      421.572        0.631        0.120      100.778       22.367        0.049      333.009        2.043      857.664
11/17/2013  02:44:00      -81.747      -37.338      -10.976       22.300       27.105       13.642      497.300      734.674      186.102        0.481        0.071       89.870        7.270        0.007      333.033        2.083      857.652
11/17/2013  02:45:00      -85.403       -4.102      -10.546       31.524       26.135       16.305      993.740      683.019      265.837        0.468        0.097       85.501       12.975        0.023      333.113        2.216      857.663
11/17/2013  02:46:00     -100.587        8.556       -6.749       44.448       36.860       24.377     1975.666     1358.654      594.262        0.708        0.196      100.950       14.393        0.020      333.149        2.274      857.676
11/17/2013  02:47:00     -116.389       14.797       -7.920       50.816       32.877       28.376     2582.304     1080.869      805.203        0.915        0.223      117.325       29.480        0.063      333.177        2.319      857.688
11/17/2013  02:48:00      -99.484       18.684      -15.796       45.941       34.843       21.443     2110.605     1214.039      459.807        0.714        0.189      101.224       20.732        0.042      333.220        2.391      857.698
11/17/2013  02:49:00      -97.732       -3.871      -12.809       32.143       27.971       21.559     1033.165      782.376      464.799        0.600        0.114       97.808       17.362        0.032      333.172        2.314      857.704
11/17/2013  02:50:00      -77.750        5.641       -2.735       37.897       35.078       22.142     1436.199     1230.446      490.269        0.462        0.158       77.955       21.684        0.077      333.206        2.369      857.702
11/17/2013  02:51:00      -98.768      -11.001       -2.739       33.906       27.080       19.093     1149.637      733.316      364.553        0.607        0.112       99.379       19.483        0.038      333.141        2.261      857.699
11/17/2013  02:52:00      -97.453      -42.240       -9.652       27.544       22.155       16.989      758.662      490.836      288.641        0.646        0.077      106.214       14.664        0.019      333.074        2.152      857.718
11/17/2013  02:53:00      -74.700      -49.994       -5.812       23.583       26.048       15.466      556.168      678.510      239.211        0.479        0.074       89.886        9.008        0.010      332.946        1.941      857.720
11/17/2013  02:54:00      -66.283      -34.603       -6.504       18.846       19.502       17.882      355.161      380.310      319.769        0.334        0.053       74.772        7.783        0.011      332.855        1.791      857.716
11/17/2013  02:55:00      -57.663      -17.552      -12.166       24.174       13.895       15.648      584.378      193.065      244.856        0.240        0.051       60.275       14.407        0.057      332.936        1.922      857.723
11/17/2013  02:56:00      -65.169      -28.716      -10.471       14.209       12.896       17.765      201.893      166.311      315.588        0.293        0.034       71.216        8.931        0.016      332.982        1.998      857.739
11/17/2013  02:57:00      -71.784      -21.396      -16.391       10.256       14.505        9.987      105.182      210.394       99.731        0.315        0.021       74.905        7.081        0.009      333.185        2.334      857.744
11/17/2013  02:58:00      -70.434      -14.756      -11.373       11.335       10.136        8.988      128.482      102.730       80.783        0.281        0.016       71.963        3.728        0.003      333.178        2.323      857.743
11/17/2013  02:59:00      -67.618      -37.907       -7.396       21.140       22.300       15.027      446.898      497.269      225.802        0.362        0.058       77.519        8.443        0.012      332.993        2.018      857.757
11/17/2013  03:00:00     -103.525      -10.658      -13.928       22.733       14.182       14.532      516.776      201.132      211.187        0.598        0.046      104.072       11.903        0.013      332.964        1.969      857.760
11/17/2013  03:01:00     -104.746       -2.659      -20.211       11.063       13.270       12.614      122.396      176.095      159.104        0.592        0.023      104.780        6.176        0.003      332.954        1.953      857.744
11/17/2013  03:02:00      -98.818      -14.298      -13.052       13.695       15.218       12.540      187.550      231.600      157.240        0.536        0.029       99.847        5.582        0.003      333.117        2.222      857.728
11/17/2013  03:03:00      -92.370      -18.066      -12.413       14.631       12.645        8.122      214.075      159.888       65.963        0.473        0.022       94.120        4.810        0.003      333.038        2.091      857.716
11/17/2013  03:04:00      -82.421      -35.417      -10.868       15.982       16.352       13.490      255.421      267.376      181.987        0.444        0.035       89.708        7.340        0.007      332.969        1.978      857.715
11/17/2013  03:05:00      -95.778      -21.381      -19.192       20.434       12.826       13.174      417.542      164.506      173.566        0.538        0.038       98.136       12.544        0.016      332.978        1.993      857.718
11/17/2013  03:06:00     -115.664        0.615      -19.027       15.330       16.350       10.875      235.002      267.337      118.271        0.718        0.031      115.666        9.308        0.006      332.883        1.835      857.729
11/17/2013  03:07:00     -114.212        1.172      -18.608       23.903       11.578       10.333      571.347      134.061      106.771        0.710        0.041      114.218        9.145        0.006      332.946        1.941      857.750
11/17/2013  03:08:00     -115.933        2.941      -16.462       20.858       10.604       10.931      435.054      112.437      119.476        0.719        0.033      115.971        8.724        0.006      333.062        2.131      857.769
11/17/2013  03:09:00      -74.974      -19.884      -14.171       11.962       11.502        7.886      143.086      132.296       62.182        0.328        0.017       77.565        3.780        0.002      332.995        2.020      857.772
11/17/2013  03:10:00      -65.959      -22.492      -14.474       10.143        7.720        5.951      102.873       59.598       35.415        0.263        0.010       69.688        3.340        0.002      332.992        2.015      857.772
11/17/2013  03:11:00      -76.188       -7.439      -13.087        7.352        7.180        8.653       54.050       51.547       74.879        0.311        0.009       76.550        4.628        0.004      333.007        2.039      857.781
11/17/2013  03:12:00      -70.496       -8.705      -15.959       10.323        8.845        9.260      106.572       78.233       85.747        0.279        0.014       71.031        5.822        0.007      333.030        2.078      857.787
11/17/2013  03:13:00     -107.777      -19.867      -15.974       12.112       10.519        8.000      146.708      110.644       63.998        0.629        0.016      109.593        6.690        0.004      333.013        2.050      857.789
11/17/2013  03:14:00     -112.477      -13.441      -14.865       27.728       13.733        8.686      768.867      188.592       75.439        0.704        0.052      113.277       10.589        0.009      333.123        2.232      857.777
11/17/2013  03:15:00     -117.902       -3.674      -13.809       15.068       11.632       10.103      227.053      135.305      102.063        0.728        0.023      117.959        5.737        0.002      333.057        2.122      857.776
11/17/2013  03:16:00     -115.378      -12.339      -10.956       27.431       19.125       11.407      752.443      365.757      130.128        0.742        0.062      116.036       11.718        0.010      333.008        2.042      857.783
11/17/2013  03:17:00     -104.789       -0.577       -9.430       28.791       18.819       17.624      828.936      354.141      310.619        0.628        0.075      104.790       15.339        0.021      332.868        1.811      857.800
11/17/2013  03:18:00     -121.090       -8.889      -11.262       19.981       16.037       16.320      399.236      257.201      266.346        0.790        0.046      121.415       11.230        0.009      332.868        1.812      857.807
11/17/2013  03:19:00     -112.227        2.380      -13.980       12.174       11.816        9.495      148.215      139.625       90.161        0.659        0.019      112.252        6.759        0.004      332.880        1.831      857.823
11/17/2013  03:20:00     -142.536        0.142      -15.291       17.400       11.762        9.770      302.761      138.334       95.451        1.054        0.027      142.536        7.643        0.003      332.798        1.696      857.834
11/17/2013  03:21:00     -173.529      -15.851      -14.630       26.780       21.627       18.315      717.160      467.710      335.438        1.605        0.076      174.251       17.911        0.011      332.705        1.541      857.848
11/17/2013  03:22:00     -150.819      -32.535      -14.233       32.891       22.841       18.299     1081.800      521.717      334.850        1.297        0.097      154.289       15.993        0.011      332.567        1.313      857.863
11/17/2013  03:23:00     -142.964      -45.700       -6.686       35.883       31.107       18.909     1287.595      967.651      357.566        1.259        0.131      150.091       15.160        0.010      332.555        1.293      857.879
11/17/2013  03:24:00     -140.833      -25.260       -0.406       40.876       31.846       23.791     1670.872     1014.148      566.013        1.186        0.163      143.080       20.937        0.021      332.556        1.295      857.895
11/17/2013  03:25:00     -123.445      -38.254        2.601       40.084       33.284       21.190     1606.714     1107.795      448.998        0.994        0.158      129.236       22.174        0.029      332.641        1.436      857.925
11/17/2013  03:26:00     -101.933      -38.121        5.610       34.623       25.513       20.212     1198.767      650.897      408.514        0.707        0.113      108.828       13.232        0.015      332.728        1.579      857.955
11/17/2013  03:27:00      -89.046      -52.519        0.971       40.763       29.682       18.513     1661.585      881.049      342.736        0.679        0.144      103.380       20.437        0.039      332.708        1.546      857.972
11/17/2013  03:28:00      -66.191      -40.717       -4.184       35.661       31.355       17.288     1271.699      983.151      298.865        0.430        0.128       77.711        9.241        0.014      332.748        1.612      857.971
11/17/2013  03:29:00     -123.624       -7.184      -15.884       24.208       14.566       13.581      586.003      212.178      184.446        0.828        0.049      123.833       13.433        0.012      332.735        1.591      857.948
11/17/2013  03:30:00     -146.845      -25.576      -16.146       17.446       15.469       12.439      304.378      239.302      154.728        1.159        0.035      149.056        9.113        0.004      332.742        1.604      857.939
11/17/2013  03:31:00     -159.667      -51.453       -7.241       28.478       20.262       17.802      811.015      410.536      316.896        1.487        0.077      167.753       16.255        0.009      332.725        1.573      857.928
11/17/2013  03:32:00     -155.309      -48.498       -9.505       18.476       19.255       13.708      341.378      370.745      187.917        1.373        0.045      162.705        9.273        0.003      332.712        1.553      857.911
11/17/2013  03:33:00     -146.017      -61.754       -6.205       26.274       22.981       13.643      690.344      528.122      186.137        1.329        0.070      158.539       13.034        0.007      332.731        1.585      857.901
11/17/2013  03:34:00     -114.507      -55.953        0.652       30.458       24.769       17.347      927.678      613.528      300.931        0.904        0.092      127.447       12.241        0.009      332.671        1.485      857.888
11/17/2013  03:35:00     -125.828      -55.470       -4.394       27.993       29.591       16.928      783.630      875.604      286.560        1.044        0.097      137.512       12.479        0.008      332.669        1.482      857.883
11/17/2013  03:36:00     -116.497      -66.289        0.474       37.410       27.895       19.824     1399.503      778.115      392.981        1.027        0.129      134.037       17.963        0.018      332.647        1.445      857.879
11/17/2013  03:37:00     -137.100      -66.515       -4.282       42.397       28.891       16.215     1797.464      834.673      262.924        1.307        0.145      152.383       18.497        0.015      332.719        1.565      857.879
11/17/2013  03:38:00     -134.427      -38.364       -3.151       30.421       20.646       16.399      925.459      426.250      268.917        1.059        0.081      139.795       16.751        0.014      332.671        1.486      857.874
11/17/2013  03:39:00     -121.906      -17.170      -15.733       28.957       20.595       18.575      838.520      424.165      345.035        0.851        0.080      123.109       14.126        0.013      332.581        1.336      857.873
11/17/2013  03:40:00     -149.563       -5.298      -14.067       20.299       18.557       16.194      412.035      344.371      262.251        1.181        0.051      149.657       13.282        0.008      332.538        1.266      857.869
11/17/2013  03:41:00     -147.631        9.576      -15.660       30.861       23.544       18.924      952.430      554.335      358.124        1.200        0.093      147.942       13.355        0.008      332.655        1.457      857.854
11/17/2013  03:42:00     -116.933        4.992      -13.487       27.605       35.772       19.036      762.061     1279.667      362.381        0.814        0.120      117.039       11.580        0.010      332.647        1.446      857.840
11/17/2013  03:43:00     -130.386       17.140      -20.569       32.699       44.941       22.462     1069.219     2019.709      504.556        1.065        0.180      131.508       15.229        0.013      332.596        1.360      857.841
11/17/2013  03:44:00     -149.704        6.278      -18.020       30.722       37.892       20.351      943.845     1435.780      414.176        1.278        0.140      149.835        9.321        0.004      332.533        1.258      857.854
11/17/2013  03:45:00     -172.997       13.775      -19.765       23.711       25.733       21.037      562.213      662.164      442.572        1.609        0.083      173.545       12.771        0.005      332.481        1.171      857.855
11/17/2013  03:46:00     -159.010       12.171      -14.663       23.046       26.085       16.304      531.098      680.449      265.820        1.356        0.074      159.475       12.307        0.006      332.424        1.077      857.854
11/17/2013  03:47:00     -132.553        2.241      -14.305       35.675       28.583       24.507     1272.720      817.014      600.569        1.023        0.135      132.572       21.195        0.026      332.460        1.136      857.847
11/17/2013  03:48:00     -128.227       -2.176       -8.406       23.222       23.954       15.091      539.265      573.814      227.732        0.893        0.067      128.246       10.884        0.007      332.466        1.147      857.843
11/17/2013  03:49:00     -139.634       20.641       -6.043       51.974       31.916       19.486     2701.321     1018.626      379.723        1.203        0.205      141.151       19.053        0.018      332.542        1.273      857.851
11/17/2013  03:50:00     -159.719       39.381       -7.224       46.647       26.237       24.185     2175.925      688.356      584.937        1.528        0.172      164.502       21.210        0.017      332.650        1.449      857.837
11/17/2013  03:51:00     -153.404       28.480      -11.155       38.780       32.804       23.004     1503.909     1076.113      529.167        1.379        0.155      156.025       17.176        0.012      332.720        1.566      857.819
11/17/2013  03:52:00     -162.790       35.170      -26.940       36.771       34.750       23.679     1352.108     1207.580      560.701        1.579        0.156      166.546       16.143        0.009      332.715        1.560      857.806
11/17/2013  03:53:00     -151.529       28.799      -14.446       38.871       30.180       21.278     1510.958      910.812      452.759        1.344        0.144      154.242       18.808        0.015      332.697        1.528      857.784
11/17/2013  03:54:00     -153.078       16.104      -15.613       37.677       39.771       26.311     1419.558     1581.763      692.292        1.381        0.185      153.923       20.036        0.017      332.692        1.520      857.753
11/17/2013  03:55:00     -132.518       19.879      -10.039       44.089       23.882       24.811     1943.831      570.364      615.572        1.059        0.156      134.000       22.773        0.029      332.778        1.662      857.734
11/17/2013  03:56:00     -127.680        2.088      -22.279       29.636       30.858       16.264      878.316      952.188      264.503        0.945        0.105      127.697        9.298        0.005      332.788        1.679      857.731
11/17/2013  03:57:00     -132.661       -5.825      -19.163       24.903       32.499       17.018      620.171     1056.185      289.628        0.998        0.098      132.789       12.793        0.009      332.727        1.579      857.723
11/17/2013  03:58:00     -141.695      -34.819      -20.644       29.266       29.562       18.458      856.496      873.890      340.695        1.189        0.104      145.910       13.540        0.009      332.617        1.396      857.725
11/17/2013  03:59:00     -138.000        8.858      -13.803       33.229       40.099       21.816     1104.171     1607.920      475.918        1.125        0.159      138.284       10.925        0.006      332.650        1.450      857.746
11/17/2013  04:00:00     -118.658       23.394      -10.478       36.797       30.086       15.460     1354.049      905.144      239.016        0.862        0.125      120.942        6.610        0.003      332.647        1.445      857.753
11/17/2013  04:01:00     -122.185       19.774      -13.823       34.901       38.114       18.971     1218.103     1452.654      359.883        0.927        0.152      123.774       16.934        0.019      332.606        1.378      857.758
11/17/2013  04:02:00      -92.055        4.695       -7.108       36.206       29.699       24.820     1310.892      882.008      616.048        0.568        0.140       92.175       17.956        0.038      332.683        1.504      857.761
11/17/2013  04:03:00      -93.333       -9.811       -1.793       45.708       28.190       19.093     2089.248      794.673      364.555        0.603        0.162       93.847       17.824        0.036      332.633        1.422      857.747
11/17/2013  04:04:00      -74.505      -10.585       -7.197       39.581       35.094       17.777     1566.618     1231.623      316.024        0.441        0.156       75.253       15.430        0.042      332.545        1.276      857.724
11/17/2013  04:05:00      -73.283      -15.327       -4.318       50.549       32.176       24.641     2555.184     1035.297      607.199        0.491        0.210       74.869       27.439        0.134      332.479        1.167      857.707
11/17/2013  04:06:00      -86.935      -19.493       -5.945       38.647       31.680       23.928     1493.553     1003.626      572.533        0.552        0.153       89.093       18.583        0.044      332.556        1.293      857.697
11/17/2013  04:07:00      -98.645      -47.873       -4.417       33.671       31.468       21.015     1133.713      990.262      441.634        0.730        0.128      109.647       16.545        0.023      332.561        1.303      857.684
11/17/2013  04:08:00     -131.596      -39.687       -5.192       31.855       28.762       17.665     1014.743      827.245      312.048        1.054        0.108      137.450       13.351        0.009      332.583        1.340      857.691
11/17/2013  04:09:00      -95.293      -42.301       -0.954       23.205       18.421       14.527      538.472      339.326      211.021        0.598        0.054      104.260       11.087        0.011      332.552        1.289      857.720
11/17/2013  04:10:00      -43.871      -35.117        5.017       26.605       19.315       12.545      707.849      373.070      157.386        0.221        0.062       56.195       11.652        0.043      332.627        1.412      857.746
11/17/2013  04:11:00      -39.904      -26.851        3.578       21.056       20.731       12.364      443.347      429.775      152.860        0.168        0.051       48.097        9.511        0.039      332.611        1.386      857.767
11/17/2013  04:12:00       15.981      -21.728        4.563       20.656       14.082       11.084      426.680      198.305      122.848        0.075        0.037       26.973        4.156        0.024      332.747        1.611      857.794
11/17/2013  04:13:00        8.157      -13.053        3.174       13.133       16.186        7.956      172.487      261.999       63.298        0.037        0.025       15.392        7.721        0.252      332.703        1.537      857.822
11/17/2013  04:14:00      -47.502       10.560      -10.138       24.797       10.506       13.377      614.908      110.370      178.947        0.169        0.045       48.662        9.218        0.036      332.635        1.427      857.846
11/17/2013  04:15:00     -109.324       -0.921      -14.588       14.344       17.166       10.786      205.761      294.663      116.330        0.639        0.031      109.328        9.064        0.007      332.748        1.613      857.871
11/17/2013  04:16:00     -118.515      -22.207      -12.330       32.460       21.378       20.079     1053.621      457.036      403.171        0.830        0.096      120.578       19.068        0.025      332.739        1.598      857.886
11/17/2013  04:17:00     -129.143      -39.948      -13.885       15.330       12.675       10.775      235.008      160.659      116.091        0.949        0.026      135.180        8.236        0.004      332.773        1.654      857.893
11/17/2013  04:18:00      -78.046      -50.611        7.918       34.536       30.124       22.514     1192.742      907.485      506.891        0.566        0.130       93.020       19.969        0.046      332.651        1.452      857.902
11/17/2013  04:19:00      -80.702      -62.410        0.107       34.410       34.477       24.305     1184.023     1188.695      590.756        0.669        0.148      102.019       21.813        0.046      332.611        1.384      857.901
11/17/2013  04:20:00     -107.160      -57.150       -0.390       38.993       27.484       17.662     1520.465      755.348      311.958        0.867        0.129      121.447       21.106        0.030      332.649        1.448      857.906
11/17/2013  04:21:00      -60.147      -38.388        9.114       47.730       31.191       19.966     2278.178      972.895      398.651        0.441        0.182       71.353       24.981        0.123      332.703        1.538      857.903
11/17/2013  04:22:00      -46.289      -56.345        3.764       38.732       33.675       21.245     1500.148     1133.975      451.349        0.421        0.154       72.921       24.517        0.113      332.707        1.543      857.915
11/17/2013  04:23:00     -124.011      -57.421        2.745       34.348       33.638       21.377     1179.756     1131.523      456.962        1.073        0.138      136.660       18.915        0.019      332.700        1.533      857.933
11/17/2013  04:24:00     -161.301      -56.436      -12.534       18.556       18.681       15.454      344.340      348.970      238.822        1.515        0.047      170.889        9.766        0.003      332.661        1.468      857.961
11/17/2013  04:25:00     -120.728      -43.773       -2.734       37.798       34.927       19.647     1428.689     1219.874      385.989        0.977        0.152      128.418       16.277        0.016      332.690        1.517      857.993
11/17/2013  04:26:00     -108.684      -31.670       -2.770       36.522       26.775       19.105     1333.825      716.897      364.987        0.762        0.121      113.204       15.578        0.019      332.689        1.516      858.023
11/17/2013  04:27:00     -101.809      -48.469        3.312       26.924       20.544       15.578      724.912      422.057      242.681        0.706        0.069      112.757        9.706        0.007      332.779        1.665      858.057
11/17/2013  04:28:00      -34.389      -37.964       14.038       31.192       33.423       21.012      972.943     1117.070      441.524        0.268        0.127       51.223       17.115        0.112      332.797        1.695      858.068
11/17/2013  04:29:00      -51.361      -47.569       12.203       40.261       28.008       20.260     1620.955      784.445      410.477        0.393        0.141       70.006       18.701        0.071      332.804        1.706      858.058
11/17/2013  04:30:00      -86.962      -77.971       -0.481       26.997       32.917       22.313      728.848     1083.514      497.892        0.798        0.116      116.799       15.307        0.017      332.921        1.898      858.025
11/17/2013  04:31:00      -57.323      -54.295        5.008       35.523       33.729       20.491     1261.895     1137.660      419.869        0.454        0.141       78.955       18.153        0.053      332.901        1.865      857.994
11/17/2013  04:32:00     -104.164      -49.490       -2.238       25.031       20.849       14.842      626.536      434.674      220.288        0.729        0.064      115.323       11.520        0.010      332.869        1.812      857.964
11/17/2013  04:33:00      -86.535      -19.415       -6.070       28.507       24.069       15.703      812.670      579.300      246.583        0.477        0.082       88.687       16.156        0.033      332.743        1.603      857.949
11/17/2013  04:34:00     -124.082      -17.952       -1.635       36.960       24.691       21.303     1366.073      609.643      453.802        0.907        0.121      125.374       18.656        0.022      332.623        1.406      857.942
11/17/2013  04:35:00     -120.353      -27.622        1.164       48.040       38.126       25.673     2307.810     1453.584      659.085        0.983        0.221      123.483       26.961        0.048      332.551        1.288      857.947
11/17/2013  04:36:00     -138.583      -26.896       -3.230       39.420       34.279       21.794     1553.924     1175.059      475.000        1.157        0.160      141.168       24.203        0.029      332.602        1.371      857.951
11/17/2013  04:37:00      -89.403      -21.756       -1.990       37.566       26.301       16.780     1411.219      691.724      281.556        0.543        0.119       92.012       16.807        0.033      332.524        1.242      857.953
11/17/2013  04:38:00     -123.505       -7.323       -1.883       40.940       27.796       18.117     1676.117      772.614      328.232        0.904        0.139      123.722       19.257        0.024      332.623        1.407      857.941
11/17/2013  04:39:00     -105.992      -24.822       -4.115       38.746       25.623       19.158     1501.289      656.547      367.013        0.720        0.126      108.860       19.962        0.034      332.563        1.307      857.938
11/17/2013  04:40:00      -85.398      -34.686       -3.462       41.166       27.048       19.275     1694.615      731.598      371.513        0.565        0.140       92.173       22.218        0.058      332.551        1.288      857.950
11/17/2013  04:41:00      -70.440      -60.215        3.157       39.481       33.848       17.115     1558.729     1145.670      292.934        0.580        0.150       92.669       15.936        0.030      332.629        1.416      857.956
11/17/2013  04:42:00      -72.285      -36.788       -0.923       23.624       16.001       14.938      558.080      256.044      223.134        0.381        0.052       81.108       15.187        0.035      332.643        1.438      857.965
11/17/2013  04:43:00      -72.216      -32.532       -3.886       19.318       27.270       13.217      373.173      743.652      174.690        0.379        0.065       79.205       11.831        0.022      332.623        1.405      857.989
11/17/2013  04:44:00     -102.284      -13.282      -11.026       27.344       21.204       15.687      747.706      449.628      246.078        0.610        0.072      103.143       12.582        0.015      332.513        1.223      858.026
11/17/2013  04:45:00     -123.952      -10.630       -5.232       45.395       24.757       20.328     2060.716      612.910      413.221        0.930        0.154      124.407       24.999        0.040      332.434        1.094      858.061
11/17/2013  04:46:00     -112.932      -43.246        1.385       41.697       35.804       23.536     1738.668     1281.915      553.967        0.910        0.179      120.929       23.718        0.038      332.392        1.024      858.081
11/17/2013  04:47:00      -38.255      -42.692       -4.609       53.387       25.583       26.097     2850.177      654.512      681.042        0.375        0.209       57.324       21.687        0.143      332.437        1.100      858.090
11/17/2013  04:48:00      -37.240      -52.716        7.910       41.628       37.572       26.797     1732.887     1411.685      718.065        0.404        0.193       64.543       23.703        0.135      332.440        1.103      858.100
11/17/2013  04:49:00      -86.237      -39.111       -0.549       42.615       31.110       19.758     1816.012      967.863      390.384        0.607        0.159       94.692       21.194        0.050      332.376        0.997      858.093
11/17/2013  04:50:00      -95.614      -45.596       -2.265       19.786       21.861       14.793      391.489      477.889      218.846        0.616        0.054      105.930       12.532        0.014      332.484        1.176      858.087
11/17/2013  04:51:00      -87.629      -39.627       -5.848       16.894       15.934       10.684      285.412      253.904      114.145        0.497        0.033       96.172        8.604        0.008      332.520        1.235      858.099
11/17/2013  04:52:00      -83.411      -31.124       -1.762       22.013       24.831       16.498      484.588      616.579      272.182        0.465        0.069       89.029        9.928        0.012      332.527        1.247      858.112
11/17/2013  04:53:00     -101.973      -40.819       -1.125       17.932       19.413       11.140      321.557      376.883      124.090        0.644        0.041      109.839        3.416        0.001      332.579        1.332      858.129
11/17/2013  04:54:00      -91.785      -15.060      -10.543       10.344       16.614       12.295      106.990      276.014      151.175        0.465        0.027       93.012        8.420        0.008      332.529        1.250      858.150
11/17/2013  04:55:00      -78.278      -39.983       -3.930       19.115       20.914       14.035      365.394      437.415      196.976        0.437        0.050       87.898       12.756        0.021      332.518        1.232      858.167
11/17/2013  04:56:00     -100.266      -38.905       -3.911       19.927       18.388       10.958      397.075      338.130      120.070        0.622        0.043      107.550       10.382        0.009      332.524        1.242      858.166
11/17/2013  04:57:00      -72.921      -33.328       -4.060       29.816       22.858       13.423      889.001      522.508      180.184        0.402        0.080       80.177       11.343        0.020      332.530        1.251      858.172
11/17/2013  04:58:00      -38.204      -12.648       -3.014       12.844       12.328       11.248      164.962      151.976      126.510        0.104        0.022       40.244        9.093        0.051      332.507        1.215      858.186
11/17/2013  04:59:00      -12.942       -1.102       -1.577        9.221        8.360        6.595       85.025       69.882       43.493        0.018        0.010       12.989        4.624        0.127      332.462        1.139      858.205
11/17/2013  05:00:00      -28.608        6.404       -8.265        6.412        6.245        6.865       41.115       38.997       47.131        0.053        0.006       29.316        3.232        0.012      332.480        1.169      858.218
11/17/2013  05:01:00      -19.916       -6.547        1.161       13.944       10.021        5.847      194.433      100.416       34.188        0.038        0.016       20.964        6.945        0.110      332.490        1.185      858.233
11/17/2013  05:02:00      -40.641      -13.981        1.764       10.881       16.385        8.131      118.393      268.454       66.110        0.115        0.023       42.978        7.406        0.030      332.487        1.181      858.248
11/17/2013  05:03:00       -7.103        3.478       10.721       27.335        8.802        9.381      747.220       77.467       88.006        0.054        0.046        7.908       14.071        3.166      332.386        1.015      858.249
11/17/2013  05:04:00       20.672       23.438       14.030       12.295        7.155       12.905      151.156       51.187      166.547        0.077        0.018       31.252        8.358        0.072      332.268        0.819      858.250
11/17/2013  05:05:00       39.743       49.157       21.196       15.238       10.666       18.973      232.204      113.760      359.961        0.258        0.035       63.214       11.823        0.035      332.259        0.806      858.256
11/17/2013  05:06:00       75.980       48.325       12.092       29.867       17.973       20.726      892.054      323.029      429.547        0.495        0.082       90.046       18.000        0.040      332.227        0.753      858.266
11/17/2013  05:07:00       61.796       43.333        6.882       22.064       19.459       19.750      486.825      378.663      390.053        0.350        0.063       75.475       13.297        0.031      332.096        0.536      858.270
11/17/2013  05:08:00       40.784       32.695        5.094       23.001       16.009       15.564      529.041      256.296      242.236        0.189        0.051       52.271        8.060        0.024      332.048        0.458      858.271
11/17/2013  05:09:00       30.889       27.126        4.399       28.259       15.562       13.456      798.547      242.176      181.067        0.147        0.061       41.109       10.078        0.060      332.041        0.447      858.269
11/17/2013  05:10:00       50.792       25.031        2.979       17.057       15.933       12.213      290.943      253.871      149.146        0.195        0.035       56.625        8.989        0.025      332.073        0.498      858.276
11/17/2013  05:11:00       47.966       24.094        4.297       12.690       12.412       11.192      161.049      154.069      125.263        0.167        0.022       53.677        7.959        0.022      332.020        0.411      858.298
11/17/2013  05:12:00       57.559       21.073        0.821       18.910       13.272       10.219      357.594      176.157      104.425        0.220        0.032       61.296        7.757        0.016      332.075        0.504      858.312
11/17/2013  05:13:00       65.717       47.236       19.548       22.743       11.949       20.079      517.242      142.768      403.155        0.400        0.053       80.932        9.870        0.015      332.101        0.545      858.311
11/17/2013  05:14:00       97.924       50.661        9.895       24.677       18.578       19.673      608.942      345.126      387.035        0.680        0.067      110.253       15.805        0.021      332.018        0.407      858.296
11/17/2013  05:15:00       58.969       39.266        8.305       33.005       18.768       15.000     1089.298      352.234      225.003        0.338        0.083       70.846        8.545        0.015      331.953        0.300      858.292
11/17/2013  05:16:00       31.892       26.915        0.730       13.525       14.072       11.937      182.932      198.017      142.488        0.113        0.026       41.731        2.807        0.005      331.969        0.328      858.289
11/17/2013  05:17:00       11.896       10.339        7.283       12.946       11.741        9.916      167.608      137.849       98.321        0.035        0.020       15.761        7.788        0.244      331.990        0.363      858.307
11/17/2013  05:18:00       66.174       41.264       16.525       43.204       23.416       18.191     1866.555      548.322      330.911        0.455        0.137       77.986       18.095        0.054      331.942        0.282      858.327
11/17/2013  05:19:00       85.776       55.474       25.978       24.826       10.048       14.839      616.327      100.952      220.210        0.602        0.047      102.151        9.023        0.008      331.963        0.316      858.330
11/17/2013  05:20:00       38.931       26.186        9.271       14.756       15.148       12.080      217.733      229.455      145.918        0.144        0.030       46.918        4.132        0.008      332.008        0.392      858.336
11/17/2013  05:21:00        9.721       15.404        1.230        7.864       15.589        7.653       61.842      243.002       58.572        0.035        0.018       18.215        8.516        0.219      332.061        0.479      858.349
11/17/2013  05:22:00        3.315       43.205       -4.331        9.551       11.337        6.621       91.223      128.526       43.842        0.108        0.013       43.332        5.589        0.017      332.121        0.577      858.365
11/17/2013  05:23:00       10.340       56.265       -4.828        9.793       14.365        7.651       95.905      206.356       58.538        0.183        0.018       57.208        7.881        0.019      332.120        0.576      858.381
11/17/2013  05:24:00       14.338       27.309       -5.378       10.545       18.076        9.999      111.198      326.748       99.985        0.076        0.027       30.845       10.668        0.120      332.099        0.542      858.385
11/17/2013  05:25:00       40.422       31.920        2.156       21.656       15.064       12.528      468.961      226.926      156.947        0.175        0.043       51.505        9.344        0.033      332.140        0.610      858.380
11/17/2013  05:26:00       59.584       40.296        5.201       20.711       12.693       13.220      428.948      161.100      174.770        0.298        0.038       71.931        6.977        0.009      332.198        0.704      858.375
11/17/2013  05:27:00       70.490       45.390        9.355       17.230       16.616       14.801      296.858      276.090      219.066        0.395        0.040       83.840       10.959        0.017      332.157        0.638      858.366
11/17/2013  05:28:00       50.931       38.072        4.432       21.891       14.507       13.650      479.203      210.444      186.320        0.247        0.044       63.588        9.777        0.024      332.090        0.525      858.371
11/17/2013  05:29:00       32.077       23.035        4.438       21.884       11.017       10.292      478.909      121.373      105.915        0.114        0.035       39.491        7.909        0.040      332.046        0.454      858.368
11/17/2013  05:30:00       49.677       41.757        2.400       19.699       16.826       16.284      388.037      283.099      265.181        0.258        0.047       64.895       12.747        0.039      332.053        0.466      858.372
11/17/2013  05:31:00       62.284       48.351       -0.846       25.569       18.883       14.056      653.790      356.580      197.573        0.371        0.060       78.849       11.964        0.023      332.085        0.520      858.382
11/17/2013  05:32:00       66.795       36.881       -7.953       20.060       19.170       13.170      402.400      367.501      173.438        0.341        0.047       76.301        6.842        0.008      332.135        0.601      858.388
11/17/2013  05:33:00       20.660       14.376        3.008       14.868       15.058       11.803      221.044      226.748      139.310        0.061        0.029       25.170       11.945        0.225      332.084        0.519      858.406
11/17/2013  05:34:00       -0.059       46.378       -6.766        6.951       19.321        9.929       48.316      373.319       98.589        0.136        0.026       46.378       11.667        0.063      332.172        0.664      858.413
11/17/2013  05:35:00        8.057       78.692       -7.955        7.437       10.424        8.598       55.312      108.652       73.920        0.328        0.012       79.104        4.067        0.003      332.214        0.729      858.413
11/17/2013  05:36:00        7.407       85.852      -10.463        9.313       13.631        6.892       86.727      185.793       47.505        0.393        0.016       86.171        4.657        0.003      332.219        0.738      858.413
11/17/2013  05:37:00        6.889       99.838      -16.763        8.591       10.187        7.759       73.798      103.776       60.197        0.527        0.012      100.075        4.243        0.002      332.252        0.794      858.406
11/17/2013  05:38:00       14.488       89.457      -10.717       15.094       21.866       11.514      227.816      478.141      132.563        0.458        0.042       90.622        9.929        0.012      332.238        0.772      858.395
11/17/2013  05:39:00       19.333       16.946        0.126       22.897       12.285       14.089      524.252      150.932      198.504        0.077        0.044       25.709        9.984        0.151      332.132        0.595      858.387
11/17/2013  05:40:00       19.176       21.241       -2.792       19.623       13.034       11.939      385.049      169.897      142.546        0.076        0.035       28.616        9.025        0.099      332.217        0.736      858.389
11/17/2013  05:41:00       13.384       12.844       -1.426       12.833       11.472        8.192      164.683      131.597       67.105        0.035        0.018       18.550        8.278        0.199      332.243        0.779      858.382
11/17/2013  05:42:00        8.279       19.505        4.376       12.896       15.852        8.157      166.300      251.297       66.537        0.048        0.024       21.189        8.356        0.156      332.300        0.874      858.385
11/17/2013  05:43:00        4.716       14.980        1.209        9.657       11.636        6.694       93.258      135.395       44.808        0.026        0.014       15.705        6.469        0.170      332.266        0.816      858.394
11/17/2013  05:44:00       -3.242       36.203       -5.519        6.060        6.777        3.652       36.718       45.931       13.336        0.072        0.005       36.348        1.434        0.002      332.347        0.950      858.407
11/17/2013  05:45:00        3.207       27.407       -3.694        7.357       10.034        5.797       54.128      100.688       33.600        0.048        0.009       27.594        2.002        0.005      332.358        0.967      858.423
11/17/2013  05:46:00      -26.176        2.213       -6.794       17.339       16.567        6.625      300.652      274.464       43.894        0.068        0.031       26.269        6.507        0.061      332.333        0.925      858.443
11/17/2013  05:47:00      -59.798      -16.860       -4.425       11.588        9.738        6.936      134.288       94.828       48.112        0.208        0.014       62.130        3.326        0.003      332.142        0.611      858.461
11/17/2013  05:48:00      -63.438       -9.697       -8.914       13.941       11.232        7.101      194.345      126.151       50.424        0.228        0.019       64.174        5.479        0.007      332.118        0.573      858.473
11/17/2013  05:49:00      -55.264        4.244       -8.396       13.474       12.871        9.088      181.559      165.675       82.597        0.179        0.021       55.427        5.638        0.010      332.095        0.534      858.483
11/17/2013  05:50:00      -61.972       -7.559       -7.970       27.567        7.910       13.648      759.950       62.566      186.275        0.248        0.050       62.432       17.037        0.074      332.122        0.581      858.491
11/17/2013  05:51:00      -92.743       -7.929      -13.407       24.762       11.866       11.040      613.175      140.798      121.890        0.486        0.044       93.081       11.342        0.015      332.101        0.545      858.496
11/17/2013  05:52:00     -111.262       -7.359      -15.597       15.376       12.540        7.248      236.436      157.241       52.526        0.656        0.022      111.505        5.557        0.002      332.006        0.388      858.497
11/17/2013  05:53:00      -88.263      -10.762      -17.810       31.270       11.375        7.796      977.822      129.402       60.781        0.470        0.058       88.917        3.499        0.002      331.956        0.305      858.509
11/17/2013  05:54:00      -46.474       -1.750       -3.321       20.622       20.314        8.465      425.285      412.657       71.665        0.154        0.045       46.507        9.316        0.040      331.865        0.156      858.521
11/17/2013  05:55:00      -47.634        0.346       -3.744       22.304       20.969       11.077      497.482      439.680      122.690        0.167        0.053       47.635       12.432        0.068      331.950        0.294      858.540
11/17/2013  05:56:00      -38.482        2.581       -6.328       16.432       15.842       12.784      270.013      250.958      163.430        0.111        0.034       38.568        9.393        0.059      331.887        0.192      858.558
11/17/2013  05:57:00      -34.295       26.369      -16.150       18.072       22.621       16.232      326.613      511.713      263.493        0.162        0.055       43.261        9.261        0.046      331.895        0.207      858.575
11/17/2013  05:58:00      -43.951       29.607      -13.649       18.230       25.560       12.959      332.330      653.296      167.944        0.207        0.058       52.993       12.300        0.054      331.979        0.344      858.589
11/17/2013  05:59:00      -15.166       21.694       -3.352       12.259       15.412       11.406      150.286      237.522      130.087        0.061        0.026       26.470        9.614        0.132      332.158        0.638      858.597
11/17/2013  06:00:00      -13.367        8.545       -5.443        8.018        6.468        6.812       64.284       41.838       46.401        0.022        0.008       15.865        5.389        0.115      332.182        0.676      858.614
11/17/2013  06:01:00      -11.216        3.874       -3.934        9.470        5.984        5.115       89.689       35.805       26.168        0.015        0.008       11.867        3.592        0.092      332.143        0.615      858.627
11/17/2013  06:02:00        5.629       -5.221        3.578        5.789       10.364        4.548       33.509      107.406       20.687        0.012        0.008        7.677        2.454        0.102      332.193        0.696      858.637
11/17/2013  06:03:00        8.996      -13.584       -0.176        6.604        6.977        5.311       43.618       48.681       28.205        0.019        0.006       16.293        3.337        0.042      332.299        0.872      858.654
11/17/2013  06:04:00      -25.651      -26.674       -5.254       21.743        9.201        7.057      472.769       84.666       49.802        0.100        0.030       37.007        4.700        0.016      332.169        0.657      858.683
11/17/2013  06:05:00      -45.643      -21.250       -4.912       15.450       14.242        9.888      238.695      202.836       97.778        0.155        0.027       50.347        8.035        0.025      331.904        0.220      858.709
11/17/2013  06:06:00      -52.077       -6.742       -0.890        9.954        9.682        7.739       99.077       93.748       59.896        0.151        0.013       52.512        3.719        0.005      331.896        0.206      858.714
11/17/2013  06:07:00      -31.617      -19.955       -6.777       13.362       13.415        6.587      178.552      179.964       43.393        0.092        0.020       37.387        6.073        0.026      331.964        0.319      858.710
11/17/2013  06:08:00      -64.442       -8.148       -8.111       19.953       15.141        8.957      398.130      229.262       80.236        0.250        0.035       64.955        6.995        0.012      331.935        0.272      858.716
11/17/2013  06:09:00      -99.464      -28.621      -11.450       20.668       11.724       11.339      427.154      137.464      128.565        0.577        0.035      103.500        5.647        0.003      331.878        0.177      858.719
11/17/2013  06:10:00     -120.769      -17.299      -11.155       11.218       10.276        8.931      125.841      105.593       79.767        0.766        0.016      122.001        5.867        0.002      331.822        0.084      858.722
11/17/2013  06:11:00     -112.471      -25.422      -14.100        9.455        8.549        9.025       89.398       73.093       81.454        0.687        0.012      115.308        4.334        0.001      331.891        0.198      858.720
11/17/2013  06:12:00      -91.743      -15.103      -14.225       19.453       11.739       10.086      378.437      137.802      101.723        0.473        0.031       92.978        8.142        0.008      331.885        0.187      858.710
11/17/2013  06:13:00     -105.107       -6.058      -13.790       10.595        9.155        8.528      112.259       83.812       72.734        0.577        0.013      105.281        3.460        0.001      331.965        0.318      858.702
11/17/2013  06:14:00     -121.268      -13.026      -14.755       13.415       13.873       13.357      179.970      192.467      178.414        0.782        0.028      121.965        7.890        0.004      331.875        0.172      858.708
11/17/2013  06:15:00     -127.596      -22.330      -11.787       13.187       13.879       10.378      173.905      192.620      107.704        0.870        0.024      129.535        7.277        0.003      331.814        0.072      858.720
11/17/2013  06:16:00     -109.459      -26.890       -9.479       18.259       12.485        9.270      333.387      155.881       85.934        0.668        0.029      112.714        7.006        0.004      331.797        0.043      858.728
11/17/2013  06:17:00      -91.170      -14.035       -8.583       15.789       16.547        8.749      249.279      273.818       76.545        0.459        0.030       92.244        4.845        0.003      331.816        0.074      858.728
11/17/2013  06:18:00      -51.131        1.803        3.549       25.989       18.845       17.027      675.452      355.117      289.923        0.198        0.066       51.163       17.506        0.117      331.799        0.046      858.729
11/17/2013  06:19:00      -86.888      -11.969       -5.218       17.071       15.792        9.944      291.409      249.377       98.886        0.418        0.032       87.708        6.717        0.006      331.900        0.214      858.728
11/17/2013  06:20:00     -112.748      -18.181       -9.145       24.183       16.312       13.419      584.795      266.076      180.068        0.708        0.052      114.205       11.237        0.010      331.977        0.339      858.748
11/17/2013  06:21:00     -136.420      -32.128       -6.528       18.586       18.812       12.314      345.452      353.905      151.636        1.027        0.043      140.152       10.037        0.005      331.841        0.116      858.774
11/17/2013  06:22:00     -107.806      -16.290      -11.648       33.795       21.665       15.593     1142.083      469.361      243.156        0.694        0.093      109.030       13.421        0.015      331.706       -0.107      858.797
11/17/2013  06:23:00     -114.926      -16.668       -9.243       32.740       20.148       17.149     1071.923      405.945      294.077        0.767        0.089      116.128       14.828        0.016      331.681       -0.146      858.816
11/17/2013  06:24:00     -117.416       -8.341       -6.273       45.056       26.594       22.379     2030.065      707.218      500.840        0.857        0.162      117.712       24.387        0.043      331.684       -0.141      858.832
11/17/2013  06:25:00      -76.123      -32.013        1.212       43.175       31.730       16.213     1864.041     1006.819      262.846        0.498        0.157       82.581       16.254        0.039      331.675       -0.156      858.862
11/17/2013  06:26:00      -37.899      -14.539       -0.695       30.962       24.698       17.736      958.637      609.969      314.576        0.177        0.094       40.592       16.076        0.157      331.681       -0.146      858.883
11/17/2013  06:27:00      -90.469       20.853      -11.802       48.446       23.029       17.671     2347.002      530.329      312.270        0.597        0.159       92.842       11.565        0.016      331.771        0.002      858.888
11/17/2013  06:28:00     -135.257       14.066      -15.625       41.811       52.622       22.645     1748.191     2769.078      512.775        1.188        0.252      135.987       17.454        0.016      331.833        0.102      858.897
11/17/2013  06:29:00     -120.594       -5.608       -3.138       51.424       51.627       25.614     2644.377     2665.331      656.090        1.027        0.298      120.724       25.801        0.046      331.785        0.024      858.895
11/17/2013  06:30:00     -111.262       -6.512       -4.352       43.471       29.113       21.501     1889.734      847.553      462.296        0.782        0.160      111.452       17.796        0.025      331.660       -0.181      858.888
11/17/2013  06:31:00      -52.182      -38.575        1.802       33.556       29.323       20.754     1126.023      859.816      430.727        0.331        0.121       64.892       21.616        0.111      331.813        0.070      858.885
11/17/2013  06:32:00     -112.177      -54.669      -15.214       24.914       25.689       12.629      620.720      659.907      159.488        0.862        0.072      124.790       10.479        0.007      331.699       -0.116      858.891
11/17/2013  06:33:00      -92.204      -33.404       -6.922       19.233       31.022       16.190      369.906      962.371      262.130        0.563        0.080       98.069       11.108        0.013      331.704       -0.108      858.891
11/17/2013  06:34:00      -73.413        6.421      -14.669       31.169       23.411       22.976      971.504      548.072      527.877        0.385        0.102       73.693       20.400        0.077      331.644       -0.207      858.899
11/17/2013  06:35:00      -63.174       -0.084      -16.578       33.237       28.236       18.580     1104.682      797.283      345.227        0.326        0.112       63.174       13.388        0.045      331.655       -0.189      858.927
11/17/2013  06:36:00      -54.837        7.681      -11.083       29.787       26.089       18.596      887.255      680.655      345.823        0.255        0.096       55.372       17.490        0.100      331.725       -0.076      858.939
11/17/2013  06:37:00      -80.120      -18.949       -7.685       24.838       24.859       15.591      616.921      617.966      243.068        0.416        0.074       82.331       11.386        0.019      331.827        0.094      858.941
11/17/2013  06:38:00      -91.850      -43.233       -9.587       28.763       18.455       15.436      827.326      340.569      238.259        0.590        0.070      101.516        5.094        0.003      331.696       -0.122      858.953
11/17/2013  06:39:00      -96.526      -15.704      -12.004       39.427       16.820       19.486     1554.467      282.920      379.720        0.596        0.111       97.795       17.054        0.030      331.480       -0.480      858.971
11/17/2013  06:40:00       -7.900      -17.131        4.662       20.580       18.107       17.182      423.543      327.855      295.214        0.071        0.052       18.865       15.231        0.652      331.503       -0.442      858.977
11/17/2013  06:41:00      -20.708      -18.671        2.001       25.580       19.690       11.252      654.312      387.686      126.599        0.097        0.058       27.882       10.415        0.140      331.564       -0.340      858.988
11/17/2013  06:42:00      -56.318      -19.224       -0.926       40.399       39.605       23.089     1632.085     1568.590      533.123        0.364        0.187       59.509       20.902        0.123      331.600       -0.280      859.009
11/17/2013  06:43:00      -86.585       11.483       -6.023       40.080       35.617       20.945     1606.411     1268.538      438.713        0.549        0.166       87.344       12.217        0.020      331.683       -0.143      859.043
11/17/2013  06:44:00     -139.535       13.870      -16.101       34.288       31.877       20.293     1175.680     1016.132      411.814        1.126        0.130      140.222       17.136        0.015      331.701       -0.113      859.057
11/17/2013  06:45:00     -154.535      -11.761      -17.468       34.122       37.249       18.386     1164.314     1387.485      338.028        1.361        0.144      154.982       14.440        0.009      331.662       -0.179      859.062
11/17/2013  06:46:00     -120.458      -23.665      -12.823       36.432       44.024       21.765     1327.292     1938.155      473.700        0.949        0.187      122.760       19.893        0.026      331.569       -0.330      859.089
11/17/2013  06:47:00      -73.556       -8.759       -3.992       50.918       37.498       24.295     2592.663     1406.089      590.268        0.505        0.229       74.076       27.879        0.142      331.602       -0.277      859.107
11/17/2013  06:48:00      -83.876      -14.466       -8.834       34.778       43.633       28.714     1209.531     1903.817      824.471        0.563        0.197       85.114       20.757        0.059      331.702       -0.114      859.120
11/17/2013  06:49:00     -105.502       -0.465      -14.309       49.701       35.740       23.355     2470.206     1277.320      545.445        0.781        0.215      105.503       21.137        0.040      331.666       -0.170      859.133
11/17/2013  06:50:00     -127.205        7.903      -13.367       39.058       36.521       19.819     1525.506     1333.774      392.795        0.984        0.163      127.450       17.593        0.019      331.590       -0.297      859.128
11/17/2013  06:51:00      -92.690       19.063       -9.427       47.515       21.628       22.684     2257.634      467.779      514.576        0.614        0.162       94.630       12.574        0.018      331.624       -0.242      859.112
11/17/2013  06:52:00     -113.303      -16.788      -16.069       19.954       19.264       12.461      398.166      371.099      155.282        0.715        0.046      114.540        5.188        0.002      331.666       -0.172      859.100
11/17/2013  06:53:00     -116.727      -17.148       -9.673       22.474       24.284       19.735      505.061      589.726      389.480        0.775        0.074      117.979       16.530        0.020      331.594       -0.290      859.112
11/17/2013  06:54:00     -102.267      -10.562      -13.694       48.863       19.894       17.849     2387.569      395.781      318.601        0.693        0.155      102.811       24.071        0.055      331.549       -0.365      859.110
11/17/2013  06:55:00     -129.515        0.048      -17.144       33.139       25.990       19.235     1098.190      675.459      369.970        0.961        0.107      129.515       14.315        0.012      331.570       -0.330      859.112
11/17/2013  06:56:00      -93.443      -12.227      -12.978       27.738       25.936       19.056      769.384      672.660      363.128        0.543        0.090       94.240       17.178        0.033      331.599       -0.281      859.131
11/17/2013  06:57:00      -94.422      -10.955       -7.479       19.678       18.835       15.258      387.243      354.766      232.800        0.503        0.049       95.056        9.857        0.011      331.591       -0.296      859.143
11/17/2013  06:58:00      -85.244      -20.515      -13.030       21.327       22.085       14.280      454.846      487.749      203.918        0.450        0.057       87.677       11.088        0.016      331.577       -0.318      859.144
11/17/2013  06:59:00      -94.787      -10.173      -14.046       24.259       17.546       14.175      588.482      307.865      200.935        0.519        0.055       95.331       10.673        0.013      331.588       -0.301      859.162
11/17/2013  07:00:00      -71.206      -10.635       -5.864       27.247       20.014       13.462      742.374      400.573      181.213        0.327        0.066       71.996       12.967        0.032      331.665       -0.173      859.185
11/17/2013  07:01:00      -60.804       -4.777       -6.411       27.015       20.551       14.601      729.835      422.341      213.192        0.256        0.068       60.991       13.266        0.047      331.780        0.015      859.201
11/17/2013  07:02:00     -104.583        1.189      -10.574       33.930       23.391       19.349     1151.218      547.160      374.398        0.656        0.104      104.589       18.005        0.030      331.816        0.075      859.229
11/17/2013  07:03:00      -97.208       -2.919      -11.379       36.587       17.165       23.609     1338.643      294.624      557.386        0.589        0.110       97.252       20.845        0.046      331.808        0.063      859.250
11/17/2013  07:04:00     -106.508       -6.359      -11.309       29.402       25.158       17.125      864.480      632.916      293.262        0.665        0.090      106.698       15.935        0.022      331.848        0.127      859.286
11/17/2013  07:05:00      -63.590      -20.518       -8.567       23.397       20.927       17.452      547.398      437.954      304.576        0.291        0.064       66.818       13.721        0.042      331.921        0.248      859.319
11/17/2013  07:06:00      -59.813      -11.235       -5.572       18.723       15.675       10.382      350.539      245.719      107.783        0.222        0.035       60.859        6.729        0.012      331.954        0.304      859.329
11/17/2013  07:07:00      -56.314       -4.653       -7.701       10.173       14.700       10.601      103.498      216.094      112.384        0.184        0.022       56.506        7.984        0.020      332.010        0.396      859.328
11/17/2013  07:08:00      -92.340      -13.712      -14.495       15.489       10.633        9.235      239.899      113.058       85.279        0.468        0.022       93.353        7.412        0.006      332.027        0.423      859.329
11/17/2013  07:09:00      -85.983      -10.717       -8.980       22.843       19.479       14.138      521.823      379.444      199.880        0.434        0.055       86.648       10.395        0.014      332.035        0.437      859.351
11/17/2013  07:10:00     -112.030       -9.210       -9.005       24.279       19.794       13.582      589.460      391.799      184.468        0.694        0.058      112.408       13.971        0.015      332.000        0.378      859.372
11/17/2013  07:11:00      -41.793      -39.504        2.702       26.850       16.195       16.049      720.948      262.280      257.571        0.228        0.062       57.508       14.897        0.067      332.122        0.579      859.384
11/17/2013  07:12:00      -25.430      -40.009       -3.435       27.174       10.920       10.145      738.422      119.238      102.915        0.161        0.048       47.407       12.002        0.064      332.188        0.689      859.399
11/17/2013  07:13:00      -75.754      -21.423      -11.687       12.314        9.138        5.455      151.645       83.504       29.754        0.330        0.013       78.725        3.213        0.002      332.274        0.829      859.410
11/17/2013  07:14:00      -72.579      -32.453      -11.819        9.622        8.534        9.019       92.583       72.821       81.350        0.335        0.012       79.504        5.666        0.005      332.265        0.816      859.427
11/17/2013  07:15:00      -90.452      -51.754       -8.554       14.989       13.797        9.634      224.673      190.352       92.815        0.572        0.025      104.212        2.397        0.001      332.264        0.814      859.437
11/17/2013  07:16:00      -84.258      -38.823       -4.819       15.147       13.347       12.735      229.425      178.143      162.169        0.460        0.028       92.772        6.926        0.006      332.276        0.833      859.462
11/17/2013  07:17:00      -69.504      -56.867       -2.404       24.724       26.153       16.241      611.255      683.962      263.784        0.481        0.078       89.804       13.659        0.023      332.356        0.965      859.483
11/17/2013  07:18:00      -51.137      -29.748        5.449       33.901       20.468       14.377     1149.265      418.942      206.710        0.265        0.089       59.160       13.310        0.051      332.394        1.028      859.488
11/17/2013  07:19:00      -45.135      -43.963        3.589       22.461       28.794       16.040      504.476      829.110      257.274        0.279        0.080       63.008       14.301        0.052      332.503        1.208      859.515
11/17/2013  07:20:00      -55.080      -13.314       -3.902       23.284       17.118       11.827      542.139      293.028      139.876        0.210        0.049       56.666        5.480        0.009      332.495        1.194      859.521
11/17/2013  07:21:00     -102.265      -44.524       -5.710       49.698       40.888       18.296     2469.873     1671.789      334.735        0.847        0.224      111.537       10.073        0.008      332.382        1.008      859.558
11/17/2013  07:22:00      -71.411      -59.440        6.547       62.328       38.488       32.295     3884.826     1481.290     1042.966        0.754        0.320       92.912       23.114        0.062      332.282        0.842      859.591
11/17/2013  07:23:00      -82.309      -63.971       -3.575       39.902       36.249       28.650     1592.163     1313.976      820.819        0.730        0.186      104.245       20.981        0.041      332.274        0.830      859.632
11/17/2013  07:24:00      -84.647      -67.316        2.123       34.024       33.512       27.400     1157.644     1123.051      750.774        0.737        0.152      108.151       22.115        0.042      332.331        0.926      859.665
11/17/2013  07:25:00      -65.827      -48.254        7.912       28.855       25.952       15.882      832.640      673.526      252.234        0.424        0.088       81.619       15.755        0.037      332.404        1.043      859.682
11/17/2013  07:26:00      -33.021      -34.924        6.965       40.507       23.209       16.429     1640.820      538.640      269.908        0.240        0.122       48.064       16.327        0.115      332.538        1.265      859.719
11/17/2013  07:27:00       -6.908       -5.937        9.375       21.788       16.571       12.902      474.725      274.586      166.452        0.054        0.046        9.108       10.143        1.240      332.635        1.425      859.749
11/17/2013  07:28:00       -5.242      -10.301        5.831        8.699       14.915       11.078       75.678      222.449      122.714        0.029        0.021       11.558        8.845        0.586      332.743        1.603      859.775
11/17/2013  07:29:00      -38.771      -11.233        2.237       15.507       12.696       10.586      240.467      161.181      112.060        0.107        0.026       40.366       10.273        0.065      332.543        1.275      859.810
11/17/2013  07:30:00      -10.226       -5.661       -5.387        7.714       10.149        6.817       59.502      103.011       46.472        0.019        0.010       11.689        3.538        0.092      332.670        1.484      859.841
11/17/2013  07:31:00       -1.073        7.486        2.390        7.301       10.257        7.555       53.311      105.206       57.085        0.014        0.011        7.563        4.701        0.386      332.781        1.666      859.874
11/17/2013  07:32:00      -10.415       -2.757       -4.708        7.347        4.869        5.624       53.979       23.706       31.631        0.012        0.005       10.774        4.332        0.162      332.828        1.745      859.898
11/17/2013  07:33:00      -22.920      -22.003       -6.396        8.109       10.901        7.600       65.749      118.827       57.761        0.065        0.012       31.772        2.537        0.006      332.696        1.526      859.917
11/17/2013  07:34:00      -28.335      -16.495       -2.703       11.162        6.668        4.219      124.585       44.468       17.801        0.063        0.009       32.787        2.011        0.004      332.707        1.546      859.925
11/17/2013  07:35:00      -13.649        0.712        1.331       10.450        6.962        8.051      109.205       48.469       64.818        0.021        0.011       13.668        7.668        0.315      332.956        1.956      859.930
11/17/2013  07:36:00      -13.605       17.898        8.851       11.078        9.788       11.639      122.732       95.807      135.469        0.047        0.018       22.482        8.898        0.157      332.905        1.872      859.946
11/17/2013  07:37:00      -30.815       -6.403       -1.199       15.274        9.245        8.230      233.299       85.463       67.730        0.069        0.019       31.473        6.864        0.048      332.807        1.711      859.960
11/17/2013  07:38:00      -30.926        1.782       -3.940       12.343        5.950        6.018      152.343       35.407       36.211        0.060        0.011       30.978        3.456        0.012      332.801        1.700      859.979
11/17/2013  07:39:00      -14.602       -7.022        2.319       10.689       13.731       11.453      114.265      188.533      131.176        0.035        0.022       16.202        8.281        0.261      332.975        1.987      860.009
11/17/2013  07:40:00      -14.388        8.570       30.904       13.965       16.388       17.843      195.033      268.551      318.385        0.101        0.039       16.747       12.949        0.598      333.219        2.389      860.036
11/17/2013  07:41:00        4.507       25.158       54.514       26.999       27.157       23.362      728.923      737.492      545.789        0.282        0.101       25.559       18.880        0.546      333.309        2.539      860.062
11/17/2013  07:42:00       19.149       10.295       38.489       29.012       33.165       30.506      841.696     1099.908      930.613        0.241        0.144       21.740       26.112        1.443      333.281        2.491      860.090
11/17/2013  07:43:00        3.705       25.870       51.616       14.994       23.560       14.998      224.805      555.091      224.951        0.218        0.050       26.134       10.200        0.152      333.328        2.570      860.108
11/17/2013  07:44:00       20.578        3.278       30.052       25.476       27.801       27.038      649.006      772.920      731.079        0.174        0.108       20.837       18.848        0.818      333.324        2.565      860.137
11/17/2013  07:45:00       18.975       -7.885       32.696       24.006       32.017       23.694      576.293     1025.088      561.413        0.183        0.108       20.548       16.300        0.629      333.354        2.613      860.158
11/17/2013  07:46:00       23.828        5.582       33.638       23.576       31.233       22.318      555.838      975.526      498.089        0.188        0.101       24.473       11.291        0.213      333.304        2.531      860.190
11/17/2013  07:47:00       30.453       22.881       47.084       29.526       28.805       22.788      871.804      829.716      519.310        0.294        0.111       38.091       22.674        0.354      333.339        2.589      860.211
11/17/2013  07:48:00       84.683       28.844       15.083       34.805       31.154       26.499     1211.372      970.572      702.185        0.556        0.144       89.460       21.182        0.056      333.089        2.177      860.233
11/17/2013  07:49:00       82.575       55.717       24.329       40.821       25.960       27.224     1666.343      673.907      741.121        0.680        0.154       99.615       20.244        0.041      333.139        2.258      860.234
11/17/2013  07:50:00       85.904       62.622       25.707       31.539       24.948       26.564      994.687      622.421      705.639        0.714        0.116      106.307       13.345        0.016      333.080        2.160      860.238
11/17/2013  07:51:00       62.594       68.806       45.596       26.740       21.260       25.690      715.020      452.007      659.999        0.628        0.091       93.017       20.639        0.049      333.081        2.164      860.245
11/17/2013  07:52:00       62.504       66.177       42.248       37.805       27.923       32.402     1429.210      779.710     1049.865        0.666        0.163       91.028       28.682        0.099      333.142        2.265      860.264
11/17/2013  07:53:00       96.269       46.108       25.539       16.746       17.739       21.561      280.418      314.670      464.870        0.655        0.053      106.741       11.883        0.012      333.065        2.135      860.276
11/17/2013  07:54:00       82.765       50.839       17.335       34.748       23.664       24.201     1207.414      559.968      585.688        0.604        0.118       97.132       18.301        0.036      333.068        2.140      860.298
11/17/2013  07:55:00       54.564       50.295       -2.698       20.086       14.724       19.300      403.460      216.785      372.474        0.325        0.050       74.208        5.749        0.006      333.138        2.258      860.316
11/17/2013  07:56:00       11.293       37.948       33.512       29.304       30.672       29.455      858.733      940.797      867.577        0.268        0.133       39.592       22.846        0.333      333.420        2.722      860.318
11/17/2013  07:57:00       18.300       49.571       26.515       28.071       21.169       27.960      787.993      448.114      781.762        0.276        0.101       52.841       21.998        0.173      333.452        2.776      860.317
11/17/2013  07:58:00       62.990       58.096        0.373       29.237       25.667       30.691      854.825      658.802      941.946        0.490        0.123       85.690       17.575        0.042      333.304        2.530      860.335
11/17/2013  07:59:00       74.462       68.915        7.826       23.444       20.625       22.502      549.619      425.409      506.360        0.592        0.074      101.459       10.878        0.011      333.205        2.366      860.362
11/17/2013  08:00:00       94.182       73.315        5.655       17.918       24.113       15.366      321.060      581.426      236.109        0.771        0.057      119.354        9.440        0.006      333.144        2.266      860.374
11/17/2013  08:01:00       69.867       52.182       19.852       29.252       30.496       26.407      855.706      929.987      697.323        0.524        0.124       87.203       14.668        0.028      333.361        2.625      860.385
11/17/2013  08:02:00       72.356       64.400        1.178       32.142       26.063       17.625     1033.097      679.266      310.645        0.570        0.101       96.864       10.612        0.012      333.215        2.385      860.403
11/17/2013  08:03:00        2.477       30.785       33.668       24.907       31.067       25.814      620.363      965.128      666.373        0.217        0.113       30.885       16.208        0.275      333.658        3.117      860.433
11/17/2013  08:04:00       32.864       51.595       21.736       32.705       23.267       29.963     1069.620      541.372      897.754        0.336        0.125       61.172       22.752        0.138      333.581        2.990      860.462
11/17/2013  08:05:00       17.537        4.662       22.870       30.663       44.391       22.797      940.221     1970.533      519.696        0.214        0.172       18.147       11.628        0.411      333.613        3.043      860.462
11/17/2013  08:06:00       10.895       30.010       29.252       27.076       28.621       33.007      733.101      819.157     1089.485        0.226        0.132       31.926       22.623        0.502      333.717        3.215      860.458
11/17/2013  08:07:00       -2.450       36.262       53.294       16.855       31.232       24.010      284.081      975.459      576.482        0.300        0.092       36.344       22.150        0.371      333.801        3.355      860.474
11/17/2013  08:08:00       -0.980       56.512       64.011       24.813       31.598       20.845      615.706      998.456      434.512        0.467        0.102       56.521       14.398        0.065      333.634        3.077      860.497
11/17/2013  08:09:00        4.678       29.153       51.631       32.177       37.712       27.765     1035.360     1422.164      770.877        0.338        0.161       29.526       22.600        0.586      333.704        3.194      860.517
11/17/2013  08:10:00       12.933       49.932       68.730       36.056       47.559       31.664     1300.031     2261.889     1002.607        0.597        0.228       51.579       33.486        0.421      333.576        2.981      860.533
11/17/2013  08:11:00       42.626       52.179       50.298       29.231       25.081       23.759      854.446      629.037      564.490        0.456        0.102       67.377       17.355        0.066      333.520        2.888      860.544
11/17/2013  08:12:00       11.290       36.253       42.221       27.334       31.966       26.255      747.147     1021.855      689.338        0.284        0.123       37.971       21.271        0.314      333.668        3.132      860.563
11/17/2013  08:13:00        7.098       42.664       58.494       24.333       34.777       24.739      592.087     1209.408      612.012        0.385        0.121       43.250       13.656        0.100      333.777        3.315      860.576
11/17/2013  08:14:00       26.341       87.932       91.986       44.533       46.501       31.541     1983.203     2162.344      994.865        1.101        0.257       91.792       22.650        0.061      333.603        3.025      860.581
11/17/2013  08:15:00       71.816       61.625       59.516       43.730       40.402       36.401     1912.291     1632.286     1325.015        0.868        0.243       94.632       31.604        0.112      333.443        2.761      860.579
11/17/2013  08:16:00      108.843       66.124       33.912       37.193       26.472       40.584     1383.342      700.757     1647.036        1.055        0.187      127.355       24.456        0.037      333.419        2.722      860.577
11/17/2013  08:17:00       38.355       53.490       62.985       46.387       35.033       21.967     2151.716     1227.333      482.546        0.608        0.193       65.820       15.622        0.056      333.553        2.943      860.576
11/17/2013  08:18:00       31.790       68.939       72.742       44.578       43.705       33.782     1987.175     1910.138     1141.211        0.805        0.252       75.916       31.209        0.169      333.679        3.151      860.565
11/17/2013  08:19:00       73.695       65.481       33.769       39.822       33.096       32.885     1585.795     1095.361     1081.408        0.731        0.188       98.584       22.821        0.054      333.476        2.815      860.564
11/17/2013  08:20:00       15.123       14.476       50.544       30.414       37.420       30.552      924.999     1400.271      933.415        0.313        0.163       20.934       25.945        1.536      333.924        3.557      860.573
11/17/2013  08:21:00       31.285       31.593       51.261       40.176       31.597       29.053     1614.131      998.397      844.097        0.403        0.173       44.462       22.525        0.257      333.841        3.421      860.590
11/17/2013  08:22:00        7.553       -3.561       40.356       23.810       56.582       35.469      566.932     3201.556     1258.048        0.336        0.251        8.350       26.606       10.152      333.947        3.596      860.593
11/17/2013  08:23:00       13.112       85.854      105.331       45.552       46.401       25.753     2074.943     2153.047      663.240        1.176        0.245       86.850       26.922        0.096      333.721        3.221      860.567
11/17/2013  08:24:00       35.732       64.068       56.990       30.293       25.767       24.853      917.643      663.916      617.648        0.541        0.110       73.359       18.592        0.064      333.656        3.112      860.531
11/17/2013  08:25:00       53.906       77.824       65.362       44.020       35.257       33.140     1937.717     1243.027     1098.251        0.876        0.214       94.670       28.602        0.091      333.720        3.220      860.487
11/17/2013  08:26:00       35.797       65.738       67.282       36.810       38.102       23.531     1354.968     1451.739      553.716        0.674        0.168       74.853       19.687        0.069      333.824        3.393      860.468
11/17/2013  08:27:00       29.512       62.933       72.735       35.736       45.961       25.700     1277.054     2112.384      660.476        0.709        0.202       69.509       21.318        0.094      333.882        3.489      860.467
11/17/2013  08:28:00       39.058        2.810       37.310       50.889       41.858       35.572     2589.740     1752.051     1265.370        0.427        0.280       39.159       38.678        0.976      334.017        3.713      860.503
11/17/2013  08:29:00       32.080      -23.498       15.799       41.226       52.084       41.454     1699.553     2712.726     1718.463        0.398        0.307       39.765       27.648        0.483      334.087        3.828      860.533
11/17/2013  08:30:00       46.693      -27.432       16.655       41.730       46.574       38.329     1741.409     2169.093     1469.089        0.429        0.269       54.155       24.053        0.197      334.155        3.942      860.546
11/17/2013  08:31:00       25.280       52.844       73.749       43.687       40.670       32.503     1908.521     1654.045     1056.447        0.674        0.231       58.579       22.368        0.146      334.067        3.795      860.550
11/17/2013  08:32:00       43.084       -2.914       49.672       48.412       78.632       48.584     2343.690     6183.051     2360.366        0.761        0.544       43.182       55.350        1.643      334.199        4.014      860.546
11/17/2013  08:33:00       12.253       44.462       63.862       24.116       44.700       41.296      581.602     1998.118     1705.365        0.524        0.214       46.119       33.568        0.530      334.318        4.211      860.555
11/17/2013  08:34:00       15.664       16.682       44.241       32.954       55.703       46.406     1085.958     3102.780     2153.478        0.441        0.317       22.883       48.433        4.480      334.313        4.203      860.564
11/17/2013  08:35:00       71.850       37.333       37.329       39.597       56.143       30.196     1567.938     3152.023      911.791        0.679        0.282       80.971       35.545        0.193      333.967        3.630      860.556
11/17/2013  08:36:00       61.182       45.937       59.575       56.437       38.748       33.025     3185.119     1501.406     1090.628        0.759        0.289       76.508       32.522        0.181      334.073        3.805      860.553
11/17/2013  08:37:00       64.931       45.907       35.338       38.479       32.203       29.802     1480.610     1037.007      888.149        0.549        0.170       79.520       14.668        0.034      334.051        3.769      860.556
11/17/2013  08:38:00       12.938       -7.671       32.597       28.221       30.522       29.035      796.422      931.601      843.026        0.193        0.129       15.041       25.333        2.837      334.385        4.321      860.562
11/17/2013  08:39:00        9.491      -13.063       18.856       22.252       29.782       26.303      495.141      886.973      691.861        0.134        0.104       16.147       14.949        0.857      334.460        4.448      860.560
11/17/2013  08:40:00       18.857       36.445       43.819       24.407       37.623       31.146      595.704     1415.493      970.077        0.329        0.149       41.035       22.546        0.302      334.411        4.366      860.547
11/17/2013  08:41:00        8.631       25.370       64.040       22.736       32.548       19.858      516.917     1059.367      394.334        0.339        0.099       26.798       19.748        0.543      334.494        4.505      860.536
11/17/2013  08:42:00        0.235        4.621       50.133       23.120       33.425       19.789      534.529     1117.229      391.586        0.229        0.102        4.627       22.353       23.341      334.612        4.700      860.551
11/17/2013  08:43:00       -9.241       -0.362       31.408       10.361       37.897       17.107      107.345     1436.205      292.633        0.145        0.092        9.248        7.479        0.654      334.495        4.506      860.565
11/17/2013  08:44:00      -67.402      -32.999       -1.238       35.818       28.828       12.183     1282.914      831.076      148.423        0.395        0.113       75.047       13.663        0.033      334.108        3.863      860.555
11/17/2013  08:45:00      -21.329      -17.533        5.095       22.052       20.485       15.017      486.308      419.654      225.513        0.096        0.057       27.610       14.101        0.261      334.398        4.344      860.539
11/17/2013  08:46:00      -35.057       -1.888       -5.596        8.321       13.264        5.949       69.239      175.942       35.394        0.077        0.014       35.107        3.874        0.012      334.101        3.851      860.532
11/17/2013  08:47:00      -18.932       -3.924       -7.277       14.768       11.650       12.229      218.087      135.725      149.544        0.046        0.025       19.335        5.257        0.074      334.358        4.278      860.540
11/17/2013  08:48:00      -44.382        2.719        2.660       21.604       22.939       15.977      466.714      526.186      255.257        0.162        0.062       44.465       13.116        0.087      334.273        4.136      860.561
11/17/2013  08:49:00      -35.932      -27.391        1.687       27.745       29.221       18.233      769.795      853.882      332.450        0.200        0.098       45.182       14.405        0.102      334.318        4.213      860.576
11/17/2013  08:50:00      -81.777      -90.065        0.827       41.217       26.422       25.910     1698.820      698.146      671.323        0.893        0.153      121.652       24.282        0.040      334.204        4.023      860.606
11/17/2013  08:51:00      -66.741      -82.403      -12.796       21.603       30.402       11.978      466.696      924.287      143.480        0.647        0.077      106.040       13.046        0.015      334.115        3.875      860.626
11/17/2013  08:52:00      -28.548       -9.572        2.998       22.918       12.601       15.204      525.213      158.788      231.149        0.092        0.046       30.110       16.086        0.285      334.490        4.497      860.636
11/17/2013  08:53:00      -24.366        8.084        1.879       22.692       19.325       17.823      514.915      373.465      317.652        0.093        0.060       25.672       18.213        0.503      334.609        4.695      860.639
11/17/2013  08:54:00      -38.970       -9.272        9.679       29.396       24.884       18.540      864.133      619.200      343.748        0.176        0.091       40.058       18.053        0.203      334.587        4.657      860.643
11/17/2013  08:55:00      -49.630      -26.715        3.420       27.952       23.759       13.807      781.300      564.481      190.646        0.236        0.077       56.363       13.815        0.060      334.466        4.458      860.636
11/17/2013  08:56:00      -72.448      -70.623        1.457       36.849       39.594       20.420     1357.884     1567.695      416.969        0.679        0.167      101.174       21.386        0.045      334.454        4.438      860.649
11/17/2013  08:57:00      -40.069      -56.462       -6.751       17.213       27.354        9.599      296.293      748.253       92.133        0.299        0.057       69.235        6.183        0.008      334.376        4.310      860.661
11/17/2013  08:58:00      -45.173      -29.867       -8.928       15.173       21.960       13.177      230.209      482.259      173.629        0.195        0.044       54.154        7.497        0.019      334.451        4.434      860.676
11/17/2013  08:59:00      -49.423      -12.945       -4.063       16.703       11.909        9.160      278.988      141.820       83.907        0.157        0.025       51.090        1.753        0.001      334.498        4.511      860.690
11/17/2013  09:00:00      -27.177      -15.280       -1.582       18.129       13.323        6.565      328.644      177.495       43.104        0.076        0.027       31.177        7.289        0.055      334.638        4.742      860.705
11/17/2013  09:01:00      -45.755      -34.534       -6.208       23.400       38.719       15.612      547.562     1499.183      243.720        0.281        0.115       57.324       12.364        0.047      334.599        4.678      860.714
11/17/2013  09:02:00      -15.430      -27.500       -5.274       18.454       27.848       13.148      340.540      775.536      172.879        0.116        0.064       31.533       10.284        0.106      334.740        4.913      860.722
11/17/2013  09:03:00      -18.488      -24.682       10.556       13.711       26.407       12.716      187.985      697.304      161.700        0.105        0.052       30.838        6.980        0.051      335.001        5.347      860.735
11/17/2013  09:04:00      -18.580      -52.323       -2.166       23.692       32.269       24.007      561.310     1041.269      576.330        0.263        0.109       55.524       18.912        0.116      334.975        5.303      860.752
11/17/2013  09:05:00      -48.347      -43.269       16.083       23.453       27.027       19.392      550.045      730.459      376.060        0.306        0.083       64.882       11.376        0.031      335.044        5.418      860.756
11/17/2013  09:06:00      -24.035      -45.265       -0.928       24.419       24.278       16.610      596.308      589.419      275.895        0.204        0.073       51.250       10.616        0.043      334.937        5.239      860.749
11/17/2013  09:07:00      -18.307      -62.972       -1.962       27.294       25.322       17.522      744.968      641.188      307.036        0.300        0.085       65.579       12.762        0.038      334.780        4.979      860.741
11/17/2013  09:08:00      -22.320      -40.846        7.625       60.792       49.840       29.946     3695.617     2483.986      896.748        0.465        0.354       46.546       27.586        0.351      334.964        5.285      860.741
11/17/2013  09:09:00     -103.857      -71.935       -7.119       27.077       37.123       22.154      733.187     1378.130      490.817        0.931        0.130      126.337       12.565        0.010      334.737        4.908      860.751
11/17/2013  09:10:00      -37.494      -66.199       -2.160       27.388       20.273       18.807      750.110      411.007      353.693        0.365        0.076       76.079       14.106        0.034      334.793        4.999      860.767
11/17/2013  09:11:00      -45.616      -48.363       -1.474       33.992       31.033       18.969     1155.467      963.058      359.808        0.345        0.124       66.482       18.490        0.077      334.914        5.200      860.783
11/17/2013  09:12:00      -59.744      -13.481       -2.720       26.354       19.371       12.697      694.554      375.233      161.217        0.249        0.062       61.246        7.288        0.014      334.870        5.128      860.776
11/17/2013  09:13:00      -68.256       28.036       -9.164       17.169       18.755       11.569      294.787      351.737      133.832        0.315        0.039       73.789        5.939        0.006      334.845        5.088      860.767
11/17/2013  09:14:00      -53.437       38.728      -15.062        9.985       14.432       12.090       99.692      208.286      146.166        0.252        0.023       65.995        1.534        0.001      334.924        5.219      860.765
11/17/2013  09:15:00        1.764       32.047       -6.431       40.097       22.450       21.600     1607.737      503.982      466.559        0.182        0.129       32.095       19.536        0.370      334.956        5.272      860.773
11/17/2013  09:16:00      -82.147      -10.332      -11.379       34.909       25.032       21.695     1218.670      626.598      470.694        0.465        0.116       82.794       21.647        0.068      335.049        5.424      860.790
11/17/2013  09:17:00      -19.312      -25.645      -11.008       16.572       17.137        6.839      274.623      293.690       46.769        0.088        0.031       32.103        7.773        0.059      335.057        5.437      860.798
11/17/2013  09:18:00      -39.397      -64.899       -7.929       41.480       34.644       17.973     1720.622     1200.199      323.042        0.453        0.162       75.921       17.202        0.051      335.075        5.469      860.793
11/17/2013  09:19:00      -64.658      -60.245        9.940       60.290       35.267       26.026     3634.921     1243.739      677.364        0.673        0.278       88.375       26.529        0.090      335.266        5.786      860.785
11/17/2013  09:20:00     -125.686      -44.698      -14.320       71.769       29.277       23.674     5150.821      857.132      560.440        1.228        0.328      133.397       32.477        0.059      335.141        5.578      860.780
11/17/2013  09:21:00      -87.133      -32.880      -15.490       22.339       23.684        9.481      499.011      560.933       89.890        0.503        0.057       93.130        8.053        0.007      335.080        5.477      860.787
11/17/2013  09:22:00      -80.003      -26.688      -16.296       38.129       21.059       15.975     1453.803      443.468      255.192        0.476        0.108       84.337       18.104        0.046      335.193        5.665      860.785
11/17/2013  09:23:00      -47.220      -35.401        8.459       58.546       30.023       32.160     3427.591      901.391     1034.293        0.446        0.268       59.016       37.311        0.400      335.375        5.965      860.779
11/17/2013  09:24:00      -74.101      -41.088       -8.824       24.561       26.827       20.358      603.262      719.703      414.439        0.450        0.087       84.730       15.710        0.034      335.284        5.814      860.773
11/17/2013  09:25:00      -29.693      -24.494       -5.771       12.123       23.129       11.260      146.961      534.934      126.789        0.116        0.040       38.492       11.455        0.089      335.302        5.845      860.762
11/17/2013  09:26:00      -85.587      -45.505       -1.168       38.482       23.695       16.194     1480.891      561.431      262.230        0.585        0.115       96.932       11.382        0.014      335.289        5.823      860.779
11/17/2013  09:27:00      -81.939       34.496       -7.247       19.467       20.673       16.763      378.960      427.386      281.002        0.452        0.054       88.904        9.658        0.012      335.367        5.952      860.789
11/17/2013  09:28:00      -24.537       33.344       -7.660       25.850       19.069       15.751      668.218      363.615      248.079        0.153        0.064       41.399       15.827        0.146      335.737        6.571      860.800
11/17/2013  09:29:00      -33.026      -27.512       -2.612       45.064       26.878       26.146     2030.734      722.419      683.612        0.264        0.172       42.983       23.651        0.303      335.714        6.531      860.800
11/17/2013  09:30:00      -61.963      -12.175        5.155       44.189       30.219       28.140     1952.653      913.211      791.842        0.384        0.183       63.147       21.765        0.119      335.722        6.545      860.792
11/17/2013  09:31:00      -36.691      -65.394       -6.957       48.859       32.345       20.720     2387.200     1046.217      429.331        0.477        0.193       74.984       14.846        0.039      335.577        6.303      860.792
11/17/2013  09:32:00      -58.971      -79.778       -6.164       20.153       48.913       11.894      406.144     2392.515      141.476        0.641        0.147       99.207        8.840        0.008      335.510        6.192      860.791
11/17/2013  09:33:00      -38.023      -25.958      -13.778       14.298       11.757       14.433      204.439      138.220      208.315        0.143        0.028       46.038        8.268        0.032      335.600        6.341      860.786
11/17/2013  09:34:00      -24.146      -19.146       -0.011       14.896       17.355       11.181      221.881      301.189      125.010        0.080        0.032       30.815        6.763        0.048      335.825        6.716      860.789
11/17/2013  09:35:00      -68.036      -89.295       -3.869       26.531       19.855       20.893      703.886      394.202      436.510        0.708        0.077      112.261        8.440        0.006      335.547        6.252      860.803
11/17/2013  09:36:00      -32.728     -121.431       -8.239       36.420       47.263       28.408     1326.445     2233.754      807.010        1.012        0.218      125.764       17.517        0.019      335.760        6.608      860.814
11/17/2013  09:37:00      -37.599      -64.370        5.382       41.518       42.580       27.700     1723.722     1813.088      767.295        0.494        0.215       74.546       19.458        0.068      335.741        6.578      860.828
11/17/2013  09:38:00      -76.320      -39.598       -2.130       39.797       29.043       20.195     1583.825      843.505      407.849        0.512        0.142       85.981       10.139        0.014      335.744        6.581      860.825
11/17/2013  09:39:00      -70.216      -48.420       -4.039       24.209       29.443       17.526      586.099      866.898      307.148        0.453        0.088       85.293        9.743        0.013      335.768        6.623      860.820
11/17/2013  09:40:00      -59.764      -19.180       -2.973       26.724       24.722       14.969      714.165      611.198      224.058        0.275        0.077       62.766       12.727        0.041      335.839        6.740      860.810
11/17/2013  09:41:00      -79.576       -8.720       12.916       49.499       50.212       28.578     2450.168     2521.225      816.721        0.618        0.289       80.052       29.075        0.132      336.028        7.056      860.821
11/17/2013  09:42:00      -26.908       29.930        4.940       33.580       20.960       22.423     1127.597      439.306      502.772        0.186        0.103       40.247       16.852        0.175      336.395        7.668      860.833
11/17/2013  09:43:00      -12.491       14.072       39.204       10.560       18.059       15.915      111.522      326.115      253.289        0.129        0.035       18.817        9.984        0.282      336.818        8.376      860.847
11/17/2013  09:44:00      -31.887       33.624       40.676       29.592       31.593       32.959      875.715      998.148     1086.272        0.338        0.148       46.340       23.925        0.267      336.607        8.024      860.873
11/17/2013  09:45:00      -56.652      -20.884       -4.366       34.965       44.480       34.947     1222.576     1978.456     1221.270        0.404        0.221       60.378       26.579        0.194      336.194        7.331      860.901
11/17/2013  09:46:00      -12.395      -12.092       25.220       27.538       56.761       34.940      758.336     3221.786     1220.770        0.307        0.260       17.317       38.238        4.876      336.368        7.624      860.922
11/17/2013  09:47:00      -32.410      -31.399      -14.628       35.769       29.753       28.933     1279.392      885.266      837.115        0.263        0.150       45.125       26.186        0.337      336.253        7.430      860.936
11/17/2013  09:48:00      -30.821      -15.400      -11.935       43.763       71.567       35.454     1915.219     5121.810     1256.969        0.481        0.415       34.454       32.210        0.874      336.345        7.585      860.944
11/17/2013  09:49:00      -72.622      -30.872       -9.937       25.578       39.710       18.969      654.253     1576.873      359.836        0.446        0.130       78.912       15.447        0.038      336.047        7.087      860.962
11/17/2013  09:50:00      -40.258       42.847       35.265       27.842       19.600       25.560      775.155      384.149      653.312        0.326        0.091       58.792       12.366        0.044      336.401        7.679      860.982
11/17/2013  09:51:00        2.863       20.247       72.739       36.148       33.530       30.782     1306.646     1124.283      947.517        0.454        0.169       20.449       18.714        0.838      336.810        8.360      860.981
11/17/2013  09:52:00        0.048       47.087       67.271       23.780       33.317       27.054      565.497     1110.038      731.917        0.457        0.120       47.087       24.624        0.273      336.558        7.941      860.982
11/17/2013  09:53:00       36.291       61.589       49.247       38.980       44.817       36.995     1519.420     2008.564     1368.595        0.622        0.245       71.486       33.418        0.219      336.508        7.858      860.982
11/17/2013  09:54:00       10.012       49.541       67.801       29.212       51.066       33.678      853.366     2607.701     1134.238        0.587        0.230       50.543       35.568        0.495      336.858        8.442      860.990
11/17/2013  09:55:00       12.974       34.399       38.233       25.908       38.692       34.548      671.228     1497.103     1193.544        0.309        0.168       36.765       28.827        0.615      336.620        8.045      861.004
11/17/2013  09:56:00      -33.818      -20.389       -0.237       24.572       20.249       11.295      603.786      410.035      127.581        0.135        0.057       39.489        7.722        0.038      336.486        7.820      861.010
11/17/2013  09:57:00      -22.448        0.549        8.189       15.215       12.220       15.889      231.498      149.318      252.474        0.060        0.032       22.454        8.954        0.159      336.895        8.504      861.011
11/17/2013  09:58:00      -57.057       -5.373       -0.404       26.299       32.935       19.349      691.659     1084.739      374.384        0.272        0.108       57.310       20.798        0.132      336.511        7.861      861.015
11/17/2013  09:59:00      -45.242      -25.835        2.220       34.025       38.034       24.364     1157.707     1446.609      593.617        0.296        0.160       52.098       22.314        0.183      336.523        7.882      861.033
11/17/2013  10:00:00      -22.109       14.008       -3.385       23.065       19.212       20.954      531.982      369.116      439.079        0.102        0.067       26.173       13.410        0.263      336.688        8.158      861.045
11/17/2013  10:01:00      -29.429        0.327       19.455       29.799       36.058       35.124      887.987     1300.210     1233.717        0.233        0.171       29.431       29.480        1.003      336.761        8.280      861.048
11/17/2013  10:02:00      -37.672       15.119       15.868       29.166       29.605       33.270      850.656      876.427     1106.909        0.237        0.142       40.593       22.856        0.317      336.811        8.364      861.048
11/17/2013  10:03:00       29.747        9.373       53.885       45.463       78.560       51.491     2066.875     6171.699     2651.326        0.738        0.544       31.189       61.084        3.836      337.025        8.721      861.046
11/17/2013  10:04:00       27.181      -53.936       22.213       37.505       80.375       43.668     1406.632     6460.142     1906.925        0.696        0.489       60.398       54.661        0.819      336.598        8.009      861.052
11/17/2013  10:05:00       50.789       47.750       55.200       53.124       55.934       33.420     2822.191     3128.663     1116.872        0.749        0.353       69.710       32.048        0.211      336.826        8.389      861.053
11/17/2013  10:06:00       46.858       92.440       92.730       49.549       43.635       43.640     2455.114     1903.988     1904.452        1.280        0.313      103.638       38.412        0.137      336.521        7.879      861.059
11/17/2013  10:07:00       72.130       66.084       63.641       48.527       41.924       41.377     2354.869     1757.586     1712.054        0.972        0.291       97.826       30.620        0.098      336.575        7.969      861.074
11/17/2013  10:08:00      118.863      107.007       54.904       52.098       37.412       43.360     2714.213     1399.673     1880.070        1.729        0.300      159.934       35.484        0.049      336.393        7.664      861.071
11/17/2013  10:09:00       90.605       82.579       38.704       39.289       24.770       30.951     1543.603      613.556      957.969        0.982        0.156      122.591       27.546        0.050      336.335        7.568      861.080
11/17/2013  10:10:00       64.542       42.646       26.386       39.889       40.482       41.189     1591.166     1638.827     1696.554        0.580        0.246       77.359       31.672        0.168      336.457        7.772      861.092
11/17/2013  10:11:00       11.140       -3.134       14.738       21.760       23.759       21.861      473.499      564.490      477.905        0.093        0.076       11.573       19.265        2.771      336.942        8.583      861.093
11/17/2013  10:12:00        1.864      -21.752       35.814       27.403       42.822       33.557      750.945     1833.714     1126.054        0.273        0.186       21.832       14.032        0.413      337.286        9.157      861.099
11/17/2013  10:13:00       44.181      -11.472       63.442       43.514       94.718       55.645     1893.481     8971.544     3096.365        1.003        0.698       45.647       62.070        1.849      337.067        8.791      861.103
11/17/2013  10:14:00       43.856       57.419       85.938       41.945       33.443       20.922     1759.405     1118.439      437.721        0.796        0.166       72.251       23.025        0.102      336.783        8.317      861.101
11/17/2013  10:15:00       92.759       76.074       35.455       26.972       21.711       39.986      727.512      471.366     1598.900        0.922        0.140      119.964       17.411        0.021      336.410        7.694      861.109
11/17/2013  10:16:00       28.353       74.328       81.344       35.717       31.452       33.331     1275.736      989.256     1110.924        0.816        0.169       79.552       26.085        0.108      336.838        8.408      861.098
11/17/2013  10:17:00       29.099       75.561       69.743       34.440       37.848       28.919     1186.141     1432.465      836.315        0.744        0.173       80.971       21.791        0.072      336.737        8.240      861.104
11/17/2013  10:18:00        7.488       33.770       56.995       22.561       49.357       19.666      508.992     2436.068      386.769        0.389        0.167       34.590       19.906        0.331      337.117        8.873      861.119
11/17/2013  10:19:00       14.841       76.396       80.234       25.478       37.111       21.828      649.125     1377.239      476.482        0.750        0.125       77.824       19.073        0.060      336.921        8.547      861.130
11/17/2013  10:20:00       24.775       18.165       65.043       52.698       80.319       41.296     2777.045     6451.179     1705.365        0.805        0.547       30.721       56.387        3.369      337.156        8.940      861.132
11/17/2013  10:21:00       30.518       55.178       73.996       38.003       34.833       22.672     1444.202     1213.333      514.028        0.631        0.159       63.055       19.713        0.098      337.232        9.068      861.110
11/17/2013  10:22:00        8.950       51.899       78.578       22.971       34.097       18.359      527.646     1162.610      337.045        0.549        0.101       52.665       17.889        0.115      337.159        8.946      861.091
11/17/2013  10:23:00      108.441       68.916        4.829       60.964       39.485       43.925     3716.630     1559.028     1929.417        1.187        0.360      128.487       30.859        0.058      336.826        8.389      861.077
11/17/2013  10:24:00       76.822       61.663       17.777       42.533       30.580       30.638     1809.047      935.116      938.657        0.685        0.184       98.509       20.768        0.044      336.848        8.425      861.085
11/17/2013  10:25:00       64.607       39.820       -1.772       28.790       26.492       21.297      828.872      701.816      453.560        0.387        0.099       75.893        9.752        0.017      336.734        8.235      861.093
11/17/2013  10:26:00       40.049       69.840       50.460       59.470       47.719       55.934     3536.685     2277.104     3128.631        0.898        0.447       80.508       44.936        0.312      337.110        8.865      861.091
11/17/2013  10:27:00      127.316       92.883       -0.197       59.339       36.332       41.894     3521.143     1320.031     1755.103        1.572        0.330      157.596       21.666        0.019      336.682        8.148      861.080
11/17/2013  10:28:00       37.750       70.347       49.143       41.067       45.585       50.247     1686.531     2078.024     2524.763        0.754        0.314       79.836       30.590        0.147      337.232        9.068      861.075
11/17/2013  10:29:00       80.653       67.405       21.050       37.403       32.765       32.871     1398.949     1073.528     1080.477        0.752        0.178      105.111       16.137        0.024      336.789        8.327      861.070
11/17/2013  10:30:00       97.199       74.142       31.522       40.061       45.103       26.715     1604.868     2034.264      713.711        1.014        0.218      122.248       15.528        0.016      337.001        8.680      861.061
11/17/2013  10:31:00       94.790       70.055       10.231       42.522       36.007       30.671     1808.134     1296.501      940.719        0.902        0.202      117.868       12.379        0.011      336.881        8.481      861.044
11/17/2013  10:32:00       96.932       55.981       14.151       47.418       45.705       30.503     2248.425     2088.950      930.460        0.900        0.263      111.936       21.265        0.036      337.085        8.821      861.044
11/17/2013  10:33:00       37.666       40.372       18.079       50.719       35.094       35.348     2572.392     1231.606     1249.491        0.421        0.253       55.214       29.303        0.282      337.299        9.179      861.039
11/17/2013  10:34:00       65.892       14.328        5.925       40.058       47.333       32.516     1604.679     2240.397     1057.313        0.474        0.245       67.432       20.200        0.090      337.315        9.206      861.044
11/17/2013  10:35:00       91.994       75.655       33.119       53.562       47.283       45.329     2868.888     2235.659     2054.695        1.122        0.358      119.107       19.005        0.025      337.219        9.046      861.041
11/17/2013  10:36:00       29.113       64.875       35.011       44.267       51.167       36.044     1959.527     2618.068     1299.148        0.608        0.294       71.107       30.025        0.178      337.649        9.766      861.043
11/17/2013  10:37:00       59.763       45.432       25.885       56.325       44.759       36.439     3172.539     2003.379     1327.791        0.640        0.325       75.071       25.899        0.119      337.603        9.690      861.044
11/17/2013  10:38:00       77.526       83.060       23.539       49.106       34.978       33.458     2411.427     1223.493     1119.405        0.911        0.238      113.619       30.162        0.070      337.358        9.278      861.053
11/17/2013  10:39:00      -10.993       37.221       79.515       19.173       42.750       29.360      367.607     1827.594      862.012        0.544        0.153       38.810       29.126        0.563      337.842       10.090      861.048
11/17/2013  10:40:00       76.980       68.370       31.595       39.326       49.572       45.430     1546.512     2457.393     2063.910        0.883        0.303      102.958       15.075        0.021      337.232        9.067      861.046
11/17/2013  10:41:00      103.885       80.395       -6.222       35.713       36.785       25.745     1275.428     1353.158      662.789        1.029        0.165      131.360       13.899        0.011      337.237        9.076      861.027
11/17/2013  10:42:00       65.270       52.438        2.333       55.259       39.681       37.443     3053.542     1574.613     1401.975        0.652        0.302       83.725       23.213        0.077      337.436        9.409      861.029
11/17/2013  10:43:00       72.520       88.732       76.317       61.639       34.730       39.845     3799.330     1206.189     1587.586        1.277        0.330      114.597       40.639        0.126      337.381        9.315      861.028
11/17/2013  10:44:00       58.119       60.088       85.040       41.733       40.656       30.131     1741.657     1652.915      907.905        0.926        0.215       83.597       18.245        0.048      337.170        8.962      861.038
11/17/2013  10:45:00       80.169       73.298       48.798       25.793       25.610       30.692      665.267      655.852      941.972        0.822        0.113      108.626       17.593        0.026      337.032        8.732      861.041
11/17/2013  10:46:00       51.656       47.926       24.237       46.185       43.661       48.272     2133.071     1906.317     2330.212        0.596        0.318       70.464       37.666        0.286      337.268        9.127      861.048
11/17/2013  10:47:00       99.989      -13.087       -2.806       41.256       91.621       31.892     1702.034     8394.410     1017.131        1.064        0.556      100.842       31.105        0.095      337.009        8.693      861.040
11/17/2013  10:48:00       77.249      -67.514        9.881       55.168       64.446       38.853     3043.471     4153.287     1509.536        0.966        0.435      102.594       43.345        0.178      337.235        9.072      861.030
11/17/2013  10:49:00       24.521      -25.934       50.740       42.950       63.423       39.656     1844.693     4022.431     1572.622        0.564        0.372       35.691       33.366        0.874      337.749        9.933      861.013
11/17/2013  10:50:00       25.192       23.359       55.714       36.125       27.388       21.050     1305.026      750.083      443.113        0.339        0.125       34.356        8.620        0.063      337.536        9.577      861.006
11/17/2013  10:51:00       57.009       39.938        3.817       23.271       29.121       26.760      541.519      848.042      716.101        0.348        0.105       69.607       19.696        0.080      337.336        9.240      860.996
11/17/2013  10:52:00       66.374       42.665        4.705       33.027       18.463       19.670     1090.779      340.900      386.918        0.403        0.091       78.904       13.006        0.027      337.289        9.161      860.981
11/17/2013  10:53:00       48.444       63.366       18.528       41.607       27.782       29.523     1731.173      771.841      871.579        0.504        0.169       79.763       23.126        0.084      337.506        9.526      860.971
11/17/2013  10:54:00       24.983       35.271       -4.906       35.561       23.232       19.794     1264.560      539.732      391.786        0.204        0.110       43.223        8.383        0.038      337.285        9.155      860.958
11/17/2013  10:55:00        3.638       49.371       41.851       30.704       35.890       33.713      942.724     1288.114     1136.591        0.378        0.168       49.505       20.606        0.173      337.826       10.063      860.942
11/17/2013  10:56:00       57.823       71.472       69.027       66.015       54.858       50.315     4357.935     3009.423     2531.553        1.156        0.495       91.933       48.597        0.279      337.694        9.841      860.918
11/17/2013  10:57:00       44.567       70.258       92.689       46.608       39.482       30.381     2172.341     1558.813      923.000        1.008        0.233       83.201       23.325        0.079      337.490        9.499      860.914
11/17/2013  10:58:00       44.467       41.209        4.351       44.460       44.104       31.374     1976.736     1945.140      984.304        0.430        0.245       60.626       27.246        0.202      337.444        9.421      860.906
11/17/2013  10:59:00       11.381      -14.466       35.716       29.392       61.467       45.904      863.881     3778.235     2107.202        0.418        0.337       18.406       42.138        5.241      337.954       10.276      860.901
11/17/2013  11:00:00       58.461       84.149       93.786       47.723       44.805       45.236     2277.452     2007.450     2046.296        1.281        0.317      102.463       30.096        0.086      337.661        9.785      860.890
11/17/2013  11:01:00        7.481       59.756       93.556       33.285       39.710       29.895     1107.876     1576.885      893.726        0.798        0.179       60.222       19.854        0.109      337.828       10.066      860.891
11/17/2013  11:02:00       85.768       86.863       75.137       40.189       29.415       35.922     1615.193      865.223     1290.378        1.216        0.189      122.071       20.608        0.028      337.425        9.389      860.893
11/17/2013  11:03:00       68.878       68.578        3.059       32.898       36.176       26.772     1082.287     1308.713      716.729        0.628        0.155       97.196       22.903        0.056      337.325        9.223      860.883
11/17/2013  11:04:00       73.000       54.093        1.515       30.303       36.868       31.063      918.275     1359.243      964.898        0.575        0.162       90.857       10.151        0.012      337.388        9.330      860.866
11/17/2013  11:05:00       41.830        9.825      -14.155       18.072       19.214       15.090      326.611      369.196      227.723        0.148        0.046       42.968        9.496        0.049      337.409        9.362      860.856
11/17/2013  11:06:00       69.430       76.283        7.507       25.485       25.158       29.337      649.489      632.920      860.677        0.642        0.107      103.149       12.720        0.015      337.421        9.384      860.846
11/17/2013  11:07:00       11.366      -37.883       12.308       24.015       64.871       27.741      576.743     4208.276      769.558        0.363        0.278       39.552       31.454        0.632      337.789       10.001      860.830
11/17/2013  11:08:00        2.302       11.678        9.383       23.006       53.511       28.189      529.274     2863.419      794.593        0.221        0.209       11.903       24.124        4.108      338.058       10.451      860.815
11/17/2013  11:09:00       20.944       46.738       15.173       35.361       29.487       32.216     1250.428      869.509     1037.861        0.300        0.158       51.216       24.861        0.236      338.187       10.668      860.802
11/17/2013  11:10:00       29.653       55.853        6.269       48.245       31.839       25.395     2327.601     1013.747      644.925        0.401        0.199       63.237       22.886        0.131      338.095       10.515      860.790
11/17/2013  11:11:00       16.592       48.454       27.674       26.867       23.273       31.318      721.849      541.648      980.812        0.282        0.112       51.216       21.907        0.183      338.396       11.019      860.789
11/17/2013  11:12:00       59.085       30.591       14.851       35.460       31.640       34.909     1257.390     1001.102     1218.649        0.406        0.174       66.535       21.376        0.103      338.123       10.562      860.779
11/17/2013  11:13:00       55.180       51.574      -14.146       36.885       36.365       23.696     1360.498     1322.396      561.502        0.457        0.162       75.530       13.169        0.030      337.762        9.955      860.767
11/17/2013  11:14:00       48.619       56.505       -1.569       22.799       27.910       28.357      519.775      778.958      804.101        0.383        0.105       74.543       18.163        0.059      338.047       10.433      860.748
11/17/2013  11:15:00       48.221       71.206       12.776       34.995       35.528       47.254     1224.660     1262.206     2232.927        0.614        0.236       85.997       30.775        0.128      337.980       10.322      860.742
11/17/2013  11:16:00       59.982       60.726       26.887       44.186       33.087       30.705     1952.409     1094.775      942.801        0.600        0.199       85.355       21.337        0.062      337.730        9.901      860.731
11/17/2013  11:17:00       39.513       39.812       10.677       24.983       28.560       29.258      624.139      815.658      856.054        0.278        0.115       56.092       21.546        0.148      338.057       10.450      860.726
11/17/2013  11:18:00        3.835       -6.954        7.856       29.940       45.000       23.026      896.431     2024.972      530.208        0.179        0.173        7.941       17.136        4.656      338.289       10.839      860.706
11/17/2013  11:19:00       37.791       14.450       26.704       35.275       61.122       49.351     1244.301     3735.862     2435.550        0.488        0.371       40.459       35.365        0.764      338.199       10.688      860.716
11/17/2013  11:20:00       -7.580      -24.670        1.587       19.732       23.446       22.763      389.339      549.725      518.152        0.106        0.073       25.809       14.077        0.297      338.038       10.417      860.700
11/17/2013  11:21:00       -9.847      -20.130        8.215       33.904       23.459       27.110     1149.481      550.342      734.947        0.150        0.122       22.409       23.974        1.145      338.099       10.520      860.680
11/17/2013  11:22:00      109.881       45.380       36.588       51.610       52.025       37.584     2663.641     2706.578     1412.555        1.113        0.339      118.883       32.829        0.076      338.095       10.513      860.673
11/17/2013  11:23:00       47.997        1.568       26.033       36.144       61.768       34.458     1306.412     3815.266     1187.388        0.465        0.315       48.023       23.237        0.234      338.244       10.764      860.654
11/17/2013  11:24:00      120.711       63.792       -7.708       58.480       38.845       38.738     3419.928     1508.900     1500.647        1.256        0.321      136.530       21.012        0.024      338.172       10.644      860.654
11/17/2013  11:25:00       47.382       53.530        8.759       49.005       41.596       34.642     2401.500     1730.191     1200.041        0.526        0.267       71.488       24.147        0.114      338.216       10.718      860.650
11/17/2013  11:26:00       55.909       64.772       23.543       29.821       31.938       28.956      889.304     1020.004      838.450        0.531        0.137       85.565       22.208        0.067      338.093       10.511      860.647
11/17/2013  11:27:00       -2.047       31.291       62.841       22.220       43.846       31.375      493.714     1922.466      984.360        0.417        0.170       31.358       28.892        0.849      338.780       11.664      860.640
11/17/2013  11:28:00       64.850       80.655       49.963       52.023       36.595       40.180     2706.355     1339.188     1614.417        0.943        0.283      103.492       15.915        0.024      338.516       11.221      860.630
11/17/2013  11:29:00       31.744        8.263       36.149       53.050       54.207       35.573     2814.332     2938.354     1265.421        0.470        0.351       32.802       30.353        0.856      338.921       11.901      860.597
11/17/2013  11:30:00       79.281      114.899       81.556       80.277       50.646       58.669     6444.458     2565.016     3441.996        1.929        0.623      139.597       55.825        0.160      338.464       11.132      860.568
11/17/2013  11:31:00       39.484       87.842       76.897       33.725       36.939       35.963     1137.394     1364.462     1293.362        0.949        0.190       96.308       24.289        0.064      338.327       10.905      860.563
11/17/2013  11:32:00       52.641      -76.583        3.642       51.149       50.698       32.907     2616.230     2570.307     1082.838        0.746        0.313       92.930       33.440        0.129      338.514       11.218      860.580
11/17/2013  11:33:00       49.372      -50.916       -4.048       49.542       55.305       32.816     2454.441     3058.595     1076.868        0.582        0.329       70.923       32.588        0.211      338.407       11.038      860.593
11/17/2013  11:34:00       23.993       30.906       55.977       30.078       43.288       25.940      904.685     1873.836      672.874        0.406        0.173       39.126       26.780        0.468      338.542       11.265      860.602
11/17/2013  11:35:00       53.519       43.199       48.366       29.503       26.208       26.498      870.426      686.852      702.128        0.466        0.113       68.778       21.282        0.096      338.305       10.866      860.594
11/17/2013  11:36:00       27.564       17.995       24.097       29.505       32.513       39.769      870.555     1057.087     1581.580        0.259        0.175       32.919       20.894        0.403      338.534       11.249      860.573
11/17/2013  11:37:00       52.436       40.331       20.603       39.768       42.838       30.363     1581.514     1835.065      921.886        0.457        0.217       66.153       21.996        0.111      338.398       11.022      860.555
11/17/2013  11:38:00       29.779       18.547        5.850       25.423       15.459       20.091      646.310      238.972      403.629        0.128        0.064       35.083       11.894        0.115      338.263       10.796      860.553
11/17/2013  11:39:00      -50.137       22.860      -19.301       20.738       14.821       13.502      430.065      219.648      182.300        0.212        0.042       55.103        8.321        0.023      338.227       10.736      860.561
11/17/2013  11:40:00      -27.050       12.371       -6.440       21.537       16.840       10.057      463.843      283.596      101.134        0.089        0.042       29.745        5.781        0.038      338.573       11.316      860.560
11/17/2013  11:41:00        9.604       25.612        6.850       23.811       31.361       21.953      566.978      983.488      481.944        0.141        0.102       27.353       14.632        0.286      338.843       11.769      860.568
11/17/2013  11:42:00       22.259       40.502       31.438       31.900       29.499       32.539     1017.610      870.195     1058.775        0.303        0.147       46.216       11.970        0.067      338.883       11.837      860.560
11/17/2013  11:43:00       90.538       76.891       40.739       60.108       41.704       29.532     3612.969     1739.205      872.140        1.100        0.311      118.783       27.032        0.052      338.475       11.152      860.549
11/17/2013  11:44:00       66.182       67.717       37.358       34.371       35.672       36.509     1181.392     1272.499     1332.926        0.707        0.189       94.687       20.093        0.045      338.785       11.672      860.521
11/17/2013  11:45:00       49.462       97.054      106.938       71.976       47.460       55.419     5180.605     2252.457     3071.313        1.690        0.525      108.931       55.342        0.258      338.566       11.307      860.510
11/17/2013  11:46:00       37.668       10.683       18.888       35.995       44.140       20.658     1295.614     1948.297      426.761        0.278        0.184       39.153       14.202        0.132      338.401       11.028      860.502
11/17/2013  11:47:00        7.607       35.994       66.061       31.479       51.873       55.882      990.912     2690.762     3122.822        0.626        0.340       36.789       45.102        1.503      338.862       11.801      860.492
11/17/2013  11:48:00       54.896       77.139       68.202       48.481       40.225       33.784     2350.383     1618.048     1141.325        0.936        0.255       94.678       29.915        0.100      338.483       11.165      860.495
11/17/2013  11:49:00      -10.737      -14.964       27.790       26.670       38.743       23.618      711.285     1501.027      557.799        0.194        0.139       18.417       18.206        0.977      338.947       11.946      860.498
11/17/2013  11:50:00       33.532      -73.256       17.285       47.100       35.645       38.070     2218.372     1270.541     1449.321        0.586        0.247       80.566       24.310        0.091      338.631       11.415      860.491
11/17/2013  11:51:00       40.256       59.433       57.472       40.404       53.415       33.936     1632.503     2853.188     1151.645        0.705        0.282       71.783       20.935        0.085      338.778       11.661      860.485
11/17/2013  11:52:00       11.020       13.185      -20.420       41.420       27.061       16.262     1715.601      732.318      264.447        0.171        0.136       17.183        8.914        0.269      338.429       11.075      860.477
11/17/2013  11:53:00      -16.888      -17.857        6.994       21.436       29.426       24.146      459.490      865.913      583.010        0.128        0.095       24.579        5.896        0.058      338.762       11.635      860.451
11/17/2013  11:54:00       -2.657      116.505      -11.093       24.279       46.812       20.443      589.479     2191.398      417.929        0.845        0.160      116.536       21.111        0.033      338.700       11.531      860.437
11/17/2013  11:55:00       -0.871       97.941       -7.780       44.001       60.489       32.694     1936.097     3658.930     1068.913        0.816        0.333       97.945       33.747        0.119      338.901       11.869      860.419
11/17/2013  11:56:00       57.159       69.233       18.979       49.219       53.334       41.485     2422.558     2844.517     1721.020        0.770        0.349       89.780       39.909        0.198      338.893       11.855      860.399
11/17/2013  11:57:00       39.809       49.844       51.306       65.439       44.831       46.180     4282.281     2009.798     2132.597        0.756        0.421       63.790       37.494        0.345      339.293       12.528      860.387
11/17/2013  11:58:00      140.416       79.672       43.950      109.059       63.200       62.916    11893.939     3994.245     3958.364        2.392        0.992      161.444       51.146        0.100      338.857       11.793      860.370
11/17/2013  11:59:00      117.803       86.779        6.643       39.695       36.343       28.993     1575.659     1320.809      840.566        1.259        0.187      146.316       27.176        0.034      338.591       11.347      860.360
11/17/2013  12:00:00       48.802       53.139       82.235       49.887       61.834       43.333     2488.741     3823.462     1877.711        1.008        0.409       72.149       37.514        0.270      339.049       12.117      860.340
11/17/2013  12:01:00       85.487       76.491       46.439       62.172       67.280       74.189     3865.340     4526.645     5504.060        1.460        0.695      114.713       67.494        0.346      338.624       11.402      860.337
11/17/2013  12:02:00      -17.652      -28.846       -3.237       26.569       43.163       23.529      705.888     1863.061      553.602        0.214        0.156       33.818       21.866        0.418      339.024       12.074      860.330
11/17/2013  12:03:00       11.605      -36.818       41.271       34.453       42.299       29.334     1186.995     1789.176      860.470        0.351        0.192       38.603       27.340        0.502      339.288       12.519      860.335
11/17/2013  12:04:00       12.891       29.257       53.010       38.465       55.534       27.883     1479.571     3084.072      777.460        0.459        0.267       31.971       31.521        0.972      339.297       12.533      860.346
11/17/2013  12:05:00       13.822       -3.909        8.276       25.398       32.432       28.190      645.035     1051.845      794.676        0.138        0.125       14.364       16.541        1.326      339.510       12.893      860.340
11/17/2013  12:06:00      -11.290       41.924       -1.613       28.073       31.446       19.280      788.117      988.845      371.708        0.202        0.107       43.418       16.807        0.150      339.266       12.482      860.337
11/17/2013  12:07:00        3.216      -41.227       13.673       51.563       65.531       33.283     2658.766     4294.316     1107.764        0.498        0.403       41.352       33.874        0.671      339.278       12.502      860.323
11/17/2013  12:08:00       82.924      -75.403       14.092       52.592       43.539       41.420     2765.900     1895.610     1715.622        0.957        0.319      112.080       41.119        0.135      338.834       11.755      860.308
11/17/2013  12:09:00       74.184       64.041       42.476       35.100       41.119       43.846     1232.026     1690.785     1922.478        0.813        0.242       98.002       16.609        0.029      338.725       11.570      860.295
11/17/2013  12:10:00       13.083       22.739        6.058       15.765       20.039       17.484      248.535      401.568      305.681        0.084        0.048       26.234       13.180        0.252      339.092       12.187      860.285
11/17/2013  12:11:00      -22.412       15.877       -3.304       56.110       54.080       26.889     3148.344     2924.642      723.023        0.378        0.340       27.466       34.560        1.583      338.804       11.704      860.278
11/17/2013  12:12:00        7.964       59.360        8.728       36.923       25.067       44.776     1363.339      628.356     2004.866        0.383        0.200       59.892       20.814        0.121      339.006       12.044      860.260
11/17/2013  12:13:00       66.294       57.467       12.517       34.783       27.862       32.726     1209.852      776.298     1070.974        0.545        0.153       87.734       21.115        0.058      339.040       12.101      860.257
11/17/2013  12:14:00       98.251       70.590        9.037       56.935       46.544       39.806     3241.567     2166.311     1584.485        1.085        0.350      120.980       21.792        0.032      339.100       12.203      860.244
11/17/2013  12:15:00       79.462       70.531        2.957       40.350       44.871       34.731     1628.090     2013.402     1206.233        0.807        0.242      106.249       19.152        0.032      339.122       12.241      860.244
11/17/2013  12:16:00      110.738       97.934       -9.910       54.800       39.001       38.920     3003.035     1521.076     1514.762        1.399        0.302      147.831       27.113        0.034      339.027       12.079      860.240
11/17/2013  12:17:00       64.920       86.258       12.871       57.542       53.515       48.317     3311.092     2863.851     2334.566        1.016        0.425      107.959       28.970        0.072      339.109       12.219      860.218
11/17/2013  12:18:00       20.864       77.613       10.964       41.018       55.237       39.147     1682.488     3051.175     1532.502        0.642        0.313       80.368       33.794        0.177      339.256       12.465      860.207
11/17/2013  12:19:00       29.124       63.366       -9.669       29.820       39.715       36.878      889.215     1577.247     1359.966        0.439        0.191       69.739       26.440        0.144      339.053       12.124      860.187
11/17/2013  12:20:00        0.082       89.356       -9.447       28.863       44.924       24.488      833.069     2018.210      599.649        0.576        0.173       89.356       20.416        0.052      338.983       12.006      860.176
11/17/2013  12:21:00      -31.071       92.482      -31.922       32.104       34.204       22.651     1030.686     1169.906      513.075        0.662        0.136       97.562       16.302        0.028      338.945       11.941      860.159
11/17/2013  12:22:00       -1.461       33.980        5.218       31.357       37.625       25.576      983.257     1415.665      654.125        0.212        0.153       34.012       25.763        0.574      339.413       12.730      860.136
11/17/2013  12:23:00       41.001       69.225       70.888       70.731       80.147       62.839     5002.862     6423.527     3948.681        1.343        0.769       80.456       68.607        0.727      339.366       12.648      860.125
11/17/2013  12:24:00       24.741       88.768      111.429       55.998       43.899       36.914     3135.810     1927.137     1362.626        1.367        0.321       92.152       30.196        0.107      339.507       12.887      860.117
11/17/2013  12:25:00       28.082       15.526       28.469       38.027       70.681       39.752     1446.052     4995.746     1580.202        0.493        0.401       32.088       37.843        1.391      339.451       12.793      860.117
11/17/2013  12:26:00       -0.077       43.868       41.076       35.823       32.975       44.719     1283.307     1087.382     1999.819        0.399        0.219       43.868       27.037        0.380      339.885       13.524      860.131
11/17/2013  12:27:00       28.229       39.365       22.169       38.412       33.074       33.086     1475.502     1093.867     1094.691        0.325        0.183       48.441       29.453        0.370      339.682       13.182      860.126
11/17/2013  12:28:00       72.355       43.705       -0.125       41.141       44.805       28.024     1692.608     2007.465      785.370        0.581        0.224       84.530       20.436        0.058      339.427       12.753      860.117
11/17/2013  12:29:00       18.828       61.903        6.298       25.589       41.903       31.077      654.810     1755.845      965.766        0.380        0.169       64.703       25.841        0.160      339.533       12.933      860.114
11/17/2013  12:30:00       -3.892       12.477       18.547       17.696       27.713       19.157      313.154      767.987      366.996        0.098        0.072       13.070       12.308        0.887      339.967       13.663      860.100
11/17/2013  12:31:00       -2.023       68.656        2.174       22.244       31.863       20.843      494.779     1015.248      434.423        0.333        0.097       68.686       18.559        0.073      339.578       13.008      860.099
11/17/2013  12:32:00       -3.910       34.457        9.657       22.200       26.775       19.251      492.835      716.883      370.588        0.144        0.079       34.678       18.657        0.289      339.782       13.352      860.081
11/17/2013  12:33:00       -0.777        7.832        9.380       29.576       21.871       18.838      874.745      478.329      354.875        0.093        0.085        7.871        2.654        0.114      339.957       13.648      860.076
11/17/2013  12:34:00        4.654       50.315       65.513       35.061       46.918       41.146     1229.269     2201.316     1693.033        0.598        0.256       50.529       37.567        0.553      339.906       13.561      860.058
11/17/2013  12:35:00       67.324       88.639       56.906       73.028       47.691       44.373     5333.111     2274.452     1968.949        1.260        0.479      111.308       38.977        0.123      339.599       13.042      860.044
11/17/2013  12:36:00      121.903       85.086       43.442       55.598       48.164       38.270     3091.083     2319.750     1464.628        1.543        0.344      148.660       21.056        0.020      339.475       12.834      860.023
11/17/2013  12:37:00       24.854       35.565       28.032       67.084       57.408       43.521     4500.289     3295.633     1894.115        0.618        0.485       43.389       25.871        0.356      339.956       13.645      859.994
11/17/2013  12:38:00        8.484      -39.663       18.111       33.526       69.526       30.070     1124.002     4833.887      904.199        0.442        0.343       40.561       28.101        0.480      339.913       13.573      860.005
11/17/2013  12:39:00       60.262       22.325       66.281       49.397       95.070       51.422     2440.034     9038.325     2644.181        1.132        0.706       64.264       57.498        0.801      339.858       13.480      859.993
11/17/2013  12:40:00       62.328       85.420       99.372       56.329       53.153       38.755     3172.993     2825.193     1501.934        1.428        0.375      105.742       39.503        0.140      339.564       12.983      860.003
11/17/2013  12:41:00       57.817       65.819       78.610       51.297       45.225       33.957     2631.333     2045.258     1153.064        0.984        0.291       87.607       30.989        0.125      339.620       13.078      860.007
11/17/2013  12:42:00       67.820       52.903       63.067       70.447       67.088       64.305     4962.768     4500.778     4135.129        1.248        0.680       86.014       53.823        0.392      339.649       13.127      859.986
11/17/2013  12:43:00       49.342       74.131       96.620       77.254       54.177       49.535     5968.224     2935.159     2453.732        1.431        0.568       89.051       52.555        0.348      339.625       13.086      859.968
11/17/2013  12:44:00      122.474       95.740       10.117       45.998       31.210       28.107     2115.825      974.047      789.999        1.407        0.194      155.454       10.990        0.005      339.473       12.829      859.955
11/17/2013  12:45:00       75.827       56.246       12.962       29.910       21.182       23.775      894.580      448.698      565.262        0.549        0.095       94.411       13.259        0.020      339.410       12.724      859.942
11/17/2013  12:46:00       75.023       21.965        1.091       16.093       23.503       17.863      258.985      552.378      319.094        0.362        0.057       78.172        9.286        0.014      339.403       12.714      859.936
11/17/2013  12:47:00       38.737       34.417       26.989       33.767       30.182       31.730     1140.222      910.977     1006.814        0.324        0.153       51.818       21.029        0.165      339.959       13.650      859.922
11/17/2013  12:48:00       77.345       54.081       30.878       60.121       47.928       41.238     3614.512     2297.072     1700.605        0.873        0.381       94.377       35.549        0.142      340.155       13.981      859.921
11/17/2013  12:49:00      140.337       84.094       41.499       80.601       72.364       57.162     6496.485     5236.587     3267.510        2.174        0.750      163.603       54.239        0.110      339.772       13.332      859.911
11/17/2013  12:50:00      145.874      117.451       83.324       47.261       52.155       49.801     2233.623     2720.112     2480.143        2.472        0.372      187.281       39.745        0.045      339.480       12.840      859.916
11/17/2013  12:51:00       65.295       75.582       55.173       54.450       32.643       51.164     2964.801     1065.561     2617.734        0.983        0.332       99.880       46.538        0.217      339.500       12.876      859.916
11/17/2013  12:52:00       39.690      119.063      121.148       59.044       86.997       80.009     3486.215     7568.543     6401.380        2.394        0.873      125.504       77.339        0.380      339.546       12.950      859.906
11/17/2013  12:53:00       60.382       17.936       40.555       44.388       38.801       26.846     1970.277     1505.479      720.698        0.490        0.210       62.990       25.472        0.164      339.656       13.138      859.932
11/17/2013  12:54:00       65.048       27.345        8.735       46.014       37.665       25.783     2117.333     1418.675      664.740        0.463        0.210       70.562       20.869        0.087      339.605       13.052      859.934
11/17/2013  12:55:00       32.200       12.560       12.131       23.703       13.664       24.791      561.809      186.713      614.573        0.135        0.068       34.563       11.231        0.106      339.720       13.247      859.923
11/17/2013  12:56:00       37.884       81.980       80.692       73.548       67.633       69.047     5409.249     4574.256     4767.535        1.471        0.738       90.310       59.954        0.441      339.836       13.440      859.904
11/17/2013  12:57:00      145.725       84.847        5.552       73.354       62.240       41.982     5380.812     3873.764     1762.468        1.974        0.551      168.627       25.075        0.022      339.785       13.355      859.897
11/17/2013  12:58:00       83.248       56.148       40.992       76.830       44.847       46.461     5902.854     2011.244     2158.602        1.092        0.504      100.413       21.473        0.046      339.916       13.577      859.886
11/17/2013  12:59:00       43.069       66.846       95.628       49.688       75.185       56.911     2468.862     5652.771     3238.878        1.341        0.568       79.519       58.041        0.533      339.828       13.429      859.871
11/17/2013  13:00:00       33.507       19.656       14.722       44.227       54.754       29.293     1956.031     2997.974      858.071        0.377        0.291       38.847       24.755        0.406      339.733       13.269      859.874
11/17/2013  13:01:00      126.294       62.914       19.188       62.925       44.476       39.102     3959.537     1978.100     1528.970        1.387        0.373      141.097       34.255        0.059      339.760       13.315      859.869
11/17/2013  13:02:00       96.368       36.528       -2.003       77.111       56.297       30.340     5946.069     3169.347      920.541        1.033        0.502      103.058       27.940        0.073      339.729       13.261      859.850
11/17/2013  13:03:00       21.982       44.121       -4.545       33.257       69.125       21.883     1106.040     4778.227      478.864        0.441        0.318       49.294       25.957        0.277      339.880       13.515      859.832
11/17/2013  13:04:00       -6.400       33.674       -9.613       35.784       50.282       18.884     1280.476     2528.281      356.592        0.272        0.208       34.277       20.010        0.341      339.941       13.619      859.831
11/17/2013  13:05:00       57.634       22.863       -0.110       53.157       47.062       30.436     2825.642     2214.833      926.325        0.490        0.298       62.003       17.515        0.080      339.981       13.686      859.820
11/17/2013  13:06:00       13.492       62.921       87.370       44.972       44.140       37.259     2022.488     1948.352     1388.229        0.857        0.268       64.351       33.619        0.273      340.117       13.917      859.806
11/17/2013  13:07:00       18.247       56.592       72.769       45.108       37.703       32.935     2034.752     1421.513     1084.685        0.668        0.227       59.461       16.353        0.076      340.250       14.141      859.801
11/17/2013  13:08:00       55.451       60.208       72.866       80.429       49.211       61.331     6468.878     2421.720     3761.505        1.233        0.633       81.853       55.726        0.463      340.079       13.853      859.795
11/17/2013  13:09:00       16.892       77.359       90.275       39.735       48.270       45.946     1578.871     2330.031     2111.004        1.022        0.301       79.181       37.584        0.225      340.205       14.065      859.785
11/17/2013  13:10:00       17.712       48.255       55.931       45.703       36.519       43.731     2088.745     1333.630     1912.406        0.555        0.267       51.403       32.211        0.393      340.295       14.216      859.774
11/17/2013  13:11:00      113.973       84.544       22.124       61.131       46.624       47.814     3736.945     2173.822     2286.223        1.441        0.410      141.906       19.061        0.018      340.078       13.850      859.773
11/17/2013  13:12:00       85.053       59.264       16.604       46.908       36.419       36.382     2200.379     1326.331     1323.681        0.794        0.243      103.664        9.947        0.009      340.024       13.760      859.774
11/17/2013  13:13:00       29.362       40.314       14.265       38.289       42.612       34.555     1466.034     1815.774     1194.037        0.358        0.224       49.873       30.197        0.367      340.103       13.893      859.761
11/17/2013  13:14:00       66.792       58.523       51.283       52.217       48.405       45.824     2726.632     2343.013     2099.796        0.884        0.358       88.803       40.340        0.206      340.033       13.774      859.749
11/17/2013  13:15:00       31.994       76.392       93.455       55.986       53.457       36.397     3134.442     2857.619     1324.739        1.145        0.366       82.821       32.875        0.158      340.069       13.835      859.741
11/17/2013  13:16:00       -9.668       57.144       77.275       24.693       38.632       30.177      609.724     1492.414      910.665        0.617        0.151       57.956       29.052        0.251      340.215       14.081      859.748
11/17/2013  13:17:00        9.911        6.492        0.891       48.565       31.622       21.286     2358.521      999.936      453.089        0.198        0.191       11.848       17.327        2.139      340.487       14.541      859.750
11/17/2013  13:18:00      108.991       67.305        0.175       40.065       42.178       28.677     1605.166     1778.968      822.361        1.031        0.210      128.098       23.291        0.033      340.200       14.057      859.745
11/17/2013  13:19:00      124.147       46.328       16.976       54.569       40.542       36.807     2977.761     1643.658     1354.774        1.191        0.299      132.509       16.339        0.015      340.083       13.859      859.747
11/17/2013  13:20:00       94.226       59.465       10.160       55.479       42.019       34.445     3077.866     1765.597     1186.466        0.927        0.301      111.421       22.732        0.042      340.233       14.113      859.748
11/17/2013  13:21:00       68.092       86.729       -4.546       58.250       50.343       37.314     3393.070     2534.427     1392.342        0.975        0.366      110.265       25.143        0.052      340.259       14.156      859.745
11/17/2013  13:22:00      114.554       97.841       15.365       71.575       48.628       52.926     5122.964     2364.646     2801.177        1.661        0.514      150.650       34.947        0.054      340.357       14.321      859.732
11/17/2013  13:23:00       54.500       12.267       -3.367       58.144       40.549       31.012     3380.737     1644.201      961.753        0.456        0.299       55.863        8.184        0.021      340.344       14.300      859.738
11/17/2013  13:24:00       20.299      -20.191        9.728       17.877       27.794       18.632      319.595      772.479      347.170        0.118        0.072       28.631       12.998        0.206      340.409       14.410      859.741
11/17/2013  13:25:00       18.419       34.790       50.613       34.564       37.713       31.490     1194.698     1422.277      991.640        0.386        0.180       39.365       28.590        0.527      340.682       14.872      859.742
11/17/2013  13:26:00       46.228       35.212       12.385       58.182       43.884       35.667     3385.148     1925.786     1272.139        0.506        0.329       58.111        5.814        0.010      340.538       14.628      859.736
11/17/2013  13:27:00       87.456       56.124       13.831       39.586       32.866       29.965     1567.021     1080.200      897.897        0.727        0.177      103.916       24.085        0.054      340.132       13.940      859.728
11/17/2013  13:28:00       85.644       90.247       79.405       64.777       51.881       52.904     4196.031     2691.669     2798.833        1.573        0.484      124.416       45.000        0.131      340.229       14.106      859.733
11/17/2013  13:29:00      118.345       68.422       66.103       57.607       45.188       53.414     3318.549     2041.932     2853.077        1.563        0.411      136.700       42.934        0.099      340.112       13.906      859.731
11/17/2013  13:30:00      149.839      134.579       80.945       67.840       46.501       62.127     4602.303     2162.388     3859.718        2.887        0.531      201.403       47.242        0.055      340.117       13.912      859.710
11/17/2013  13:31:00       76.480       86.418       78.353      118.511       65.756       57.462    14044.884     4323.818     3301.931        2.056        1.084      115.401       61.485        0.284      340.503       14.568      859.705
11/17/2013  13:32:00      101.526      101.209       86.202       72.835       68.984       62.486     5304.887     4758.816     3904.470        2.097        0.698      143.355       52.963        0.136      340.279       14.189      859.727
11/17/2013  13:33:00      161.667      119.904       29.907       80.691       54.615       51.362     6511.077     2982.755     2638.045        2.677        0.607      201.279       22.678        0.013      340.191       14.038      859.741
11/17/2013  13:34:00      113.314       76.915       20.637       52.433       46.702       38.042     2749.178     2181.082     1447.196        1.278        0.319      136.953       24.980        0.033      340.141       13.955      859.738
11/17/2013  13:35:00       65.966       91.148       62.043       55.236       43.933       44.940     3051.062     1930.105     2019.619        1.175        0.350      112.514       42.236        0.141      340.123       13.927      859.735
11/17/2013  13:36:00       69.493       68.713       -0.158       48.757       21.228       26.206     2377.198      450.608      686.772        0.653        0.176       97.728       17.301        0.031      340.180       14.022      859.739
11/17/2013  13:37:00      -30.826       12.266        3.137       19.431       33.156       22.463      377.583     1099.299      504.574        0.155        0.099       33.177       15.411        0.216      340.770       15.020      859.735
11/17/2013  13:38:00        1.524        5.188       20.434       15.588       20.662       29.660      242.998      426.904      879.693        0.100        0.077        5.407       22.313       17.031      340.730       14.952      859.724
11/17/2013  13:39:00       -1.893       37.574       54.035       18.795       31.913       24.935      353.244     1018.426      621.732        0.316        0.100       37.622       23.466        0.389      340.511       14.582      859.712
11/17/2013  13:40:00       25.169        5.503       19.758       23.096       38.591       19.697      533.411     1489.254      387.953        0.173        0.121       25.764       22.436        0.758      340.481       14.530      859.710
11/17/2013  13:41:00       31.672       18.849        8.301       21.829       24.682       23.000      476.500      609.202      529.015        0.152        0.081       36.856        8.679        0.055      340.413       14.416      859.715
11/17/2013  13:42:00       35.973       32.129        7.795       32.458       29.576       22.983     1053.528      874.742      528.223        0.242        0.123       48.232       21.319        0.195      340.379       14.358      859.710
11/17/2013  13:43:00       57.413       46.561        8.589       43.973       34.457       25.465     1933.633     1187.261      648.455        0.465        0.188       73.921       11.751        0.025      340.357       14.319      859.709
11/17/2013  13:44:00       70.343       83.675       -8.486       43.160       39.959       41.238     1862.756     1596.710     1700.566        0.859        0.258      109.314       27.311        0.062      340.327       14.271      859.704
11/17/2013  13:45:00       23.513       53.448      -11.974       34.295       31.418       19.297     1176.118      987.109      372.391        0.304        0.127       58.391       21.708        0.138      340.536       14.624      859.692
11/17/2013  13:46:00       58.523       38.629        0.467       52.587       47.286       22.326     2765.420     2236.012      498.453        0.521        0.275       70.123       16.002        0.052      340.432       14.451      859.679
11/17/2013  13:47:00       74.504       94.027       -0.409       55.283       27.900       28.323     3056.188      778.426      802.188        0.951        0.232      119.967       21.284        0.031      340.315       14.249      859.669
11/17/2013  13:48:00       19.367       25.311      -10.679       30.944       47.559       16.432      957.539     2261.834      270.022        0.231        0.174       31.870       19.559        0.377      340.408       14.406      859.655
11/17/2013  13:49:00       40.520       21.135       18.607       29.975       29.470       26.731      898.502      868.452      714.529        0.246        0.124       45.701       14.429        0.100      340.524       14.604      859.656
11/17/2013  13:50:00       13.438       16.066       14.830       33.565       32.639       25.788     1126.625     1065.295      665.016        0.176        0.143       20.945       11.928        0.324      340.627       14.777      859.653
11/17/2013  13:51:00       61.277       50.108       31.412       52.296       34.477       36.421     2734.832     1188.643     1326.456        0.625        0.262       79.156       17.799        0.051      340.570       14.682      859.657
11/17/2013  13:52:00       78.749       37.072       28.998       52.008       40.445       38.963     2704.833     1635.815     1518.094        0.714        0.293       87.039       20.532        0.056      340.471       14.514      859.649
11/17/2013  13:53:00       23.850        8.786       12.340       17.354       14.894       14.489      301.167      221.839      209.939        0.077        0.037       25.417        5.601        0.049      340.613       14.754      859.652
11/17/2013  13:54:00       27.459       26.722       39.901       40.987       49.447       43.503     1679.929     2444.985     1892.523        0.454        0.301       38.316       39.375        1.056      340.646       14.809      859.655
11/17/2013  13:55:00       35.361       66.214       66.418       52.331       42.511       36.543     2738.519     1807.147     1335.391        0.796        0.294       75.065       33.855        0.203      340.550       14.649      859.648
11/17/2013  13:56:00       48.725       57.512       64.866       62.032       73.563       59.593     3847.921     5411.489     3551.310        1.135        0.641       75.378       51.407        0.465      340.596       14.725      859.650
11/17/2013  13:57:00       98.655      121.878       83.756       45.570       41.177       43.954     2076.600     1695.522     1931.918        1.865        0.285      156.802       32.802        0.044      340.288       14.205      859.660
11/17/2013  13:58:00      123.311       90.962       35.435       43.031       35.912       38.864     1851.663     1289.655     1510.374        1.469        0.233      153.231       19.374        0.016      340.287       14.202      859.665
11/17/2013  13:59:00       52.319       16.749       37.493       54.773       43.145       38.118     3000.124     1861.522     1452.986        0.537        0.316       54.935       33.785        0.378      340.646       14.810      859.675
11/17/2013  14:00:00       14.594       15.134       35.493       37.390       38.805       38.004     1398.041     1505.826     1444.284        0.302        0.217       21.025       33.320        2.512      340.654       14.825      859.677
11/17/2013  14:01:00       -7.216       -6.290       44.774       32.900       62.462       31.523     1082.428     3901.455      993.697        0.404        0.299        9.572       30.065        9.864      340.897       15.235      859.676
11/17/2013  14:02:00       31.952       57.318       77.558       37.186       41.070       26.798     1382.776     1686.726      718.128        0.705        0.189       65.622       29.393        0.201      340.565       14.673      859.694
11/17/2013  14:03:00       37.957       23.880       31.551       30.995       33.940       29.044      960.694     1151.955      843.527        0.298        0.148       44.844       21.357        0.227      340.529       14.612      859.692
11/17/2013  14:04:00       27.724      -52.857        0.778       19.736       33.141       22.818      389.508     1098.334      520.668        0.279        0.100       59.687       20.154        0.114      340.475       14.522      859.689
11/17/2013  14:05:00       15.880      -12.382       18.145       24.029       18.076       18.670      577.372      326.757      348.556        0.099        0.063       20.137       14.791        0.540      340.764       15.010      859.686
11/17/2013  14:06:00        2.506       18.496       24.977       14.413       19.160       14.508      207.747      367.121      210.492        0.088        0.039       18.665       11.913        0.407      340.961       15.343      859.689
11/17/2013  14:07:00       16.014       38.732       10.312       14.592       38.678       19.548      212.933     1495.975      382.111        0.198        0.105       41.912       22.869        0.298      340.768       15.017      859.681
11/17/2013  14:08:00       25.301       81.867      -13.596       21.194       22.249       19.654      449.191      495.040      386.266        0.443        0.067       85.688       16.085        0.035      340.449       14.477      859.680
11/17/2013  14:09:00       22.618       28.653       -6.649       15.311       21.758       25.708      234.426      473.429      660.913        0.137        0.068       36.504       19.537        0.286      340.598       14.729      859.686
11/17/2013  14:10:00        5.156       12.266       16.383        6.132       13.600        6.881       37.604      184.958       47.347        0.036        0.013       13.305        4.992        0.141      340.942       15.311      859.684
11/17/2013  14:11:00      -19.467       69.355       -8.588       19.220       24.144       16.556      369.420      582.938      274.106        0.324        0.061       72.036       15.139        0.044      340.546       14.642      859.667
11/17/2013  14:12:00      -51.942       60.336      -19.439       24.971       24.635       19.239      623.565      606.871      370.129        0.416        0.080       79.614        5.212        0.004      340.574       14.688      859.657
11/17/2013  14:13:00      -88.491       40.904      -22.560       11.222       12.217       12.358      125.928      149.249      152.712        0.522        0.021       97.488        6.562        0.005      340.529       14.613      859.655
11/17/2013  14:14:00      -37.071       -1.097      -12.505       25.161       32.365       14.647      633.061     1047.494      214.549        0.171        0.095       37.087       11.641        0.099      340.702       14.905      859.660
11/17/2013  14:15:00      -50.397       13.873        6.315       41.366       24.579       18.413     1711.146      604.127      339.026        0.271        0.133       52.272       20.968        0.161      341.201       15.749      859.663
11/17/2013  14:16:00      -79.725       21.493      -17.503       17.278       26.278       12.420      298.533      690.523      154.245        0.413        0.057       82.571        9.008        0.012      340.599       14.730      859.671
11/17/2013  14:17:00      -43.893      -11.317       -3.811       23.570       13.324       21.097      555.564      177.540      445.074        0.162        0.059       45.328       16.138        0.127      340.875       15.197      859.661
11/17/2013  14:18:00      -50.673      -21.030        2.960       37.445       19.427       19.928     1402.154      377.391      397.142        0.260        0.109       54.864       18.166        0.110      340.932       15.294      859.659
11/17/2013  14:19:00      -68.705      -33.819       -5.419       29.476       21.361       15.874      868.849      456.294      251.975        0.373        0.079       76.577        6.758        0.008      340.830       15.122      859.646
11/17/2013  14:20:00      -71.680      -35.947       -7.165       26.064       20.315       18.521      679.326      412.706      343.036        0.396        0.072       80.189       10.371        0.017      340.778       15.033      859.645
11/17/2013  14:21:00      -19.377      -15.271        5.782       41.915       14.781       18.040     1756.847      218.478      325.455        0.147        0.115       24.671       23.785        0.929      341.005       15.417      859.651
11/17/2013  14:22:00      -39.012      -12.511       -5.155       17.328       15.396       11.990      300.271      237.034      143.762        0.119        0.034       40.969        6.226        0.023      340.762       15.005      859.646
11/17/2013  14:23:00      -34.409       -3.627        1.054       27.887        9.950       14.503      777.669       99.008      210.337        0.114        0.054       34.600       10.928        0.100      340.978       15.372      859.645
11/17/2013  14:24:00       -1.471        6.603        0.646       20.306       16.860       16.512      412.346      284.270      272.644        0.051        0.048        6.765        8.752        1.674      341.132       15.632      859.653
11/17/2013  14:25:00       40.525       20.187       11.128       34.515       35.710       20.620     1191.280     1275.210      425.166        0.253        0.145       45.274       20.162        0.198      340.940       15.308      859.654
11/17/2013  14:26:00       45.829       29.667       39.463       50.695       41.314       22.469     2569.959     1706.888      504.865        0.466        0.239       54.593       15.277        0.078      341.114       15.602      859.649
11/17/2013  14:27:00       42.251      -95.204       -7.174       45.418       64.851       29.952     2062.784     4205.658      897.103        0.903        0.358      104.158       32.277        0.096      340.961       15.343      859.654
11/17/2013  14:28:00       30.685      -73.700       -9.382       39.826       39.133       31.285     1586.074     1531.398      978.777        0.528        0.205       79.833       24.484        0.094      340.955       15.333      859.661
11/17/2013  14:29:00      -25.500       -7.867       18.329       27.758       33.189       15.945      770.521     1101.484      254.250        0.159        0.106       26.686       15.380        0.332      341.244       15.822      859.665
11/17/2013  14:30:00       -5.379       10.192       30.025       26.073       13.655       13.361      679.815      186.448      178.513        0.104        0.052       11.524       12.539        1.184      341.204       15.755      859.685
11/17/2013  14:31:00        8.710       25.162       30.402       21.278       20.543       17.004      452.732      422.000      289.137        0.140        0.058       26.626       10.391        0.152      341.237       15.810      859.698
11/17/2013  14:32:00        6.008        1.116       24.343       15.004       27.456       17.354      225.132      753.859      301.145        0.095        0.064        6.111       19.952       10.659      341.295       15.909      859.696
11/17/2013  14:33:00       43.193        9.229       25.637       64.872       38.487       27.957     4208.353     1481.262      781.577        0.454        0.324       44.168       38.010        0.741      341.101       15.580      859.694
11/17/2013  14:34:00       52.113       99.270       84.849       45.597       45.237       41.041     2079.114     2046.414     1684.358        1.279        0.290      112.118       34.500        0.095      340.825       15.113      859.708
11/17/2013  14:35:00       58.288       76.017       64.670       51.504       42.363       47.314     2652.709     1794.584     2238.584        1.002        0.334       95.792       45.817        0.229      340.821       15.107      859.699
11/17/2013  14:36:00       12.364       54.969       87.037       46.337       59.759       53.045     2147.080     3571.080     2813.793        0.964        0.427       56.342       54.056        0.920      340.990       15.392      859.689
11/17/2013  14:37:00      111.733       60.242       35.303       71.845       43.963       50.629     5161.747     1932.770     2563.338        1.351        0.483      126.939       44.527        0.123      340.908       15.254      859.697
11/17/2013  14:38:00      123.255       72.800        0.708       31.892       30.896       27.409     1017.126      954.540      751.248        1.161        0.136      143.149       15.014        0.011      340.786       15.047      859.710
11/17/2013  14:39:00       58.150       57.544        4.723       38.448       26.536       21.971     1478.277      704.151      482.744        0.469        0.133       81.810       14.100        0.030      340.937       15.300      859.703
11/17/2013  14:40:00       13.814       82.324      -11.394       21.732       27.983       19.959      472.286      783.022      398.348        0.438        0.083       83.475       18.799        0.051      340.819       15.101      859.704
11/17/2013  14:41:00      -16.520       92.429      -16.294       34.483       27.889       19.673     1189.097      777.782      387.027        0.572        0.118       93.894       18.515        0.039      340.851       15.157      859.710
11/17/2013  14:42:00       41.000       14.666        8.297       39.535       26.698       21.390     1562.991      712.780      457.515        0.235        0.137       43.544       19.547        0.202      340.951       15.327      859.715
11/17/2013  14:43:00       54.046       34.951       39.087       55.519       34.586       35.882     3082.362     1196.193     1287.541        0.562        0.278       64.363       31.686        0.242      341.052       15.496      859.710
11/17/2013  14:44:00       25.954       31.842       46.208       36.842       35.390       29.394     1357.328     1252.417      863.999        0.365        0.174       41.079       20.791        0.256      341.038       15.473      859.715
11/17/2013  14:45:00       38.888       31.528       11.965       19.852       22.143       19.253      394.121      490.333      370.674        0.195        0.063       50.063        9.179        0.034      340.949       15.321      859.722
11/17/2013  14:46:00       80.781       38.871        5.870       30.481       41.242       27.699      929.077     1700.901      767.228        0.573        0.170       89.646       19.086        0.045      340.848       15.152      859.732
11/17/2013  14:47:00       59.045       34.192        6.228       25.329       17.032       11.899      641.553      290.105      141.575        0.288        0.054       68.231       11.112        0.027      340.818       15.100      859.737
11/17/2013  14:48:00       35.169      -20.437        0.355        8.726       13.817        8.323       76.135      190.918       69.267        0.100        0.017       40.676        8.265        0.041      340.851       15.158      859.732
11/17/2013  14:49:00       16.973      -21.766      -10.007       32.632       12.664       14.540     1064.864      160.374      211.426        0.115        0.072       27.602       11.697        0.180      340.996       15.401      859.718
11/17/2013  14:50:00       -0.496       -3.452       19.241       16.567        9.157        6.740      274.480       83.852       45.434        0.039        0.020        3.487        5.130        2.163      341.434       16.145      859.710
11/17/2013  14:51:00        5.005      -25.175        7.351       12.051       35.410       17.098      145.218     1253.864      292.358        0.120        0.085       25.667       15.320        0.356      341.249       15.832      859.707
11/17/2013  14:52:00       13.136      -36.947       16.392       20.161       47.704       20.711      406.482     2275.649      428.929        0.246        0.156       39.213       26.619        0.461      341.317       15.946      859.709
11/17/2013  14:53:00       42.980       -5.378       32.718       43.209       79.181       36.669     1867.027     6269.651     1344.629        0.621        0.474       43.316       45.083        1.083      341.243       15.820      859.711
11/17/2013  14:54:00       77.709      -99.103       15.621       38.825       92.785       40.126     1507.358     8609.100     1610.108        1.391        0.586      125.937       53.069        0.178      341.082       15.547      859.708
11/17/2013  14:55:00       88.241       -3.218       49.478       57.498       91.056       48.492     3305.989     8291.207     2351.482        1.209        0.697       88.300       62.718        0.505      340.971       15.359      859.711
11/17/2013  14:56:00       62.136        0.023        6.863       34.435       19.960       20.240     1185.799      398.393      409.649        0.295        0.100       62.136       14.831        0.057      340.938       15.304      859.717
11/17/2013  14:57:00        8.988       49.801        0.869       12.153       17.256       16.475      147.687      297.774      271.413        0.164        0.036       50.606       11.002        0.047      340.932       15.294      859.711
11/17/2013  14:58:00       -5.380       39.272       -9.790        8.104       16.131        9.820       65.678      260.200       96.423        0.104        0.021       39.639        9.375        0.056      340.998       15.407      859.712
11/17/2013  14:59:00        1.623        6.523        2.518       19.627       20.813       12.649      385.231      433.169      160.000        0.051        0.049        6.722        8.163        1.475      341.265       15.859      859.703
11/17/2013  15:00:00      -12.945        0.404       17.088       47.060       23.208       22.802     2214.684      538.632      519.941        0.187        0.164       12.951       16.184        1.562      341.336       15.977      859.703
11/17/2013  15:01:00       96.059      -86.540        0.985       29.116       26.482       19.464      847.740      701.290      378.839        0.932        0.096      129.293       14.902        0.013      341.011       15.427      859.705
11/17/2013  15:02:00       57.805      -95.866       -2.055       32.011       36.221       27.709     1024.696     1311.944      767.816        0.782        0.155      111.945       28.266        0.064      341.062       15.515      859.697
11/17/2013  15:03:00       62.274      -94.276      -14.577       24.737       21.009       20.210      611.921      441.367      408.445        0.722        0.073      112.987       12.890        0.013      340.983       15.380      859.699
11/17/2013  15:04:00       40.676      -87.872      -19.014       28.218       38.277       18.829      796.235     1465.104      354.524        0.618        0.131       96.830       21.536        0.049      341.050       15.495      859.710
11/17/2013  15:05:00        8.803       11.593       34.442       28.526       52.060       35.161      813.715     2710.249     1236.269        0.308        0.238       14.557       38.495        6.993      341.129       15.627      859.714
11/17/2013  15:06:00       63.274       41.177       25.579       49.241       36.184       41.062     2424.647     1309.262     1686.048        0.589        0.271       75.493       35.084        0.216      340.994       15.400      859.720
11/17/2013  15:07:00       92.638       66.963       27.459       36.603       33.703       26.009     1339.744     1135.886      676.487        0.849        0.158      114.306       16.899        0.022      341.125       15.621      859.720
11/17/2013  15:08:00       96.782       43.813       13.047       30.888       27.645       30.112      954.086      764.258      906.717        0.704        0.131      106.238        9.837        0.009      341.074       15.534      859.727
11/17/2013  15:09:00       34.488       35.178       -9.148       35.346       31.859       17.283     1249.372     1014.985      298.717        0.254        0.128       49.263       14.467        0.086      341.126       15.624      859.728
11/17/2013  15:10:00       50.777       28.006       -5.846       27.021       24.335       17.583      730.155      592.201      309.163        0.251        0.082       57.988       12.960        0.050      341.120       15.614      859.722
11/17/2013  15:11:00       28.091       15.030       -2.325       16.535       12.274       10.120      273.403      150.640      102.405        0.077        0.026       31.859        8.804        0.076      341.077       15.540      859.715
11/17/2013  15:12:00       34.366       12.982        5.020       19.104        8.296       10.594      364.966       68.817      112.223        0.096        0.027       36.736        4.364        0.014      341.091       15.564      859.716
11/17/2013  15:13:00       77.701       25.691        2.515       24.478       24.242       17.089      599.184      587.697      292.050        0.409        0.074       81.838       10.188        0.015      341.149       15.663      859.717
11/17/2013  15:14:00       50.114       31.064        7.026       18.902       18.975       16.185      357.281      360.059      261.944        0.225        0.049       58.961        9.712        0.027      341.092       15.566      859.718
11/17/2013  15:15:00       24.905       34.275      -15.609       20.140       19.543       10.848      405.627      381.922      117.671        0.147        0.045       42.368        9.005        0.045      341.211       15.766      859.714
11/17/2013  15:16:00       34.553       48.985        1.136       36.351       17.771       19.213     1321.359      315.799      369.150        0.280        0.100       59.945       15.065        0.063      341.174       15.703      859.712
11/17/2013  15:17:00       77.394       47.917        6.008       54.782       30.997       31.921     3001.072      960.792     1018.940        0.665        0.249       91.027       20.086        0.049      341.033       15.465      859.719
11/17/2013  15:18:00       79.454       49.425        7.099       47.685       22.932       32.054     2273.873      525.860     1027.445        0.632        0.191       93.572       21.380        0.052      341.041       15.479      859.726
11/17/2013  15:19:00       82.831       55.596       15.880       37.576       28.133       20.167     1411.958      791.492      406.721        0.641        0.131       99.759       14.576        0.021      341.045       15.484      859.738
11/17/2013  15:20:00       88.089       43.469       24.408       36.602       33.839       25.240     1339.731     1145.092      637.045        0.668        0.156       98.230       18.569        0.036      341.098       15.574      859.746
11/17/2013  15:21:00       83.050       62.206        4.061       44.660       22.969       22.843     1994.524      527.561      521.813        0.691        0.152      103.764        2.959        0.001      341.018       15.440      859.746
11/17/2013  15:22:00       78.312       49.644       14.132       26.857       22.108       16.792      721.283      488.784      281.966        0.514        0.075       92.722       11.527        0.015      341.040       15.479      859.749
11/17/2013  15:23:00       84.003       37.280        6.675       55.757       39.422       30.500     3108.810     1554.056      930.265        0.704        0.280       91.904       17.403        0.036      341.135       15.637      859.746
11/17/2013  15:24:00       94.386       57.915       32.526       49.087       39.013       29.890     2409.558     1522.021      893.388        0.907        0.241      110.738       19.266        0.030      341.142       15.650      859.747
11/17/2013  15:25:00      111.767       55.643       23.220       30.876       33.596       18.050      953.297     1128.700      325.810        0.927        0.120      124.852       13.801        0.012      341.154       15.670      859.747
11/17/2013  15:26:00       68.195       47.393       34.403       38.968       31.434       22.554     1518.486      988.091      508.683        0.555        0.151       83.046       11.707        0.020      341.141       15.648      859.754
11/17/2013  15:27:00       94.743       61.634       11.438       19.182       21.854       19.247      367.961      477.582      370.458        0.706        0.061      113.026        6.760        0.004      341.106       15.589      859.762
11/17/2013  15:28:00       33.429      101.285      -11.708       36.630       42.119       28.608     1341.788     1774.029      818.398        0.772        0.197      106.659       23.085        0.047      341.158       15.677      859.766
11/17/2013  15:29:00       62.343       56.920        2.523       32.479       27.028       20.684     1054.907      730.495      427.819        0.467        0.111       84.419       15.578        0.034      341.114       15.604      859.779
11/17/2013  15:30:00       15.956       24.576       12.877       13.902       18.151       11.732      193.252      329.477      137.631        0.084        0.033       29.302        8.757        0.089      341.175       15.706      859.783
11/17/2013  15:31:00       34.419       61.179       -8.529       25.783       29.156       15.843      664.751      850.066      251.003        0.338        0.088       70.196       17.272        0.061      341.130       15.630      859.789
11/17/2013  15:32:00       13.475       73.926      -13.902       12.783       18.132        8.834      163.409      328.757       78.045        0.320        0.029       75.144        2.667        0.001      341.185       15.724      859.793
11/17/2013  15:33:00       29.852       40.272        1.675       28.537       18.050       16.371      814.360      325.793      268.009        0.196        0.070       50.130       11.273        0.051      341.163       15.685      859.792
11/17/2013  15:34:00       28.348       37.516       -7.206       22.549       26.714       14.778      508.449      713.659      218.380        0.185        0.072       47.022       11.754        0.062      341.207       15.759      859.796
11/17/2013  15:35:00       10.841       20.510       16.161       13.570       15.706       15.964      184.158      246.676      254.844        0.074        0.034       23.199        8.705        0.141      341.205       15.756      859.801
11/17/2013  15:36:00        5.232       19.647       17.442       14.738       15.237       14.293      217.222      232.165      204.297        0.069        0.033       20.332        9.866        0.235      341.126       15.622      859.802
11/17/2013  15:37:00       47.190       28.506       20.644       44.840       29.193       17.579     2010.604      852.217      309.009        0.332        0.159       55.131       15.145        0.075      341.176       15.707      859.808
11/17/2013  15:38:00       15.152       52.232       60.935       33.700       32.957       28.747     1135.699     1086.156      826.399        0.486        0.152       54.385       27.182        0.250      341.176       15.707      859.810
11/17/2013  15:39:00       18.429        8.215       22.640       22.058       18.887       13.428      486.569      356.720      180.315        0.097        0.051       20.177       11.220        0.309      341.241       15.817      859.815
11/17/2013  15:40:00       19.892       53.223       46.272       27.338       25.965       28.607      747.348      674.184      818.347        0.380        0.112       56.819       17.547        0.095      341.248       15.830      859.819
11/17/2013  15:41:00       59.043       63.562       61.259       28.279       28.073       18.880      799.684      788.071      356.473        0.661        0.097       86.753       12.901        0.022      341.235       15.807      859.826
11/17/2013  15:42:00      101.250       77.830       28.704       25.810       27.904       29.314      666.138      778.657      859.334        0.972        0.115      127.707       17.040        0.018      341.174       15.704      859.817
11/17/2013  15:43:00       59.157       31.231       46.233       50.430       48.122       37.487     2543.189     2315.772     1405.257        0.644        0.313       66.895       34.447        0.265      341.165       15.690      859.815
11/17/2013  15:44:00       46.052       43.308       51.812       36.970       38.790       28.481     1366.754     1504.676      811.181        0.518        0.184       63.216       27.216        0.185      341.157       15.675      859.815
11/17/2013  15:45:00       52.956       24.854       17.663       26.706       20.024       21.391      713.185      400.950      457.558        0.265        0.079       58.498       15.676        0.072      341.160       15.681      859.818
11/17/2013  15:46:00       66.995       36.808        0.417       13.987       11.454       11.828      195.630      131.186      139.896        0.315        0.023       76.441        8.791        0.013      341.156       15.673      859.811
11/17/2013  15:47:00       52.980       -3.722      -10.120       17.779       29.684       10.432      316.085      881.146      108.822        0.211        0.065       53.111       11.568        0.047      341.191       15.734      859.809
11/17/2013  15:48:00       14.468      -41.471       -8.047       19.112       12.533       11.073      365.284      157.083      122.614        0.132        0.032       43.922        8.101        0.034      341.211       15.766      859.809
11/17/2013  15:49:00       22.112      -23.588       -3.936       25.355       17.758       11.705      642.862      315.364      137.015        0.108        0.055       32.332       10.170        0.099      341.198       15.744      859.809
11/17/2013  15:50:00       15.179       17.442       14.928       12.360        7.843        4.920      152.763       61.520       24.209        0.050        0.012       23.123        5.696        0.061      341.194       15.738      859.810
11/17/2013  15:51:00       15.033       16.318       11.850       13.761       11.322       10.376      189.375      128.183      107.658        0.053        0.021       22.187        7.027        0.100      341.269       15.866      859.805
11/17/2013  15:52:00       28.640       23.315       13.247       10.917        8.251        6.343      119.171       68.078       40.233        0.088        0.011       36.930        3.783        0.010      341.175       15.704      859.810
11/17/2013  15:53:00        6.925       33.687       -0.803       14.169       19.065       11.476      200.761      363.460      131.702        0.094        0.035       34.392       11.873        0.119      341.224       15.789      859.811
11/17/2013  15:54:00      -50.537       35.830       -2.642       24.746       23.322       17.090      612.367      543.917      292.058        0.265        0.072       61.949       19.626        0.100      341.314       15.940      859.812
11/17/2013  15:55:00      -61.600       25.390       -1.975       19.436       15.991       14.734      377.762      255.727      217.087        0.265        0.043       66.627        8.169        0.015      341.462       16.191      859.815
11/17/2013  15:56:00      -63.288       17.250       -6.225       25.129       16.014       12.870      631.463      256.438      165.634        0.270        0.053       65.597        4.599        0.005      341.398       16.082      859.813
11/17/2013  15:57:00      -50.691       29.541       -6.579       19.849       21.065       14.158      393.964      443.727      200.436        0.226        0.052       58.670       10.488        0.032      341.395       16.078      859.812
11/17/2013  15:58:00      -49.878       61.588      -14.171       20.304       18.030       11.390      412.238      325.098      129.742        0.367        0.043       79.252        7.294        0.008      341.268       15.862      859.810
11/17/2013  15:59:00      -15.702       30.713      -10.164        7.791       10.434       10.389       60.697      108.875      107.922        0.079        0.014       34.494        6.245        0.033      341.200       15.748      859.813
11/17/2013  16:00:00      -39.473       15.829       -1.203       37.487       14.026        8.628     1405.240      196.734       74.435        0.174        0.084       42.529        5.234        0.015      341.302       15.920      859.806
11/17/2013  16:01:00      -98.985        8.098      -12.491       16.314       17.048       11.581      266.160      290.646      134.122        0.536        0.035       99.315        8.978        0.008      341.311       15.937      859.800
11/17/2013  16:02:00      -71.337       -7.401       -3.553       18.819       18.698       10.096      354.162      349.624      101.928        0.298        0.040       71.720        7.492        0.011      341.408       16.099      859.800
11/17/2013  16:03:00      -38.303      -45.374       -1.233       23.789       21.513       12.855      565.924      462.809      165.264        0.236        0.060       59.379        4.679        0.006      341.276       15.876      859.812
11/17/2013  16:04:00      -87.021      -23.430      -18.458       18.000       18.432       11.219      324.016      339.752      125.859        0.463        0.039       90.120       10.639        0.014      341.274       15.874      859.820
11/17/2013  16:05:00      -52.328      -28.681       -3.163       17.374       18.768       11.931      301.867      352.222      142.339        0.218        0.040       59.673        8.865        0.022      341.245       15.824      859.832
11/17/2013  16:06:00      -95.781      -28.083       -8.318       12.309       22.349        9.303      151.509      499.497       86.552        0.538        0.037       99.813        5.048        0.003      341.168       15.692      859.844
11/17/2013  16:07:00     -116.066      -25.074      -11.255       15.598       13.419        8.458      243.292      180.062       71.535        0.736        0.025      118.744        7.654        0.004      341.209       15.764      859.854
11/17/2013  16:08:00      -83.341      -26.214       -3.813       20.667       14.301       15.531      427.121      204.506      241.204        0.426        0.044       87.367       14.320        0.027      341.329       15.966      859.857
11/17/2013  16:09:00      -70.675      -29.291       -1.897       30.227       22.885       11.677      913.685      523.701      136.352        0.371        0.079       76.504       11.518        0.023      341.168       15.694      859.858
11/17/2013  16:10:00      -27.255      -31.047        3.955       29.357       24.230       12.370      861.841      587.105      153.014        0.166        0.080       41.313       15.577        0.142      341.291       15.901      859.870
11/17/2013  16:11:00      -40.061      -18.154        3.781       19.044       19.226       14.660      362.679      369.657      214.904        0.145        0.047       43.982        7.697        0.031      341.316       15.943      859.874
11/17/2013  16:12:00      -67.753      -18.138       -2.085       16.400       13.812       13.503      268.946      190.767      182.335        0.278        0.032       70.139       12.093        0.030      341.299       15.916      859.871
11/17/2013  16:13:00      -68.828      -11.837       -3.440       15.535       14.461        9.657      241.327      209.133       93.266        0.272        0.027       69.838        5.997        0.007      341.251       15.836      859.871
11/17/2013  16:14:00      -76.651      -29.739       -2.830       16.102       15.110        8.431      259.284      228.322       71.078        0.366        0.028       82.218        7.029        0.007      341.311       15.935      859.861
11/17/2013  16:15:00      -66.449       -4.548      -10.044       15.809       11.243       10.046      249.914      126.401      100.927        0.251        0.024       66.604        6.381        0.009      341.190       15.728      859.862
11/17/2013  16:16:00      -47.274      -12.301       -1.747       19.918       19.650       11.863      396.722      386.139      140.731        0.166        0.046       48.848       10.907        0.050      341.361       16.020      859.865
11/17/2013  16:17:00      -67.421      -33.015       -8.791        7.964        7.809        7.153       63.432       60.982       51.164        0.294        0.009       75.070        4.936        0.004      341.163       15.684      859.875
11/17/2013  16:18:00      -52.950      -31.439       -0.819       20.399       16.299        9.353      416.131      265.668       87.474        0.228        0.038       61.580        7.596        0.015      341.186       15.723      859.880
11/17/2013  16:19:00      -36.261      -36.664        6.963       23.262       16.388       10.505      541.130      268.558      110.351        0.181        0.046       51.567       13.489        0.068      341.139       15.644      859.882
11/17/2013  16:20:00      -22.227      -16.044        6.383       21.334       12.129        7.937      455.121      147.111       62.990        0.073        0.033       27.413        8.651        0.100      341.046       15.487      859.888
11/17/2013  16:21:00      -15.348      -15.864        4.795       17.851       12.228        9.437      318.657      149.527       89.060        0.053        0.028       22.073        5.154        0.055      341.098       15.576      859.886
11/17/2013  16:22:00      -14.802      -16.140        4.349       19.513       12.536       10.352      380.771      157.158      107.162        0.057        0.032       21.899       10.781        0.242      341.094       15.569      859.883
11/17/2013  16:23:00        8.103      -11.773       -0.066        6.493        5.195        5.485       42.162       26.991       30.085        0.015        0.005       14.292        4.301        0.091      341.057       15.508      859.879
11/17/2013  16:24:00      -26.813        5.498       -4.050       10.261       11.401        6.269      105.284      129.990       39.295        0.052        0.014       27.371        5.854        0.046      341.112       15.597      859.874
11/17/2013  16:25:00      -26.159       -2.442        9.290       11.210       13.328        8.937      125.667      177.631       79.871        0.058        0.019       26.273        6.763        0.066      341.057       15.504      859.863
11/17/2013  16:26:00      -12.738      -11.761       -0.441       11.674        8.512        5.067      136.288       72.458       25.675        0.027        0.012       17.337        3.155        0.033      341.119       15.612      859.851
11/17/2013  16:27:00        2.624       -8.401       -4.755        6.053        7.563        4.668       36.639       57.206       21.786        0.011        0.006        8.801        4.542        0.266      341.100       15.578      859.839
11/17/2013  16:28:00      -28.793      -12.706       -6.486        7.145        7.609        9.777       51.049       57.904       95.593        0.062        0.010       31.472        2.908        0.009      341.150       15.662      859.839
11/17/2013  16:29:00      -28.387      -16.700       -0.139       11.898       10.672       10.915      141.563      113.892      119.131        0.073        0.019       32.935        9.631        0.086      341.157       15.674      859.837
11/17/2013  16:30:00      -31.381      -14.311       -0.545       13.581       13.124        8.799      184.434      172.228       77.417        0.081        0.022       34.490        7.322        0.045      341.027       15.455      859.835
11/17/2013  16:31:00      -26.844       -8.939        3.219       12.407        9.157        6.791      153.928       83.854       46.124        0.055        0.014       28.293        5.617        0.039      340.904       15.247      859.837
11/17/2013  16:32:00      -36.838       -7.137       -7.245        7.070        7.883        5.661       49.992       62.141       32.048        0.080        0.007       37.523        2.339        0.004      340.923       15.280      859.846
11/17/2013  16:33:00      -44.012       -9.624       -6.460        6.580        8.792        5.898       43.295       77.297       34.783        0.111        0.008       45.052        4.738        0.011      340.929       15.290      859.863
11/17/2013  16:34:00      -55.333      -15.846       -9.008        5.628        6.554        6.245       31.672       42.959       38.998        0.175        0.006       57.557        3.560        0.004      340.880       15.207      859.861
11/17/2013  16:35:00      -50.618      -22.386       -7.878        8.238        6.355        8.090       67.866       40.388       65.442        0.165        0.009       55.347        4.739        0.007      340.777       15.031      859.857
11/17/2013  16:36:00      -44.782      -15.924      -10.533        6.367        8.335        6.811       40.536       69.467       46.384        0.126        0.008       47.529        4.142        0.008      340.659       14.830      859.859
11/17/2013  16:37:00      -30.820      -25.279       -2.294       17.117       10.343        8.964      292.978      106.972       80.361        0.104        0.024       39.861        5.979        0.022      340.631       14.785      859.873
11/17/2013  16:38:00      -55.599      -27.157       -7.515       19.712        8.896        7.371      388.556       79.135       54.335        0.220        0.026       61.877        4.398        0.005      340.519       14.593      859.875
11/17/2013  16:39:00      -73.053      -31.462       -4.387       16.747       13.076       12.042      280.448      170.980      145.010        0.347        0.030       79.540        7.955        0.010      340.392       14.382      859.877
11/17/2013  16:40:00      -84.012      -35.355       -5.513       12.445       23.364        7.823      154.868      545.854       61.196        0.455        0.038       91.148        1.342        0.000      340.595       14.724      859.885
11/17/2013  16:41:00      -79.267      -33.844       -5.329       15.952       14.580       13.701      254.457      212.565      187.712        0.406        0.033       86.189        8.434        0.010      340.655       14.826      859.869
11/17/2013  16:42:00      -65.231      -25.825       -4.127       22.190       17.249       12.280      492.400      297.535      150.797        0.294        0.047       70.157       11.483        0.027      340.523       14.603      859.862
11/17/2013  16:43:00      -48.957      -19.157       -3.356       22.732       18.376       14.552      516.731      337.688      211.765        0.192        0.053       52.571       15.213        0.084      340.471       14.513      859.867
11/17/2013  16:44:00      -40.816      -21.452        0.216       19.963       19.143        9.961      398.535      366.447       99.228        0.150        0.043       46.110        7.625        0.027      340.316       14.253      859.862
11/17/2013  16:45:00      -69.865      -17.632       -1.506       23.527       19.974       10.241      553.540      398.976      104.888        0.313        0.053       72.056       10.605        0.022      340.271       14.175      859.869
11/17/2013  16:46:00      -49.063      -24.486        3.781       18.734       18.642       14.599      350.948      347.515      213.117        0.197        0.046       54.834       11.041        0.041      340.166       14.000      859.887
11/17/2013  16:47:00      -77.029      -15.382       -0.799       22.963       19.676       15.674      527.278      387.150      245.688        0.367        0.058       78.550       15.138        0.037      340.101       13.889      859.900
11/17/2013  16:48:00      -92.951      -23.291       -1.491       17.542       19.485       12.499      307.737      379.667      156.223        0.501        0.042       95.825        8.330        0.008      340.100       13.888      859.919
11/17/2013  16:49:00      -93.253      -27.286       -2.636       19.843       16.011       16.018      393.763      256.361      256.586        0.518        0.045       97.163       12.954        0.018      340.005       13.727      859.923
11/17/2013  16:50:00      -81.605      -39.148       -2.601       25.589       22.503       16.794      654.790      506.367      282.053        0.482        0.072       90.509       14.620        0.026      339.903       13.556      859.928
11/17/2013  16:51:00     -105.831      -26.294       -7.740       16.868       15.583       11.474      284.531      242.832      131.659        0.631        0.033      109.048        6.887        0.004      339.931       13.604      859.941
11/17/2013  16:52:00      -92.065      -16.103       -2.412       28.491       24.149       13.114      811.746      583.158      171.970        0.515        0.078       93.463       12.889        0.019      339.793       13.370      859.943
11/17/2013  16:53:00      -76.874      -24.792        0.257       28.441       17.071       17.680      808.913      291.414      312.568        0.397        0.071       80.773       13.447        0.028      339.782       13.351      859.957
11/17/2013  16:54:00      -84.604      -32.441       -2.398       20.675       27.386       10.280      427.446      750.015      105.674        0.475        0.064       90.610        5.052        0.003      339.843       13.454      859.964
11/17/2013  16:55:00      -78.359      -81.803       -7.881       23.136       39.341       13.547      535.264     1547.677      183.528        0.758        0.113      113.277       10.667        0.009      340.063       13.824      859.976
11/17/2013  16:56:00      -90.544      -82.544       -4.966       29.825       39.548       21.780      889.557     1564.072      474.387        0.898        0.146      122.522       18.580        0.023      340.160       13.989      859.971
11/17/2013  16:57:00      -79.394     -113.662       -8.358       42.160       46.158       26.499     1777.489     2130.582      702.193        1.195        0.231      138.645       24.740        0.032      340.289       14.206      859.968
11/17/2013  16:58:00      -99.991     -102.669       -9.858       38.354       32.509       18.364     1470.997     1056.822      337.232        1.175        0.143      143.315       16.877        0.014      340.247       14.135      859.966
11/17/2013  16:59:00      -86.268      -67.295        0.967       29.243       23.659       20.841      855.166      559.748      434.331        0.691        0.092      109.411       14.712        0.018      340.144       13.962      859.958
11/17/2013  17:00:00      -95.153      -65.352       -8.160       24.778       28.191       16.415      613.969      794.742      269.465        0.753        0.084      115.434       11.352        0.010      340.044       13.793      859.966
11/17/2013  17:01:00      -76.815      -69.194        4.038       35.093       33.532       21.302     1231.539     1124.369      453.783        0.676        0.140      103.384       21.095        0.042      340.001       13.720      859.979
11/17/2013  17:02:00     -106.297      -86.740       -4.848       32.157       28.785       16.142     1034.099      828.604      260.562        1.048        0.106      137.197       15.786        0.013      340.078       13.850      859.991
11/17/2013  17:03:00      -84.875      -60.464       -2.643       27.194       20.204       18.023      739.523      408.194      324.823        0.617        0.074      104.209       14.477        0.019      339.941       13.619      860.007
11/17/2013  17:04:00      -73.010      -50.075        5.230       27.173       19.989       16.056      738.353      399.549      257.785        0.463        0.070       88.533       13.101        0.022      339.842       13.452      860.012
11/17/2013  17:05:00      -82.812      -41.688        4.131       25.587       25.110       15.882      654.682      630.506      252.223        0.507        0.077       92.713       13.266        0.020      339.797       13.376      860.013
11/17/2013  17:06:00      -80.796      -44.957       -3.813       19.347       12.692       11.092      374.302      161.089      123.041        0.461        0.033       92.462        7.870        0.007      339.744       13.287      860.016
11/17/2013  17:07:00     -100.632      -43.296       -5.112       17.745       18.647       12.329      314.897      347.697      152.008        0.642        0.041      109.551        9.916        0.008      339.734       13.270      860.024
11/17/2013  17:08:00      -89.244      -34.547       -3.448       19.204       23.278       11.786      368.779      541.886      138.909        0.511        0.052       95.698        9.472        0.010      339.686       13.190      860.020
11/17/2013  17:09:00      -43.925      -15.228        6.403       29.195       20.234       15.466      852.322      409.402      239.191        0.185        0.075       46.489       14.747        0.101      339.479       12.840      860.029
11/17/2013  17:10:00      -83.179      -25.691        5.663       28.988       23.083       16.589      840.298      532.824      275.182        0.463        0.082       87.056       15.290        0.031      339.561       12.979      860.033
11/17/2013  17:11:00      -55.808       -8.523        5.275       34.768       26.528       16.379     1208.783      703.749      268.257        0.270        0.109       56.455       17.010        0.091      339.477       12.838      860.031
11/17/2013  17:12:00      -42.750      -15.579        3.863       32.714       20.713       15.090     1070.195      429.047      227.709        0.191        0.086       45.500       16.381        0.130      339.349       12.621      860.031
11/17/2013  17:13:00      -53.026      -14.341        1.718       21.728       20.400       14.614      472.114      416.177      213.578        0.206        0.055       54.931       11.633        0.045      339.330       12.589      860.032
11/17/2013  17:14:00      -49.241      -13.052        2.181       17.993       13.838       11.690      323.741      191.498      136.652        0.163        0.033       50.941       10.478        0.042      339.358       12.636      860.036
11/17/2013  17:15:00      -64.259      -11.100       -2.588       14.823       12.339        9.352      219.731      152.256       87.464        0.236        0.023       65.210        7.687        0.014      339.335       12.599      860.039
11/17/2013  17:16:00      -51.468      -10.995        1.022       16.528       16.137       10.050      273.164      260.408      101.005        0.170        0.032       52.629        7.489        0.020      339.296       12.532      860.043
11/17/2013  17:17:00      -53.407       -9.068        4.206       26.070       12.228        9.802      679.652      149.529       96.075        0.194        0.046       54.171       13.404        0.061      339.199       12.369      860.052
11/17/2013  17:18:00      -71.419      -14.418       -1.744       21.415       14.763        9.984      458.622      217.933       99.675        0.304        0.039       72.860       10.723        0.022      339.098       12.199      860.073
11/17/2013  17:19:00      -79.628      -23.248       -3.582       15.747       19.246       11.017      247.963      370.400      121.367        0.382        0.037       82.953        9.755        0.014      338.973       11.990      860.093
11/17/2013  17:20:00      -99.285      -13.821       -7.963       18.994       20.857       12.063      360.782      435.012      145.512        0.553        0.047      100.243        8.425        0.007      338.900       11.864      860.112
11/17/2013  17:21:00      -98.131      -13.432      -11.624       28.359       25.429       18.188      804.211      646.626      330.795        0.586        0.089       99.046       12.065        0.015      338.859       11.797      860.133
11/17/2013  17:22:00      -79.062      -19.457       -7.969       32.246       30.152       22.163     1039.796      909.167      491.213        0.457        0.122       81.421       18.864        0.054      338.857       11.794      860.149
11/17/2013  17:23:00      -64.173       -4.501       -7.603       38.161       24.400       20.375     1456.276      595.356      415.132        0.333        0.123       64.331       17.470        0.074      338.805       11.707      860.161
11/17/2013  17:24:00      -77.104        9.894      -12.939       32.196       33.319       20.694     1036.570     1110.124      428.255        0.439        0.129       77.736       17.357        0.050      338.990       12.017      860.178
11/17/2013  17:25:00      -81.947       30.415       -6.114       37.395       25.570       18.640     1398.373      653.831      347.461        0.504        0.120       87.409       17.519        0.040      339.113       12.223      860.189
11/17/2013  17:26:00     -101.293       25.256       -6.053       26.234       24.056       16.658      688.228      578.688      277.505        0.624        0.077      104.394       10.985        0.011      339.190       12.354      860.198
11/17/2013  17:27:00     -108.012       12.618       -8.483       49.526       17.416       14.161     2452.799      303.328      200.546        0.743        0.148      108.746       15.107        0.019      339.150       12.283      860.228
11/17/2013  17:28:00      -80.559      -17.015        1.575       31.090       26.667       19.844      966.609      711.106      393.791        0.443        0.104       82.336       17.070        0.043      339.026       12.078      860.257
11/17/2013  17:29:00     -117.737       -6.108      -10.758       54.054       32.334       22.870     2921.798     1045.510      523.045        0.925        0.225      117.895       23.427        0.039      338.866       11.810      860.291
11/17/2013  17:30:00     -127.768       -5.334       -4.596       49.705       36.980       30.306     2470.598     1367.528      918.439        1.056        0.238      127.879       29.143        0.052      338.706       11.540      860.323
11/17/2013  17:31:00     -128.484        5.232      -12.736       48.889       26.964       21.377     2390.128      727.034      456.974        1.014        0.179      128.591       21.975        0.029      338.651       11.445      860.358
11/17/2013  17:32:00     -146.370      -14.457      -12.427       19.712       21.505       14.395      388.553      462.469      207.209        1.142        0.053      147.083       11.863        0.007      338.576       11.321      860.382
11/17/2013  17:33:00     -132.218      -23.741       -5.149       32.107       27.183       18.304     1030.866      738.908      335.023        1.009        0.105      134.333       19.094        0.020      338.546       11.270      860.391
11/17/2013  17:34:00     -112.989      -20.384       -1.199       38.268       22.739       15.535     1464.418      517.062      241.328        0.770        0.111      114.813       14.020        0.015      338.457       11.123      860.395
11/17/2013  17:35:00     -131.000      -11.616       -4.483       37.412       29.998       23.684     1399.626      899.855      560.925        1.009        0.143      131.514       20.706        0.025      338.538       11.258      860.392
11/17/2013  17:36:00     -150.311       -8.335       -8.831       41.964       19.036       25.273     1760.953      362.384      638.710        1.275        0.138      150.542       23.057        0.023      338.529       11.243      860.401
11/17/2013  17:37:00     -132.931       -9.190       -4.599       30.882       22.757       18.265      953.723      517.868      333.594        0.979        0.090      133.249       16.344        0.015      338.422       11.062      860.414
11/17/2013  17:38:00     -138.829      -11.332      -12.260       27.750       20.420       18.507      770.070      416.981      342.494        1.054        0.076      139.291       15.791        0.013      338.368       10.972      860.426
11/17/2013  17:39:00     -146.959       -3.981       -9.865       21.377       19.572       11.917      456.992      383.070      142.005        1.135        0.049      147.013       10.496        0.005      338.441       11.094      860.435
11/17/2013  17:40:00     -119.621      -11.642       -3.600       33.996       23.226       18.195     1155.732      539.434      331.061        0.824        0.101      120.186       17.576        0.021      338.417       11.054      860.457
11/17/2013  17:41:00     -150.873        2.962      -11.272       30.184       17.810       15.904      911.082      317.188      252.928        1.219        0.074      150.902       16.932        0.013      338.408       11.039      860.477
11/17/2013  17:42:00     -119.114        0.241      -10.296       46.606       30.551       21.749     2172.149      933.369      473.009        0.894        0.179      119.114       23.656        0.039      338.416       11.052      860.507
11/17/2013  17:43:00     -132.971        0.684       -7.097       50.343       34.208       25.008     2534.439     1170.214      625.410        1.103        0.217      132.973       20.066        0.023      338.418       11.057      860.541
11/17/2013  17:44:00     -135.805       -2.030       -5.713       41.077       31.387       23.922     1687.339      985.133      572.274        1.086        0.162      135.820       21.278        0.025      338.352       10.946      860.560
11/17/2013  17:45:00     -134.508       -1.577      -13.826       40.286       24.450       19.285     1622.990      597.781      371.916        1.044        0.130      134.517       21.258        0.025      338.295       10.848      860.586
11/17/2013  17:46:00     -154.130       20.114      -11.043       28.096       24.185       16.721      789.403      584.911      279.587        1.297        0.083      155.437        6.157        0.002      338.275       10.817      860.605
11/17/2013  17:47:00     -147.384       11.021      -13.337       31.154       29.659       20.530      970.544      879.645      421.490        1.215        0.114      147.796       17.060        0.013      338.266       10.802      860.617
11/17/2013  17:48:00     -169.477       16.193      -16.824       21.211       24.326       14.198      449.894      591.749      201.578        1.526        0.062      170.249        7.404        0.002      338.235       10.749      860.638
11/17/2013  17:49:00     -148.016        0.684      -17.163       41.422       33.245       24.934     1715.748     1105.200      621.716        1.282        0.172      148.018       23.241        0.025      338.243       10.763      860.655
11/17/2013  17:50:00     -164.636      -11.304      -23.889       41.136       31.451       20.539     1692.148      989.178      421.856        1.545        0.155      165.023       19.241        0.014      338.212       10.709      860.673
11/17/2013  17:51:00     -178.985       -3.904      -13.089       38.018       32.709       24.224     1445.350     1069.890      586.797        1.766        0.155      179.027       24.920        0.019      338.186       10.665      860.694
11/17/2013  17:52:00     -107.941      -15.197       -8.267       53.189       34.299       22.902     2829.084     1176.411      524.495        0.824        0.226      109.005       23.558        0.047      338.136       10.581      860.726
11/17/2013  17:53:00     -162.469      -38.373      -19.492       34.998       36.237       25.708     1224.850     1313.151      660.923        1.572        0.160      166.939       20.729        0.015      338.095       10.513      860.755
11/17/2013  17:54:00     -157.539      -26.106      -12.837       38.967       51.714       30.664     1518.443     2674.319      940.253        1.540        0.257      159.687       26.661        0.028      338.090       10.505      860.772
11/17/2013  17:55:00     -134.071      -30.630      -11.307       43.582       49.921       22.840     1899.358     2492.092      521.670        1.198        0.246      137.526       17.831        0.017      338.103       10.527      860.788
11/17/2013  17:56:00     -125.537      -53.686      -10.567       32.618       30.860       20.490     1063.966      952.337      419.859        1.059        0.122      136.535       17.839        0.017      338.165       10.629      860.798
11/17/2013  17:57:00      -96.384      -42.402       -5.742       31.761       36.178       24.028     1008.756     1308.872      577.359        0.701        0.145      105.299       21.190        0.040      338.125       10.563      860.806
11/17/2013  17:58:00     -114.979      -26.153      -15.889       35.843       25.161       19.095     1284.754      633.087      364.628        0.822        0.114      117.915       19.687        0.028      338.105       10.531      860.812
11/17/2013  17:59:00     -141.072       -8.793      -16.142       17.146       15.032       10.283      293.985      225.974      105.747        1.043        0.031      141.346        6.466        0.002      338.131       10.573      860.826
11/17/2013  18:00:00     -150.734       -3.923      -22.867       13.141       13.349       10.712      172.692      178.204      114.756        1.186        0.023      150.785        5.394        0.001      338.175       10.648      860.829
11/17/2013  18:01:00     -134.812       -7.864      -11.279       29.429       22.889       15.161      866.083      523.901      229.871        0.999        0.081      135.041       12.160        0.008      338.179       10.654      860.836
11/17/2013  18:02:00     -111.029      -19.071       -2.415       36.699       24.958       20.676     1346.797      622.886      427.502        0.755        0.120      112.655       20.295        0.032      338.151       10.608      860.852
11/17/2013  18:03:00     -136.001       -1.755      -19.247       16.042       17.730       10.938      257.344      314.361      119.641        0.978        0.035      136.012        7.533        0.003      338.144       10.596      860.856
11/17/2013  18:04:00     -143.899      -22.016      -12.042       37.849       30.459       17.274     1432.565      927.744      298.374        1.200        0.133      145.574       17.055        0.014      338.132       10.575      860.871
11/17/2013  18:05:00     -164.576        0.943      -18.872       40.182       32.596       21.330     1614.605     1062.469      454.948        1.529        0.157      164.579       17.059        0.011      338.067       10.464      860.890
11/17/2013  18:06:00     -209.428       28.551      -30.308       25.637       30.013       21.178      657.248      900.807      448.500        2.380        0.100      211.366       17.125        0.007      338.049       10.436      860.902
11/17/2013  18:07:00     -191.504       17.282      -21.914       30.950       26.793       22.085      957.887      717.874      487.733        1.981        0.108      192.282       12.390        0.004      337.983       10.324      860.912
11/17/2013  18:08:00     -176.922       -6.096      -18.956       51.859       32.152       24.759     2689.397     1033.778      612.993        1.802        0.217      177.027       24.675        0.019      337.955       10.280      860.923
11/17/2013  18:09:00     -145.540      -12.294      -12.332       51.298       42.391       27.890     2631.487     1796.956      777.852        1.334        0.260      146.058       27.082        0.034      337.905       10.195      860.932
11/17/2013  18:10:00     -132.106       -0.999      -18.163       33.048       29.911       18.050     1092.137      894.687      325.804        1.005        0.116      132.110       14.611        0.012      337.890       10.169      860.933
11/17/2013  18:11:00      -76.559       -8.818       -3.024       52.499       28.147       22.389     2756.104      792.233      501.264        0.500        0.202       77.065       25.092        0.106      337.853       10.107      860.949
11/17/2013  18:12:00      -55.531       -3.269        1.668       46.930       22.782       15.460     2202.420      518.999      239.002        0.303        0.148       55.627       12.169        0.048      337.780        9.985      860.967
11/17/2013  18:13:00       19.990        1.206       -2.380       14.534       13.708       12.810      211.225      187.901      164.084        0.048        0.028       20.026       11.756        0.345      337.903       10.191      860.978
11/17/2013  18:14:00       -5.798        5.065       -3.913        7.385       14.763       10.951       54.540      217.960      119.927        0.023        0.020        7.698        8.227        1.142      337.905       10.194      860.989
11/17/2013  18:15:00       -5.472       -5.112       -4.528       15.633        9.420        8.482      244.380       88.735       71.941        0.024        0.020        7.488        6.459        0.744      337.951       10.273      860.986
11/17/2013  18:16:00      -28.349      -21.485       -7.129       12.953       21.097       15.651      167.779      445.074      244.946        0.109        0.043       35.570        8.681        0.060      338.071       10.475      860.983
11/17/2013  18:17:00      -34.672      -25.423       -8.115       19.243       21.088        9.778      370.294      444.711       95.617        0.141        0.046       42.994        8.387        0.038      338.160       10.621      860.987
11/17/2013  18:18:00      -41.936       -9.846      -10.101       19.668       10.867        8.594      386.818      118.084       73.849        0.127        0.029       43.076        5.252        0.015      338.013       10.376      860.987
11/17/2013  18:19:00      -13.382      -14.181       -3.888       20.518       10.291        7.058      420.976      105.901       49.811        0.049        0.029       19.498        5.191        0.071      338.316       10.885      860.983
11/17/2013  18:20:00      -41.776      -13.978       -5.356       10.033       14.770        7.162      100.666      218.164       51.298        0.117        0.019       44.052        5.407        0.015      338.091       10.504      860.980
11/17/2013  18:21:00      -59.878       -1.695       -9.193       13.153       14.041        6.271      173.002      197.140       39.331        0.204        0.020       59.902        6.232        0.011      338.037       10.415      860.996
11/17/2013  18:22:00      -50.753      -12.415       -9.948       12.438       24.239        8.463      154.700      587.520       71.615        0.182        0.041       52.249       10.489        0.040      338.418       11.056      861.005
11/17/2013  18:23:00      -61.046      -25.675      -10.879       14.012       21.631        7.740      196.330      467.884       59.912        0.261        0.036       66.226        9.059        0.019      338.275       10.815      861.025
11/17/2013  18:24:00     -133.112      -20.360       -8.920       39.019       24.331       19.032     1522.460      592.013      362.217        1.034        0.124      134.660       18.411        0.019      338.045       10.430      861.047
11/17/2013  18:25:00      -74.527      -14.607       -6.019       18.377       19.040        8.027      337.730      362.539       64.439        0.328        0.038       75.945        5.697        0.006      338.115       10.548      861.056
11/17/2013  18:26:00      -41.580       -2.047       -8.263       22.221       10.066        9.489      493.795      101.315       90.045        0.124        0.034       41.631       12.361        0.088      338.833       11.752      861.059
11/17/2013  18:27:00      -47.616      -25.660      -11.394       13.629       15.320        8.893      185.761      234.696       79.082        0.178        0.025       54.090        6.889        0.016      338.438       11.091      861.061
11/17/2013  18:28:00      -56.151      -30.896       -2.089       18.196       20.163       11.093      331.086      406.548      123.061        0.249        0.043       64.089       11.233        0.031      338.323       10.898      861.082
11/17/2013  18:29:00      -64.244       92.162      -21.822       46.022       55.419       32.377     2118.056     3071.272     1048.280        0.967        0.312      112.344       37.149        0.109      338.992       12.020      861.098
11/17/2013  18:30:00      -69.991       30.121       -3.214       25.466       27.502       22.698      648.497      756.364      515.198        0.387        0.096       76.197       16.453        0.047      338.753       11.618      861.137
11/17/2013  18:31:00      -93.529       13.811       -9.332       22.675       28.864       15.729      514.169      833.113      247.390        0.531        0.080       94.543        9.006        0.009      338.725       11.572      861.165
11/17/2013  18:32:00     -148.291      114.771      -34.826       58.983       68.473       36.532     3479.018     4688.499     1334.567        2.294        0.475      187.517       39.863        0.045      339.098       12.198      861.195
11/17/2013  18:33:00     -124.691      177.972      -38.694       52.634       60.779       35.007     2770.372     3694.062     1225.476        2.820        0.384      217.306       36.450        0.028      339.310       12.552      861.210
11/17/2013  18:34:00      -83.274      187.543      -29.521       47.574       57.734       32.842     2263.300     3333.212     1078.588        2.483        0.334      205.200       29.682        0.021      339.306       12.546      861.213
11/17/2013  18:35:00      -65.182      172.558      -18.746       47.138       54.863       32.759     2221.950     3009.959     1073.147        2.034        0.315      184.459       33.096        0.032      339.461       12.809      861.221
11/17/2013  18:36:00     -106.944      116.765      -16.785       60.077       80.630       32.038     3609.281     6501.222     1026.421        1.824        0.557      158.338       28.917        0.033      339.465       12.816      861.203
11/17/2013  18:37:00      -65.998      114.084      -20.635       33.529       31.891       21.205     1124.225     1017.039      449.656        1.019        0.130      131.799       15.575        0.014      339.548       12.957      861.202
11/17/2013  18:38:00        1.265      107.604       -4.289       27.302       70.479       25.569      745.398     4967.336      653.768        0.898        0.318      107.612       33.737        0.098      339.300       12.538      861.196
11/17/2013  18:39:00      -24.152      214.037      -24.687       40.221       46.363       22.679     1617.693     2149.484      514.335        2.564        0.214      215.395       20.228        0.009      339.219       12.400      861.190
11/17/2013  18:40:00       11.577      244.833      -32.989       46.721       57.767       26.732     2182.860     3336.979      714.622        3.370        0.312      245.106       27.618        0.013      339.116       12.226      861.173
11/17/2013  18:41:00      -11.272      174.650      -21.723       33.548       42.529       26.044     1125.444     1808.733      678.308        1.736        0.181      175.013       17.678        0.010      339.002       12.036      861.162
11/17/2013  18:42:00      -45.251       81.309      -12.165       22.626       42.630       18.193      511.934     1817.331      330.987        0.573        0.133       93.052       17.009        0.033      339.031       12.087      861.164
11/17/2013  18:43:00      -33.667       -9.162        4.429       32.508       28.444       23.080     1056.778      809.037      532.684        0.182        0.120       34.892       22.203        0.405      338.996       12.027      861.163
11/17/2013  18:44:00      -30.777      -10.142        2.863       46.400       52.814       30.686     2152.962     2789.344      941.610        0.347        0.294       32.404       28.814        0.791      338.974       11.989      861.152
11/17/2013  18:45:00      -72.315      -11.714       -9.426       34.436       35.368       28.745     1185.825     1250.927      826.302        0.436        0.163       73.258       15.915        0.047      338.939       11.932      861.146
11/17/2013  18:46:00      -56.824       15.162       -3.203       42.783       38.624       27.564     1830.358     1491.815      759.791        0.377        0.204       58.812       18.775        0.102      338.864       11.805      861.146
11/17/2013  18:47:00      -77.084       31.579       -8.810       29.701       55.071       23.488      882.154     3032.844      551.707        0.574        0.223       83.302        8.535        0.010      338.793       11.686      861.143
11/17/2013  18:48:00      -77.356      -40.354       -1.815       40.879       25.754       18.670     1671.065      663.288      348.568        0.515        0.134       87.249       15.316        0.031      338.824       11.736      861.137
11/17/2013  18:49:00        0.943      -58.242       -3.417       26.212       25.798       22.945      687.069      665.530      526.472        0.264        0.094       58.250       20.677        0.126      338.837       11.760      861.132
11/17/2013  18:50:00      -24.316      -32.343       -5.763       18.531       38.699       15.944      343.391     1497.626      254.224        0.188        0.105       40.464        6.923        0.029      338.693       11.517      861.148
11/17/2013  18:51:00      -63.961     -121.255       -5.943       44.161       58.562       22.173     1950.153     3429.489      491.624        1.235        0.294      137.090       22.308        0.026      338.504       11.199      861.159
11/17/2013  18:52:00     -102.711      -84.161       -0.513       55.011       52.652       31.780     3026.155     2772.236     1009.953        1.222        0.340      132.788       22.196        0.028      338.373       10.979      861.166
11/17/2013  18:53:00     -116.736     -168.650       -6.536       47.509       50.936       28.956     2257.142     2594.512      838.430        2.390        0.285      205.110       25.768        0.016      338.430       11.073      861.197
11/17/2013  18:54:00     -102.930     -135.642      -14.437       50.301       55.073       24.926     2530.226     3033.061      621.305        1.769        0.309      170.275       23.783        0.020      338.484       11.168      861.229
11/17/2013  18:55:00      -75.445      -71.993        3.932       54.562       33.374       25.658     2977.036     1113.794      658.356        0.782        0.237      104.283       22.367        0.046      338.362       10.961      861.260
11/17/2013  18:56:00      -58.811     -105.286        9.868       40.577       41.883       25.849     1646.468     1754.176      668.168        0.935        0.203      120.598       29.106        0.058      338.471       11.144      861.287
11/17/2013  18:57:00      -75.524      -56.514        1.600       58.902       28.655       23.939     3469.431      821.134      573.059        0.688        0.243       94.328       22.484        0.057      338.257       10.785      861.307
11/17/2013  18:58:00     -116.091      -98.082       -3.571       58.955       50.307       31.652     3475.681     2530.774     1001.866        1.506        0.350      151.977       36.339        0.057      338.323       10.895      861.325
11/17/2013  18:59:00      -66.232      -71.254       10.702       70.211       40.910       25.162     4929.590     1673.655      633.124        0.841        0.362       97.282       23.533        0.059      338.222       10.728      861.338
11/17/2013  19:00:00      -77.101      -64.183        4.375       51.870       45.180       24.966     2690.489     2041.252      623.279        0.772        0.268      100.319       22.642        0.051      338.209       10.705      861.339
11/17/2013  19:01:00      -88.415      -56.365       -9.244       21.957       29.468       15.752      482.116      868.341      248.137        0.634        0.080      104.853       11.157        0.011      338.245       10.765      861.337
11/17/2013  19:02:00      -69.930      -15.009        4.447       24.334       18.037       12.547      592.142      325.335      157.423        0.310        0.054       71.523        8.175        0.013      338.203       10.694      861.331
11/17/2013  19:03:00      -74.775      -47.465       -0.696       24.383       15.860       10.458      594.511      251.547      109.373        0.440        0.048       88.568        7.276        0.007      338.402       11.027      861.339
11/17/2013  19:04:00      -52.098      -33.111        2.053       29.070       19.399       12.765      845.069      376.313      162.946        0.260        0.069       61.730       12.418        0.040      338.321       10.894      861.335
11/17/2013  19:05:00      -28.683      -25.434        8.618       25.621       15.778       13.646      656.416      248.944      186.226        0.132        0.055       38.335       13.250        0.119      338.273       10.812      861.344
11/17/2013  19:06:00       -6.592      -13.198        1.774       14.745       12.092       14.020      217.429      146.205      196.547        0.039        0.028       14.753       10.924        0.548      338.270       10.806      861.362
11/17/2013  19:07:00       25.770        2.358        5.497       22.009       13.743        8.124      484.393      188.857       65.993        0.072        0.037       25.878        6.568        0.064      338.306       10.869      861.366
11/17/2013  19:08:00       38.926       23.672        9.517       13.330       15.173       12.966      177.694      230.224      168.115        0.137        0.029       45.559        7.929        0.030      338.296       10.851      861.368
11/17/2013  19:09:00       34.991       22.234       22.651       18.796       21.895       16.231      353.301      479.379      263.456        0.166        0.055       41.457       14.191        0.117      338.158       10.619      861.364
11/17/2013  19:10:00       15.628       24.428       28.126       14.750       12.812       11.546      217.567      164.156      133.308        0.107        0.026       28.999        7.847        0.073      338.162       10.625      861.371
11/17/2013  19:11:00       38.222       17.381       16.012       26.235       15.989       17.384      688.249      255.655      302.215        0.163        0.062       41.988       15.290        0.133      338.385       11.001      861.378
11/17/2013  19:12:00       77.624       34.572       17.889       15.168       17.780       13.665      230.065      316.114      186.734        0.414        0.037       84.975        6.159        0.005      338.587       11.338      861.372
11/17/2013  19:13:00      -13.598       16.401       -5.626       27.137       15.204       14.671      736.421      231.147      215.233        0.083        0.059       21.305       15.621        0.538      338.575       11.320      861.360
11/17/2013  19:14:00       -5.847       -0.442        0.682        6.339       10.313        6.966       40.180      106.353       48.531        0.011        0.010        5.864        5.457        0.866      338.475       11.152      861.360
11/17/2013  19:15:00       -5.633      -10.884        2.532        4.725        5.204        5.963       22.328       27.083       35.560        0.012        0.004       12.255        3.532        0.083      338.453       11.113      861.350
11/17/2013  19:16:00      -27.580        2.745       -3.640        9.277       13.197        4.950       86.070      174.165       24.503        0.053        0.014       27.717        6.136        0.049      338.378       10.989      861.347
11/17/2013  19:17:00        0.348       -2.456       -4.032       14.736       18.228       10.031      217.161      332.253      100.628        0.034        0.033        2.481        9.331       14.149      338.490       11.175      861.352
11/17/2013  19:18:00       26.676        0.630        8.567       12.270       10.932       11.350      150.549      119.512      128.832        0.059        0.020       26.683        8.165        0.094      338.464       11.132      861.361
11/17/2013  19:19:00       24.292       11.657       -5.230       15.613       13.631       10.467      243.772      185.818      109.556        0.065        0.027       26.944        4.885        0.033      338.439       11.091      861.356
11/17/2013  19:20:00       38.477       10.675        6.482       18.620        8.969       14.345      346.722       80.442      205.787        0.113        0.032       39.931       14.088        0.124      338.430       11.076      861.353
11/17/2013  19:21:00       32.525        6.053        5.191       17.842       12.490       12.170      318.352      156.009      148.116        0.087        0.031       33.084       11.229        0.115      338.441       11.095      861.346
11/17/2013  19:22:00        9.606       19.078       22.844       17.844       10.773       15.199      318.407      116.052      231.020        0.082        0.033       21.360       13.815        0.418      338.431       11.078      861.350
11/17/2013  19:23:00       -1.654       29.541       42.231       16.783       20.619       18.268      281.675      425.144      333.712        0.185        0.052       29.587       12.854        0.189      338.128       10.570      861.354
11/17/2013  19:24:00        4.569       17.965       23.627       24.334       21.289       16.154      592.146      453.204      260.965        0.110        0.065       18.537        8.297        0.200      337.904       10.192      861.358
11/17/2013  19:25:00      -35.083       10.339        8.453       17.780       13.429       13.303      316.122      180.351      176.970        0.104        0.034       36.575       11.875        0.105      337.883       10.159      861.351
11/17/2013  19:26:00      -62.119      -12.390       -7.346       11.242       15.428        6.958      126.378      238.032       48.419        0.224        0.021       63.343        3.812        0.004      337.946       10.263      861.353
11/17/2013  19:27:00      -62.733        3.290       -3.286       15.168       10.316       10.226      230.075      106.427      104.580        0.220        0.022       62.819        8.704        0.019      337.761        9.953      861.378
11/17/2013  19:28:00      -53.136       -6.618       -5.123       13.577       13.325        8.558      184.322      177.544       73.248        0.166        0.022       53.547        6.748        0.016      337.845       10.094      861.405
11/17/2013  19:29:00      -66.195      -28.837       -7.031       12.061       12.420        7.966      145.463      154.247       63.453        0.281        0.018       72.204        5.006        0.005      337.825       10.061      861.420
11/17/2013  19:30:00      -68.789      -29.971       -6.572       12.295       17.368        8.979      151.155      301.640       80.624        0.310        0.027       75.035        6.404        0.007      337.814       10.041      861.443
11/17/2013  19:31:00      -87.253      -33.056       -1.165       24.900       17.047       14.141      620.003      290.604      199.972        0.491        0.056       93.305       13.896        0.022      337.624        9.723      861.472
11/17/2013  19:32:00      -60.481      -64.561        4.795       43.535       44.413       22.769     1895.303     1972.479      518.411        0.612        0.219       88.465       25.206        0.081      337.520        9.549      861.508
11/17/2013  19:33:00     -116.143      -94.011       -4.477       64.427       48.204       29.529     4150.776     2323.581      871.973        1.485        0.367      149.423       29.301        0.038      337.453        9.438      861.529
11/17/2013  19:34:00     -128.722      -53.059        5.723       64.142       37.257       31.943     4114.155     1388.049     1020.362        1.297        0.326      139.229       24.316        0.031      337.292        9.167      861.530
11/17/2013  19:35:00     -124.087      -71.627        9.183       62.002       39.989       39.561     3844.258     1599.091     1565.063        1.381        0.350      143.276       30.077        0.044      337.249        9.097      861.532
11/17/2013  19:36:00     -126.618      -62.369        7.777       59.255       47.168       31.090     3511.183     2224.829      966.594        1.334        0.335      141.145       29.556        0.044      337.225        9.055      861.541
11/17/2013  19:37:00     -117.322      -81.491       -2.606       62.812       36.772       27.930     3945.405     1352.177      780.109        1.324        0.304      142.847       24.721        0.030      337.209        9.029      861.551
11/17/2013  19:38:00     -130.689      -91.980       -8.345       45.793       47.793       30.815     2097.001     2284.146      949.588        1.547        0.267      159.812       24.202        0.023      337.201        9.015      861.560
11/17/2013  19:39:00      -77.633      -85.835        3.232       46.783       46.799       29.607     2188.639     2190.134      876.590        0.933        0.263      115.735       25.976        0.050      337.186        8.991      861.574
11/17/2013  19:40:00      -57.073      -67.692       -0.102       49.945       38.540       29.070     2494.473     1485.295      845.084        0.633        0.241       88.542       30.723        0.120      337.234        9.072      861.602
11/17/2013  19:41:00      -71.970      -67.027       -1.576       38.517       45.583       26.990     1483.532     2077.815      728.449        0.698        0.214       98.347       16.106        0.027      337.202        9.018      861.612
11/17/2013  19:42:00     -102.038      -64.883       -1.559       33.550       33.750       20.384     1125.574     1139.029      415.525        0.865        0.134      120.920       15.032        0.015      337.159        8.946      861.615
11/17/2013  19:43:00      -58.272      -54.811       -1.216       53.212       26.518       20.645     2831.479      703.218      426.226        0.518        0.198       79.999       25.014        0.098      337.157        8.943      861.630
11/17/2013  19:44:00      -55.165      -45.050        1.808       44.844       22.511       18.864     2010.954      506.748      355.865        0.397        0.144       71.223       19.268        0.073      337.137        8.909      861.634
11/17/2013  19:45:00     -116.326      -62.188       -3.940       31.268       31.420       17.764      977.704      987.187      315.545        0.985        0.114      131.906       14.698        0.012      337.169        8.962      861.626
11/17/2013  19:46:00     -106.678      -41.570      -10.949       29.520       17.545       12.240      871.457      307.816      149.812        0.728        0.066      114.491        8.585        0.006      337.223        9.053      861.634
11/17/2013  19:47:00      -97.307      -41.107       -7.907       15.664       13.935       11.741      245.376      194.185      137.839        0.590        0.029      105.634        4.610        0.002      337.204        9.019      861.626
11/17/2013  19:48:00      -91.565      -41.180       -6.190       16.947       14.374       10.196      287.207      206.618      103.956        0.536        0.030      100.399        4.458        0.002      337.224        9.054      861.631
11/17/2013  19:49:00      -94.261      -52.798       -8.101       13.992       12.115        8.906      195.766      146.763       79.318        0.608        0.021      108.041        4.015        0.001      337.190        8.998      861.645
11/17/2013  19:50:00      -82.087      -38.601        1.732       25.863       17.130       19.220      668.896      293.450      369.401        0.478        0.067       90.710       17.754        0.038      337.071        8.797      861.665
11/17/2013  19:51:00      -70.021      -33.943        6.650       44.737       21.748       14.533     2001.405      472.967      211.195        0.439        0.134       77.814       18.730        0.058      337.035        8.736      861.696
11/17/2013  19:52:00      -44.238      -33.938        3.573       44.084       23.958       16.488     1943.381      573.971      271.848        0.295        0.139       55.757       14.652        0.069      337.082        8.814      861.722
11/17/2013  19:53:00      -43.922      -17.846        4.339       41.267       14.234       13.865     1702.953      202.597      192.240        0.218        0.105       47.409       15.040        0.101      337.019        8.709      861.729
11/17/2013  19:54:00      -62.460      -34.066        5.153       34.854       17.221       13.981     1214.780      296.577      195.458        0.340        0.085       71.146       16.102        0.051      337.004        8.685      861.733
11/17/2013  19:55:00      -99.863      -36.711       -1.887       25.065       18.165       14.988      628.255      329.983      224.643        0.625        0.059      106.397       11.722        0.012      337.049        8.761      861.729
11/17/2013  19:56:00      -61.255      -46.037        1.322       42.756       36.231       20.086     1828.112     1312.701      403.428        0.471        0.177       76.626       26.283        0.118      337.031        8.730      861.703
11/17/2013  19:57:00      -99.280      -37.115       -6.401       21.195       19.919       13.907      449.237      396.761      193.412        0.616        0.052      105.991        9.357        0.008      337.102        8.848      861.686
11/17/2013  19:58:00      -54.829      -23.983        4.891       29.859       24.806       13.082      891.588      615.358      171.149        0.264        0.084       59.844       11.448        0.037      337.002        8.682      861.673
11/17/2013  19:59:00      -70.041       -9.837       -2.335       28.831       22.755       12.249      831.212      517.812      150.043        0.325        0.075       70.728       13.482        0.036      336.958        8.608      861.664
11/17/2013  20:00:00      -77.566      -21.146       -4.974       30.963       16.016       13.465      958.683      256.510      181.293        0.394        0.070       80.396       13.462        0.028      336.953        8.599      861.672
11/17/2013  20:01:00      -68.556      -32.442       -2.630       19.266       18.376       13.273      371.174      337.676      176.175        0.332        0.044       75.844        8.489        0.013      336.744        8.253      861.678
11/17/2013  20:02:00      -46.567      -13.747       -1.326       26.045       22.334       14.813      678.356      498.794      219.420        0.188        0.070       48.554       12.605        0.067      336.517        7.872      861.696
11/17/2013  20:03:00      -56.756       10.402       -4.109       36.102       25.978       18.326     1303.377      674.853      335.845        0.283        0.116       57.702       18.446        0.102      336.526        7.889      861.727
11/17/2013  20:04:00      -31.482        5.404       -5.286       28.478       26.956       16.372      811.010      726.618      268.032        0.143        0.090       31.942        7.929        0.062      336.485        7.818      861.744
11/17/2013  20:05:00      -56.372        6.900       -3.477       31.990       28.588       20.468     1023.333      817.300      418.935        0.275        0.113       56.793       18.400        0.105      336.574        7.966      861.769
11/17/2013  20:06:00      -70.033      -17.366       -5.315       27.049       39.189       17.733      731.674     1535.805      314.467        0.391        0.129       72.154       14.301        0.039      336.519        7.875      861.787
11/17/2013  20:07:00      -99.889      -37.993       -3.473       23.172       19.779       14.909      536.927      391.224      222.279        0.629        0.058      106.870       12.196        0.013      336.456        7.770      861.785
11/17/2013  20:08:00      -88.574      -35.969       -8.015       25.290       22.968       15.810      639.568      527.532      249.967        0.531        0.071       95.599       15.611        0.027      336.304        7.517      861.797
11/17/2013  20:09:00      -86.730      -28.136       -1.282       16.621       19.772       15.402      276.271      390.927      237.213        0.461        0.045       91.180       11.007        0.015      336.305        7.517      861.792
11/17/2013  20:10:00      -95.973      -34.613       -2.316       12.286       12.216        9.305      150.940      149.226       86.586        0.540        0.019      102.024        5.451        0.003      336.306        7.519      861.787
11/17/2013  20:11:00      -69.488       -9.936       -1.875       19.870       21.092        9.842      394.806      444.880       96.873        0.293        0.047       70.195        8.758        0.016      336.296        7.501      861.792
11/17/2013  20:12:00      -87.395        3.832       -6.305       26.788       16.349       15.676      717.579      267.303      245.738        0.446        0.062       87.479       16.298        0.035      336.282        7.479      861.782
11/17/2013  20:13:00     -123.255       -0.726      -13.436       16.117        9.803       10.367      259.745       96.091      107.469        0.792        0.023      123.257        5.863        0.002      336.421        7.712      861.777
11/17/2013  20:14:00     -133.969      -11.184      -11.130       20.496       16.695       13.468      420.102      278.732      181.376        0.954        0.044      134.435        8.435        0.004      336.480        7.811      861.780
11/17/2013  20:15:00     -127.498       -9.101       -7.375       32.622       21.463       20.751     1064.195      460.654      430.608        0.917        0.098      127.823       20.548        0.026      336.384        7.649      861.765
11/17/2013  20:16:00      -90.979       -5.797       -2.564       36.586       24.529       16.806     1338.563      601.660      282.433        0.527        0.111       91.163       16.422        0.032      336.364        7.615      861.768
11/17/2013  20:17:00     -109.770      -13.324       -5.550       39.668       21.167       19.651     1573.578      448.028      386.179        0.733        0.120      110.576       18.344        0.028      336.359        7.608      861.779
11/17/2013  20:18:00     -145.115      -18.590      -17.311       29.087       19.827       18.039      846.037      393.112      325.391        1.163        0.078      146.301       17.553        0.014      336.301        7.510      861.787
11/17/2013  20:19:00      -93.746      -13.538        0.411       43.914       27.574       21.255     1928.422      760.324      451.766        0.606        0.157       94.719       20.427        0.047      336.277        7.471      861.808
11/17/2013  20:20:00      -77.573      -28.742       -6.241       37.612       24.054       17.570     1414.661      578.610      308.687        0.459        0.115       82.727       21.529        0.068      336.284        7.483      861.826
11/17/2013  20:21:00      -87.359      -40.163       -6.313       32.162       22.723       17.358     1034.380      516.326      301.295        0.557        0.093       96.149       20.594        0.046      336.274        7.467      861.854
11/17/2013  20:22:00      -43.177      -18.386        6.875       23.763       20.599       11.886      564.671      424.323      141.287        0.169        0.057       46.928        9.433        0.040      336.225        7.384      861.876
11/17/2013  20:23:00      -39.510        1.262       -1.585       16.254       11.735       11.847      264.178      137.718      140.363        0.105        0.027       39.530        9.441        0.057      336.250        7.426      861.900
11/17/2013  20:24:00      -45.808       -8.203       -6.957       19.984       16.886       10.359      399.364      285.126      107.314        0.150        0.040       46.537        8.040        0.030      336.360        7.610      861.916
11/17/2013  20:25:00      -63.525      -34.384      -15.171       18.601       16.328       11.127      346.007      266.588      123.821        0.309        0.037       72.234        9.713        0.018      336.392        7.663      861.927
11/17/2013  20:26:00      -72.424      -10.944      -14.078       14.886       19.803       10.670      221.585      392.166      113.844        0.315        0.036       73.246        7.770        0.011      336.264        7.449      861.929
11/17/2013  20:27:00      -48.526      -16.294        0.346       12.391       12.388        9.049      153.538      153.461       81.893        0.150        0.019       51.189        6.342        0.015      336.199        7.341      861.930
11/17/2013  20:28:00      -19.218       -2.684       -5.254       12.306        4.682        3.401      151.446       21.925       11.565        0.029        0.009       19.404        2.317        0.014      336.344        7.584      861.936
11/17/2013  20:29:00      -16.730        6.098       -2.868        7.610        9.081        7.021       57.920       82.470       49.300        0.026        0.009       17.807        5.160        0.084      336.497        7.839      861.945
11/17/2013  20:30:00       -2.401        3.054       -5.175        7.405       12.589        5.279       54.839      158.490       27.863        0.014        0.012        3.885        7.037        3.281      336.388        7.656      861.972
11/17/2013  20:31:00      -27.838      -17.786       -4.372       17.628       11.482        7.228      310.756      131.834       52.249        0.080        0.025       33.034        6.675        0.041      336.197        7.336      861.980
11/17/2013  20:32:00      -66.862      -29.936       -8.258       18.447        7.152       10.042      340.303       51.156      100.833        0.296        0.025       73.258        7.764        0.011      336.036        7.068      862.002
11/17/2013  20:33:00      -96.919      -38.469      -16.030       19.616       10.547        8.143      384.773      111.244       66.308        0.585        0.028      104.275        6.606        0.004      336.056        7.101      862.004
11/17/2013  20:34:00      -99.818      -29.526      -12.799        6.592        9.236        7.313       43.459       85.301       53.486        0.559        0.009      104.093        4.225        0.002      336.086        7.154      862.000
11/17/2013  20:35:00      -86.896      -24.039       -9.260       15.854       15.995       14.032      251.342      255.844      196.887        0.446        0.035       90.159       10.064        0.012      336.114        7.197      862.003
11/17/2013  20:36:00     -106.255      -17.617      -18.161        8.875       10.131        7.301       78.760      102.646       53.309        0.608        0.012      107.706        2.949        0.001      336.141        7.241      861.997
11/17/2013  20:37:00      -98.521      -27.371      -13.199       11.615       12.399       14.180      134.904      153.730      201.061        0.556        0.024      102.252        7.599        0.006      336.173        7.296      861.994
11/17/2013  20:38:00      -98.194      -36.855       -8.434       19.149       18.656       10.035      366.674      348.032      100.707        0.594        0.041      104.883        6.841        0.004      336.236        7.404      861.988
11/17/2013  20:39:00      -74.449      -45.608        3.494       26.007       17.971       13.875      676.365      322.955      192.524        0.441        0.060       87.309       14.798        0.029      336.093        7.163      861.990
11/17/2013  20:40:00      -88.487      -59.167       -7.230       19.121       14.999       12.071      365.629      224.982      145.706        0.606        0.037      106.446        6.967        0.004      336.329        7.557      861.996
11/17/2013  20:41:00     -105.634      -44.432       -5.038       24.308       24.811       15.144      590.900      615.598      229.354        0.730        0.072      114.598       11.725        0.010      336.296        7.501      861.989
11/17/2013  20:42:00      -95.295      -51.373       -6.558       11.086       15.257        9.443      122.893      232.790       89.166        0.610        0.022      108.261        6.214        0.003      336.213        7.364      861.996
11/17/2013  20:43:00     -111.681      -50.742      -11.969       13.893       15.735        8.099      193.018      247.597       65.597        0.785        0.025      122.668        2.740        0.000      336.244        7.415      862.016
11/17/2013  20:44:00     -128.348      -41.946      -14.703       13.489       16.713       11.998      181.955      279.321      143.947        0.953        0.030      135.029        8.502        0.004      336.195        7.333      862.032
11/17/2013  20:45:00     -143.260      -40.454      -10.255       24.634       24.961       17.975      606.851      623.046      323.105        1.191        0.078      148.862       11.489        0.006      336.253        7.431      862.058
11/17/2013  20:46:00     -134.583      -40.719       -6.378       31.685       22.225       18.222     1003.952      493.955      332.049        1.082        0.091      140.608       17.801        0.016      336.175        7.298      862.080
11/17/2013  20:47:00     -140.535      -50.344       -3.325       28.537       24.806       15.529      814.363      615.335      241.162        1.198        0.084      149.281       12.654        0.007      336.140        7.242      862.085
11/17/2013  20:48:00     -124.556      -45.647        1.248       36.863       21.263       16.930     1358.890      452.099      286.617        0.985        0.105      132.657       15.492        0.014      336.045        7.082      862.105
11/17/2013  20:49:00     -138.580      -30.858      -10.614       27.164       19.246       13.780      737.902      370.397      189.879        1.078        0.065      141.974       13.053        0.008      336.014        7.031      862.116
11/17/2013  20:50:00     -149.557      -33.159      -11.973       27.582       18.068       15.496      760.791      326.440      240.111        1.247        0.066      153.189       11.656        0.006      336.003        7.013      862.121
11/17/2013  20:51:00     -122.094      -28.692       -6.356       40.225       23.189       20.723     1618.062      537.730      429.452        0.918        0.129      125.420       20.004        0.025      335.913        6.864      862.131
11/17/2013  20:52:00     -144.902      -31.534       -7.932       27.643       29.319       17.818      764.151      859.606      317.470        1.200        0.097      148.294       12.735        0.007      335.904        6.848      862.130
11/17/2013  20:53:00     -133.746      -10.410       -9.761       43.690       26.194       19.729     1908.826      686.116      389.252        1.054        0.149      134.150       20.712        0.024      335.805        6.683      862.140
11/17/2013  20:54:00     -131.917      -39.786      -14.268       23.114       24.358       14.244      534.273      593.292      202.885        1.026        0.067      137.787       13.797        0.010      335.700        6.511      862.145
11/17/2013  20:55:00     -109.867      -33.200       -7.314       33.426       36.755       21.050     1117.295     1350.905      443.083        0.807        0.146      114.774       19.976        0.030      335.657        6.436      862.140
11/17/2013  20:56:00      -94.564      -36.727       -4.385       37.485       31.734       19.026     1405.095     1007.063      361.993        0.654        0.139      101.446       19.293        0.036      335.607        6.353      862.142
11/17/2013  20:57:00     -115.529      -34.322       -6.282       31.420       33.258       22.012      987.199     1106.120      484.538        0.857        0.129      120.520       19.073        0.025      335.651        6.427      862.135
11/17/2013  20:58:00      -98.561      -27.497        1.160       40.542       38.322       27.348     1643.670     1468.611      747.911        0.717        0.193      102.324       29.094        0.081      335.608        6.356      862.129
11/17/2013  20:59:00     -106.532      -39.017       -4.380       27.689       30.042       14.030      766.656      902.499      196.846        0.738        0.093      113.452        5.779        0.003      335.692        6.495      862.140
11/17/2013  21:00:00     -112.260      -25.826       -6.504       31.553       34.821       23.515      995.581     1212.474      552.969        0.804        0.138      115.192       19.954        0.030      335.719        6.541      862.139
11/17/2013  21:01:00      -91.113      -11.762       -1.137       44.248       51.598       26.310     1957.850     2662.377      692.217        0.688        0.266       91.869       22.132        0.058      335.772        6.629      862.138
11/17/2013  21:02:00      -65.306       -5.990       -1.481       45.499       43.430       22.753     2070.192     1886.170      517.696        0.439        0.224       65.580       19.693        0.090      335.822        6.712      862.147
11/17/2013  21:03:00      -56.799      -23.412        6.544       42.304       42.019       24.256     1789.593     1765.592      588.362        0.398        0.207       61.435       14.971        0.059      335.774        6.632      862.147
11/17/2013  21:04:00     -100.817      -60.728       -4.153       33.424       29.514       21.808     1117.171      871.097      475.577        0.817        0.123      117.694       13.586        0.013      335.690        6.493      862.153
11/17/2013  21:05:00      -98.917      -12.578       -4.863       37.727       32.659       21.864     1423.326     1066.629      478.016        0.647        0.148       99.714       16.513        0.027      335.599        6.341      862.152
11/17/2013  21:06:00     -108.785      -20.482      -10.396       43.875       36.527       20.073     1925.013     1334.246      402.921        0.801        0.183      110.696       20.430        0.034      335.496        6.168      862.146
11/17/2013  21:07:00     -108.657      -25.493       -6.400       54.528       36.950       23.480     2973.255     1365.284      551.295        0.869        0.244      111.607       21.587        0.037      335.436        6.068      862.146
11/17/2013  21:08:00     -116.932      -42.865        0.605       49.736       47.826       28.829     2473.693     2287.322      831.097        1.055        0.280      124.542       28.180        0.051      335.447        6.086      862.142
11/17/2013  21:09:00     -111.078      -29.989        1.238       47.461       40.203       22.190     2252.549     1616.258      492.392        0.880        0.218      115.055       18.196        0.025      335.429        6.057      862.143
11/17/2013  21:10:00     -132.674      -60.252       -7.160       46.613       48.689       27.173     2172.743     2370.652      738.386        1.328        0.264      145.715       15.213        0.011      335.369        5.957      862.157
11/17/2013  21:11:00      -99.903      -27.479       -2.413       35.725       36.521       21.957     1276.299     1333.780      482.106        0.692        0.155      103.613       15.941        0.024      335.387        5.985      862.151
11/17/2013  21:12:00     -137.146      -31.473       -2.541       37.346       28.254       19.473     1394.704      798.304      379.201        1.119        0.129      140.711       20.037        0.020      335.509        6.189      862.154
11/17/2013  21:13:00      -98.059      -27.027       -4.066       33.949       22.632       16.418     1152.527      512.221      269.560        0.615        0.097      101.715       14.161        0.019      335.545        6.251      862.143
11/17/2013  21:14:00      -81.589      -26.007       -5.405       41.373       32.689       23.486     1711.749     1068.539      551.590        0.535        0.167       85.633       22.641        0.070      335.512        6.195      862.134
11/17/2013  21:15:00     -112.665      -15.940       -4.475       41.372       28.830       23.144     1711.660      831.149      535.623        0.802        0.154      113.787       23.142        0.041      335.494        6.164      862.136
11/17/2013  21:16:00     -140.402       -3.774      -10.361       40.346       30.665       23.124     1627.784      940.328      534.717        1.147        0.155      140.452       19.531        0.019      335.622        6.379      862.134
11/17/2013  21:17:00     -161.247      -11.705      -15.930       24.115       15.529       12.167      581.534      241.149      148.037        1.368        0.049      161.672        7.015        0.002      335.759        6.607      862.136
11/17/2013  21:18:00     -168.820        0.316      -14.790       30.346       29.957       22.289      920.906      897.398      496.788        1.552        0.116      168.821       20.985        0.015      335.732        6.561      862.149
11/17/2013  21:19:00     -208.959       40.488      -16.550       33.583       36.058       22.170     1127.841     1300.152      491.508        2.425        0.146      212.846       12.149        0.003      335.764        6.613      862.156
11/17/2013  21:20:00     -198.182       15.406      -26.149       32.594       44.519       22.964     1062.356     1981.929      527.325        2.188        0.179      198.780       19.004        0.009      335.720        6.538      862.181
11/17/2013  21:21:00     -176.478       10.321      -17.202       29.490       27.615       18.735      869.659      762.614      351.014        1.676        0.099      176.780       11.954        0.005      335.740        6.576      862.205
11/17/2013  21:22:00     -161.890        3.256      -16.470       41.586       45.293       21.542     1729.365     2051.421      464.038        1.537        0.212      161.922       18.140        0.013      335.686        6.484      862.223
11/17/2013  21:23:00     -198.957       15.597      -18.414       28.752       30.945       18.782      826.695      957.585      352.781        2.115        0.107      199.567        7.967        0.002      335.653        6.428      862.247
11/17/2013  21:24:00     -169.821      -19.254      -17.718       33.907       41.625       19.658     1149.659     1732.674      386.441        1.640        0.163      170.909       15.542        0.008      335.629        6.390      862.267
11/17/2013  21:25:00     -146.839      -13.714      -10.599       39.033       35.143       20.792     1523.578     1235.059      432.328        1.253        0.160      147.478       17.638        0.014      335.557        6.272      862.278
11/17/2013  21:26:00     -172.665      -31.989      -22.112       33.105       24.994       20.617     1095.908      624.724      425.061        1.674        0.107      175.603       18.084        0.011      335.517        6.205      862.298
11/17/2013  21:27:00     -162.856      -32.852      -21.325       22.509       16.635       18.370      506.634      276.719      337.465        1.459        0.056      166.136       14.963        0.008      335.511        6.194      862.312
11/17/2013  21:28:00     -175.887      -22.135      -15.603       16.893       23.739       13.605      285.386      563.550      185.095        1.635        0.052      177.275        9.638        0.003      335.492        6.161      862.324
11/17/2013  21:29:00     -156.050      -18.385      -15.198       31.110       26.463       15.153      967.862      700.289      229.625        1.341        0.095      157.129       14.862        0.009      335.469        6.125      862.338
11/17/2013  21:30:00     -154.552       10.951      -13.931       31.479       30.292       21.877      990.913      917.576      478.594        1.329        0.119      154.940       15.698        0.010      335.531        6.228      862.340
11/17/2013  21:31:00     -197.928       22.090      -16.315       24.443       23.868       15.710      597.440      569.682      246.811        2.067        0.071      199.157        9.325        0.002      335.610        6.358      862.349
11/17/2013  21:32:00     -154.248       14.887      -12.553       30.591       35.175       25.499      935.799     1237.313      650.176        1.350        0.141      154.964       13.848        0.008      335.557        6.271      862.347
11/17/2013  21:33:00     -171.813      -33.066      -19.161       34.537       39.876       19.645     1192.773     1590.071      385.907        1.707        0.158      174.966       14.150        0.007      335.496        6.169      862.342
11/17/2013  21:34:00     -165.915       -4.531       -6.712       71.451       45.572       33.307     5105.306     2076.805     1109.386        1.794        0.415      165.977       34.823        0.044      335.462        6.110      862.345
11/17/2013  21:35:00     -188.626       -8.642      -18.639       65.092       45.048       33.706     4236.931     2029.318     1136.102        2.170        0.370      188.824       36.677        0.038      335.476        6.135      862.343
11/17/2013  21:36:00     -169.200        3.005      -12.424       49.369       35.559       24.090     2437.261     1264.428      580.307        1.654        0.214      169.227       22.002        0.017      335.528        6.222      862.343
11/17/2013  21:37:00     -154.024        3.224      -13.646       62.771       43.507       34.926     3940.163     1892.855     1219.846        1.549        0.353      154.058       34.089        0.049      335.516        6.201      862.350
11/17/2013  21:38:00     -207.646       53.919      -18.042       54.477       43.672       26.798     2967.699     1907.206      718.120        2.597        0.280      214.532       15.698        0.005      335.696        6.498      862.335
11/17/2013  21:39:00     -173.130       40.610      -16.043       59.470       35.543       27.476     3536.738     1263.327      754.927        1.872        0.278      177.829       22.818        0.016      335.750        6.592      862.331
11/17/2013  21:40:00     -176.599       26.521      -17.452       51.299       30.353       20.558     2631.622      921.283      422.612        1.808        0.199      178.580       19.158        0.012      335.740        6.574      862.329
11/17/2013  21:41:00     -149.578        7.413      -22.021       58.956       34.749       24.068     3475.762     1207.493      579.275        1.409        0.263      149.761       12.921        0.007      335.700        6.509      862.318
11/17/2013  21:42:00     -152.725       -9.895      -13.133       65.429       40.900       28.597     4280.907     1672.788      817.778        1.518        0.339      153.045       28.239        0.034      335.695        6.497      862.320
11/17/2013  21:43:00     -167.559        0.460      -13.953       69.737       51.415       36.827     4863.315     2643.525     1356.195        1.857        0.443      167.559       41.573        0.062      335.671        6.459      862.323
11/17/2013  21:44:00     -157.493      -18.790      -15.814       57.263       42.657       32.257     3279.103     1819.597     1040.504        1.577        0.307      158.610       32.104        0.041      335.650        6.424      862.314
11/17/2013  21:45:00     -150.244      -24.638      -11.865       60.942       45.088       30.461     3713.969     2032.959      927.899        1.500        0.334      152.250       32.066        0.044      335.671        6.459      862.312
11/17/2013  21:46:00     -201.721       -5.483      -20.736       49.146       35.714       20.561     2415.323     1275.504      422.775        2.263        0.206      201.796       20.545        0.010      335.715        6.531      862.311
11/17/2013  21:47:00     -225.756       10.432      -28.122       33.859       32.477       14.236     1146.454     1054.749      202.656        2.713        0.120      225.997        9.160        0.002      335.732        6.558      862.292
11/17/2013  21:48:00     -219.351       19.333      -25.217       25.788       25.402       20.238      665.043      645.239      409.594        2.542        0.086      220.201       13.352        0.004      335.736        6.567      862.276
11/17/2013  21:49:00     -209.536        9.615      -24.701       23.421       20.802       15.305      548.550      432.711      234.236        2.291        0.061      209.757        9.073        0.002      335.715        6.533      862.261
11/17/2013  21:50:00     -173.388        4.333      -23.058       21.386       13.681       15.431      457.366      187.165      238.109        1.575        0.044      173.442       12.316        0.005      335.729        6.558      862.247
11/17/2013  21:51:00     -133.285      -17.252      -20.360       15.063       20.280       14.409      226.885      411.295      207.625        0.966        0.042      134.397        9.542        0.005      335.787        6.654      862.256
11/17/2013  21:52:00      -99.756      -39.398       -5.843       38.595       22.553       16.467     1489.602      508.636      271.161        0.690        0.113      107.254       18.446        0.030      335.803        6.681      862.256
11/17/2013  21:53:00      -82.439      -55.859        2.454       30.917       24.745       16.838      955.847      612.308      283.530        0.589        0.093       99.581       18.111        0.033      335.845        6.750      862.262
11/17/2013  21:54:00      -11.515      -30.595       17.620       37.248       26.406       20.257     1387.418      697.294      410.351        0.194        0.125       32.691       20.085        0.377      335.888        6.822      862.273
11/17/2013  21:55:00       -6.416      -36.132       -2.493       25.181       18.199       15.436      634.082      331.208      238.260        0.128        0.060       36.697       10.919        0.089      335.997        7.002      862.280
11/17/2013  21:56:00       -0.845       -6.756        2.970       12.942       16.829       11.559      167.500      283.216      133.609        0.032        0.029        6.809       10.128        2.212      335.961        6.943      862.288
11/17/2013  21:57:00       -0.416       26.503       -1.982       14.632       13.850        9.906      214.087      191.820       98.129        0.061        0.025       26.507       10.109        0.145      335.829        6.726      862.310
11/17/2013  21:58:00      -53.875      -42.513      -11.276       40.024       18.782        8.939     1601.906      352.770       79.903        0.344        0.102       68.628       12.797        0.035      335.906        6.853      862.328
11/17/2013  21:59:00     -113.360      -49.339       -4.317       46.633       33.176       22.216     2174.608     1100.677      493.561        0.954        0.188      123.632        9.750        0.006      335.795        6.666      862.326
11/17/2013  22:00:00      -48.315      -53.945        3.523       45.490       26.447       25.402     2069.385      699.443      645.248        0.433        0.171       72.418       21.881        0.091      335.754        6.598      862.327
11/17/2013  22:01:00      -93.916      -64.695       -3.529       32.442       21.279       18.598     1052.500      452.801      345.868        0.743        0.093      114.042        7.085        0.004      335.749        6.591      862.334
11/17/2013  22:02:00      -83.319      -32.229        0.265       33.962       18.634       10.598     1153.417      347.209      112.318        0.480        0.081       89.335       12.732        0.020      335.736        6.569      862.343
11/17/2013  22:03:00      -63.791      -33.326       -0.340       22.732       14.575        9.985      516.766      212.440       99.699        0.300        0.041       71.971        9.275        0.017      335.734        6.566      862.340
11/17/2013  22:04:00      -37.663      -25.213       -1.539       21.844       17.227        9.225      477.151      296.775       85.098        0.146        0.043       45.323        4.081        0.008      335.785        6.651      862.333
11/17/2013  22:05:00      -16.842      -43.129        4.783       17.061       19.701       11.431      291.080      388.123      130.673        0.149        0.040       46.301       10.975        0.056      335.842        6.747      862.328
11/17/2013  22:06:00      -48.491      -50.229       -0.439       28.228       29.736       18.518      796.796      884.235      342.931        0.345        0.101       69.816       17.240        0.061      335.813        6.698      862.317
11/17/2013  22:07:00     -103.939      -78.760       -2.543       38.283       38.477       19.338     1465.559     1480.452      373.965        1.017        0.166      130.409       21.540        0.027      335.889        6.824      862.306
11/17/2013  22:08:00     -102.063      -74.039        0.019       60.534       43.765       30.470     3664.345     1915.404      928.412        1.120        0.325      126.090       33.122        0.069      335.796        6.670      862.305
11/17/2013  22:09:00     -158.540      -96.547        2.282       54.673       40.455       27.534     2989.158     1636.581      758.123        1.992        0.269      185.623       22.810        0.015      335.556        6.268      862.309
11/17/2013  22:10:00     -108.860      -75.133        1.818       58.127       40.604       27.150     3378.767     1648.697      737.127        1.163        0.288      132.271       28.982        0.048      335.500        6.176      862.307
11/17/2013  22:11:00     -132.013      -73.799       -8.052       26.038       31.057       18.247      677.955      964.548      332.946        1.246        0.099      151.241        7.315        0.002      335.507        6.188      862.316
11/17/2013  22:12:00     -123.758      -37.898       -0.529       38.741       23.941       19.200     1500.877      573.155      368.646        0.960        0.122      129.430       21.534        0.028      335.452        6.095      862.318
11/17/2013  22:13:00      -94.265      -25.203       -1.706       48.035       18.595       17.488     2307.369      345.784      305.836        0.624        0.148       97.576       20.505        0.044      335.499        6.174      862.326
11/17/2013  22:14:00      -37.586      -55.891        8.436       38.053       22.582       19.778     1448.058      509.925      391.166        0.348        0.117       67.354       23.327        0.120      335.500        6.174      862.333
11/17/2013  22:15:00      -43.127      -76.319       -3.010       28.199       31.995       22.197      795.208     1023.697      492.707        0.500        0.116       87.661       11.249        0.016      335.661        6.444      862.331
11/17/2013  22:16:00      -38.786      -46.533       -6.092       27.446       33.335       26.663      753.289     1111.244      710.921        0.314        0.129       60.578       19.513        0.104      335.607        6.354      862.335
11/17/2013  22:17:00      -69.914      -46.231       -2.912       40.840       24.223       13.832     1667.901      586.774      191.330        0.474        0.122       83.816        9.645        0.013      335.635        6.400      862.338
11/17/2013  22:18:00      -43.554      -31.286       -3.192       25.934       26.416       16.300      672.571      697.823      265.687        0.226        0.082       53.627       15.386        0.082      335.608        6.354      862.334
11/17/2013  22:19:00      -41.076       -6.242        2.124       18.443       16.757       12.208      340.152      280.807      149.044        0.125        0.039       41.547        4.657        0.013      335.455        6.100      862.346
11/17/2013  22:20:00      -59.145       -9.525        2.740       22.496       23.945       18.732      506.069      573.360      350.905        0.251        0.072       59.907       15.742        0.069      335.365        5.950      862.350
11/17/2013  22:21:00      -78.984      -35.734       -1.043       23.286       21.433       12.592      542.259      459.364      158.566        0.434        0.058       86.691        9.914        0.013      335.301        5.842      862.361
11/17/2013  22:22:00      -71.836      -24.160       -4.554       19.891       19.899       11.636      395.664      395.960      135.401        0.335        0.046       75.790        4.474        0.003      335.256        5.768      862.376
11/17/2013  22:23:00      -34.826      -13.775       -3.362       20.816        9.897        8.379      433.308       97.954       70.216        0.101        0.030       37.451        8.718        0.054      335.282        5.811      862.394
11/17/2013  22:24:00      -27.838      -13.510       -5.782       21.927        8.388       10.471      480.808       70.364      109.634        0.083        0.033       30.943       10.576        0.117      335.287        5.819      862.403
11/17/2013  22:25:00      -40.215      -22.501        0.734       16.198       12.073       10.912      262.374      145.747      119.077        0.133        0.026       46.082        5.044        0.012      335.330        5.890      862.402
11/17/2013  22:26:00      -57.725      -24.787       -7.441       21.054        7.351        8.430      443.272       54.038       71.059        0.229        0.028       62.822        9.333        0.022      335.319        5.871      862.400
11/17/2013  22:27:00      -79.462      -15.259      -14.952        8.247        8.838        6.047       68.013       78.113       36.567        0.348        0.009       80.914        3.245        0.002      335.277        5.803      862.383
11/17/2013  22:28:00      -77.370      -29.274       -5.979       20.351       13.006       10.141      414.153      169.157      102.847        0.378        0.034       82.723       10.491        0.016      335.299        5.839      862.372
11/17/2013  22:29:00      -85.112      -20.757      -11.123       12.594       10.026       10.604      158.608      100.516      112.445        0.409        0.019       87.607        8.340        0.009      335.284        5.814      862.365
11/17/2013  22:30:00      -85.820      -18.900       -5.662        9.828       10.263        7.542       96.599      105.324       56.874        0.401        0.013       87.876        5.658        0.004      335.318        5.870      862.373
11/17/2013  22:31:00      -77.871      -24.466      -10.024       11.031       13.409        6.787      121.675      179.792       46.065        0.356        0.017       81.624        5.222        0.004      335.307        5.852      862.383
11/17/2013  22:32:00      -67.201      -13.963       -3.331       17.253       14.767        8.593      297.673      218.052       73.843        0.266        0.029       68.636        6.990        0.010      335.224        5.715      862.392
11/17/2013  22:33:00      -73.679       -0.039       -3.967       13.017       12.310       11.201      169.445      151.545      125.453        0.295        0.022       73.679        9.335        0.016      335.255        5.767      862.398
11/17/2013  22:34:00      -59.316       -1.468       -7.242       10.024        9.497        7.765      100.484       90.201       60.292        0.191        0.013       59.335        6.510        0.012      335.340        5.907      862.393
11/17/2013  22:35:00      -64.388      -19.949      -10.777        6.332        9.604        5.186       40.096       92.230       26.900        0.241        0.008       67.408        1.616        0.001      335.358        5.937      862.378
11/17/2013  22:36:00      -46.166      -25.137      -11.470       20.873        9.799        6.230      435.678       96.021       38.815        0.173        0.029       52.566        6.133        0.014      335.341        5.910      862.358
11/17/2013  22:37:00      -11.043       -8.221       -1.004       10.836        8.114        6.391      117.427       65.833       40.845        0.021        0.011       13.767        5.031        0.134      335.200        5.676      862.347
11/17/2013  22:38:00      -39.166      -26.162       -6.334       18.736       12.258        7.466      351.051      150.248       55.736        0.141        0.028       47.101        6.038        0.016      335.187        5.653      862.339
11/17/2013  22:39:00      -62.869      -27.034       -9.485       12.755       10.092        7.243      162.681      101.844       52.467        0.255        0.016       68.434        6.229        0.008      335.231        5.725      862.340
11/17/2013  22:40:00      -65.203      -25.059       -8.724       10.977       10.635        6.415      120.500      113.104       41.152        0.262        0.014       69.852        5.105        0.005      335.150        5.592      862.348
11/17/2013  22:41:00      -55.085       -1.905       -5.230        8.723        9.054        5.547       76.086       81.978       30.774        0.163        0.009       55.118        4.154        0.006      335.121        5.547      862.360
11/17/2013  22:42:00      -65.503       -0.243       -6.044       11.982        7.444        5.524      143.572       55.413       30.520        0.228        0.011       65.503        4.469        0.005      335.163        5.613      862.368
11/17/2013  22:43:00      -62.054       -8.488      -10.692        4.897        6.032        6.099       23.984       36.384       37.200        0.207        0.005       62.632        2.611        0.002      335.183        5.646      862.377
11/17/2013  22:44:00      -80.267      -20.973      -10.632        7.627        7.900        4.448       58.177       62.410       19.786        0.357        0.007       82.962        3.528        0.002      335.229        5.723      862.383
11/17/2013  22:45:00      -73.958      -15.499      -10.079       10.721       11.943        8.548      114.934      142.639       73.060        0.307        0.017       75.565        6.451        0.007      335.156        5.602      862.390
11/17/2013  22:46:00      -71.432      -27.706       -8.343       12.534       13.913        7.825      157.112      193.560       61.237        0.318        0.021       76.617        4.092        0.003      335.157        5.606      862.399
11/17/2013  22:47:00      -71.371      -23.740       -1.487       21.653       14.499        7.600      468.860      210.209       57.754        0.320        0.037       75.216        5.504        0.005      335.127        5.556      862.414
11/17/2013  22:48:00      -66.102      -17.028       -1.605       23.984       12.846        9.549      575.230      165.015       91.192        0.275        0.042       68.260       10.554        0.024      335.126        5.554      862.430
11/17/2013  22:49:00      -58.030      -22.747        2.402       16.862       18.415       10.613      284.319      339.129      112.644        0.231        0.037       62.329        7.421        0.014      335.049        5.426      862.439
11/17/2013  22:50:00      -61.509      -32.166       -0.357       22.034       15.075        9.825      485.503      227.248       96.539        0.281        0.040       69.412       10.717        0.024      335.003        5.350      862.454
11/17/2013  22:51:00      -77.530      -32.633       -2.367       13.292       12.118        9.823      176.677      146.849       96.483        0.375        0.021       84.118        6.527        0.006      335.003        5.351      862.459
11/17/2013  22:52:00      -94.260      -28.205       -8.560       14.877       16.706       10.318      221.331      279.092      106.452        0.518        0.030       98.389        7.332        0.006      335.004        5.352      862.463
11/17/2013  22:53:00      -91.127      -37.900       -2.151       18.872       18.397       12.469      356.139      338.463      155.482        0.530        0.043       98.694       10.561        0.011      334.968        5.290      862.464
11/17/2013  22:54:00     -108.814      -37.869       -1.902       22.205       21.817       11.194      493.073      475.991      125.306        0.719        0.055      115.215        8.442        0.005      334.925        5.220      862.468
11/17/2013  22:55:00     -108.777      -21.006       -4.651       24.562       18.365       13.784      603.273      337.284      189.995        0.671        0.057      110.787       13.294        0.014      334.838        5.075      862.477
11/17/2013  22:56:00     -113.745      -29.552       -7.814       22.996       15.784       13.403      528.822      249.125      179.628        0.741        0.048      117.521       12.782        0.012      334.812        5.031      862.483
11/17/2013  22:57:00     -108.190      -37.569      -14.305       32.825       19.480       13.141     1077.502      379.463      172.693        0.748        0.081      114.528       12.915        0.013      334.729        4.895      862.480
11/17/2013  22:58:00     -121.144      -38.984      -15.367       20.438       20.599       13.833      417.692      424.315      191.341        0.873        0.052      127.262       12.783        0.010      334.627        4.724      862.476
11/17/2013  22:59:00     -110.867      -58.734       -3.015       18.393       26.661       13.548      338.314      710.789      183.559        0.849        0.062      125.464        8.734        0.005      334.560        4.612      862.471
11/17/2013  23:00:00     -102.380      -27.238       -7.609       38.408       20.431       13.081     1475.183      417.444      171.119        0.667        0.103      105.941       15.664        0.022      334.557        4.607      862.471
11/17/2013  23:01:00      -75.645      -30.662       -3.414       28.148       32.376       20.133      792.325     1048.229      405.318        0.446        0.112       81.623       13.250        0.026      334.590        4.662      862.480
11/17/2013  23:02:00     -106.416       -9.044       -9.756       29.239       21.300       20.911      854.943      453.682      437.253        0.662        0.087      106.799       15.890        0.022      334.672        4.797      862.484
11/17/2013  23:03:00      -84.784        5.905       -8.211       30.206       29.145       18.953      912.411      849.442      359.215        0.471        0.106       84.990       15.648        0.034      334.799        5.009      862.485
11/17/2013  23:04:00      -79.048        9.282       -4.981       47.392       33.129       20.640     2245.955     1097.534      426.016        0.506        0.188       79.591       23.091        0.084      334.840        5.080      862.479
11/17/2013  23:05:00      -26.797        0.080       -1.859       44.403       20.979       20.748     1971.656      440.101      430.499        0.178        0.142       26.797       20.220        0.569      334.819        5.043      862.485
11/17/2013  23:06:00      -43.366        5.202      -12.242       20.194       26.962       11.817      407.782      726.932      139.636        0.167        0.064       43.677       11.301        0.067      334.787        4.992      862.496
11/17/2013  23:07:00      -58.858      -23.245      -20.355       11.676       18.392       11.526      136.321      338.254      132.838        0.251        0.030       63.282        4.259        0.005      334.742        4.915      862.498
11/17/2013  23:08:00      -69.111      -26.585      -17.349       15.359       18.957       11.984      235.884      359.379      143.604        0.326        0.037       74.048        9.019        0.015      334.833        5.068      862.496
11/17/2013  23:09:00      -58.542      -11.909      -15.895       13.692       16.659        9.465      187.482      277.517       89.588        0.219        0.028       59.741        7.721        0.017      334.792        4.998      862.515
11/17/2013  23:10:00      -51.406      -33.326       -9.205       17.038       11.948       12.123      290.286      142.747      146.965        0.221        0.029       61.263        8.859        0.021      334.855        5.103      862.529
11/17/2013  23:11:00      -44.378      -31.012      -15.009       15.884       18.291       12.273      252.293      334.563      150.620        0.195        0.037       54.140        6.590        0.015      334.808        5.025      862.544
11/17/2013  23:12:00      -55.146      -27.549      -18.096       20.241       16.478       14.240      409.681      271.537      202.783        0.251        0.044       61.644        7.579        0.015      334.847        5.089      862.564
11/17/2013  23:13:00      -70.152      -31.723      -15.830       36.417       19.196       18.638     1326.230      368.494      347.360        0.411        0.102       76.991       14.425        0.035      334.701        4.847      862.587
11/17/2013  23:14:00      -11.273      -20.218        7.980       27.349       22.833       19.348      747.968      521.326      374.338        0.112        0.082       23.149       13.173        0.324      334.628        4.726      862.601
11/17/2013  23:15:00       -9.980      -13.032        6.583       36.781       20.620       17.600     1352.827      425.186      309.747        0.120        0.104       16.414       12.111        0.544      334.638        4.743      862.611
11/17/2013  23:16:00      -56.402      -55.646       -0.943       54.955       33.497       15.724     3020.002     1122.045      247.249        0.533        0.219       79.232       19.029        0.058      334.654        4.771      862.619
11/17/2013  23:17:00      -83.535      -56.943        1.972       49.365       28.796       20.651     2436.944      829.238      426.458        0.696        0.185      101.097       22.255        0.048      334.591        4.665      862.614
11/17/2013  23:18:00     -106.015      -38.520       -0.689       35.277       24.147       15.679     1244.449      583.080      245.817        0.740        0.104      112.797       14.136        0.016      334.662        4.783      862.595
11/17/2013  23:19:00      -90.862      -31.687       -9.416       21.817       17.570       12.709      475.967      308.707      161.509        0.515        0.047       96.228        7.720        0.006      334.697        4.842      862.580
11/17/2013  23:20:00     -118.759      -40.778       -3.997       34.381       26.076       15.724     1182.041      679.947      247.234        0.895        0.105      125.565       17.438        0.019      334.763        4.949      862.581
11/17/2013  23:21:00     -104.927      -40.141        5.526       41.168       33.026       20.688     1694.778     1090.705      428.013        0.793        0.161      112.343       21.402        0.036      334.803        5.017      862.575
11/17/2013  23:22:00      -84.547      -47.028        6.623       37.014       26.325       19.099     1370.034      692.991      364.776        0.592        0.121       96.746       17.256        0.032      334.716        4.872      862.569
11/17/2013  23:23:00      -93.212      -48.525       -1.595       23.294       20.658       15.718      542.619      426.742      247.066        0.613        0.061      105.086       13.375        0.016      334.706        4.855      862.564
11/17/2013  23:24:00      -89.237      -39.653        1.088       26.298       25.056       15.010      691.603      627.781      225.303        0.554        0.077       97.651       14.021        0.021      334.690        4.828      862.577
11/17/2013  23:25:00      -74.034      -39.594       -1.116       17.486       19.839        9.846      305.743      393.595       96.937        0.392        0.040       83.957        6.851        0.007      334.755        4.938      862.577
11/17/2013  23:26:00      -61.696      -39.315        2.182       35.515       25.225       16.841     1261.335      636.310      283.618        0.377        0.109       73.157       16.371        0.050      334.799        5.009      862.580
11/17/2013  23:27:00      -69.872      -43.382        1.194       30.080       16.655       13.239      904.785      277.388      175.262        0.406        0.068       82.244       13.202        0.026      334.843        5.083      862.589
11/17/2013  23:28:00      -54.956      -49.197       -0.227       29.617       18.601       16.741      877.139      345.992      280.270        0.347        0.075       73.759       16.459        0.050      334.905        5.186      862.597
11/17/2013  23:29:00      -56.822      -45.260        4.416       32.005       18.284       16.154     1024.318      334.323      260.957        0.346        0.081       72.645       15.106        0.043      334.895        5.169      862.606
11/17/2013  23:30:00      -42.582      -39.947       -1.078       24.900       20.432       11.933      620.028      417.482      142.405        0.229        0.059       58.386        9.179        0.025      334.891        5.164      862.607
11/17/2013  23:31:00      -77.484      -66.756       -3.134       17.456       23.923       12.189      304.702      572.302      148.562        0.575        0.051      102.275        9.155        0.008      335.059        5.442      862.601
11/17/2013  23:32:00      -97.942      -26.605      -10.180       13.597       15.980       11.768      184.866      255.370      138.484        0.549        0.029      101.491        6.001        0.003      334.951        5.263      862.593
11/17/2013  23:33:00      -73.448      -30.270       -7.546       13.387       14.035        7.510      179.225      196.980       56.394        0.340        0.022       79.441        6.278        0.006      334.905        5.185      862.592
11/17/2013  23:34:00      -81.292      -35.236       -4.236       10.220       10.315        7.958      104.451      106.400       63.323        0.407        0.014       88.600        3.490        0.002      334.880        5.144      862.586
11/17/2013  23:35:00      -74.251      -44.757      -11.098        6.730        8.406        7.354       45.297       70.660       54.088        0.390        0.009       86.697        2.288        0.001      334.906        5.188      862.572
11/17/2013  23:36:00      -57.827      -42.683       -7.131       11.634       11.155        8.115      135.352      124.426       65.861        0.277        0.016       71.873        3.318        0.002      334.878        5.142      862.555
11/17/2013  23:37:00      -41.947      -34.854        0.257       19.848       20.120       13.121      393.953      404.826      172.157        0.197        0.049       54.538        8.543        0.025      334.854        5.100      862.547
11/17/2013  23:38:00      -86.968      -66.434       -2.284       29.493       26.936       19.736      869.835      725.552      389.491        0.698        0.099      109.440       21.546        0.039      334.782        4.981      862.531
11/17/2013  23:39:00      -94.309      -63.263        2.735       34.592       26.215       16.360     1196.621      687.243      267.649        0.753        0.108      113.562       15.469        0.019      334.688        4.825      862.507
11/17/2013  23:40:00      -73.536      -58.552        4.611       40.265       22.830       20.336     1621.301      521.201      413.565        0.571        0.128       93.999       21.020        0.050      334.617        4.709      862.493
11/17/2013  23:41:00      -84.116      -46.676       -0.856       30.747       19.889       15.999      945.369      395.556      255.971        0.543        0.080       96.198       12.179        0.016      334.577        4.640      862.486
11/17/2013  23:42:00     -103.076      -63.248       -0.532       37.424       20.500       16.471     1400.588      420.252      271.297        0.836        0.105      120.934       12.527        0.011      334.640        4.745      862.489
11/17/2013  23:43:00      -99.337      -57.970        0.258       25.642       19.519       17.192      657.490      380.984      295.558        0.728        0.067      115.014       12.322        0.011      334.611        4.697      862.486
11/17/2013  23:44:00      -88.373      -47.285        5.634       43.568       31.964       20.908     1898.175     1021.671      437.128        0.672        0.168      100.228       19.341        0.037      334.614        4.702      862.473
11/17/2013  23:45:00      -85.786      -44.116        4.389       32.637       31.760       18.449     1065.163     1008.703      340.376        0.587        0.121       96.465       18.632        0.037      334.682        4.816      862.468
11/17/2013  23:46:00      -64.915      -35.334        3.970       38.274       22.367       15.160     1464.869      500.278      229.813        0.384        0.110       73.908       18.746        0.064      334.697        4.840      862.456
11/17/2013  23:47:00      -59.815      -44.404        1.351       25.689       11.511       12.138      659.914      132.508      147.333        0.325        0.047       74.495        5.781        0.006      334.704        4.852      862.465
11/17/2013  23:48:00      -65.897      -38.967        1.691       31.519       19.042       16.476      993.435      362.594      271.473        0.375        0.081       76.556       16.891        0.049      334.653        4.767      862.475
11/17/2013  23:49:00      -69.827      -37.273        1.535       26.994       21.655       14.370      728.669      468.939      206.507        0.384        0.070       79.152       12.544        0.025      334.632        4.732      862.481
11/17/2013  23:50:00      -58.442      -16.438        2.558       18.692       17.509       13.428      349.397      306.573      180.307        0.226        0.042       60.709       10.682        0.031      334.637        4.741      862.489
11/17/2013  23:51:00      -53.260       -4.656       -1.014       19.814       14.422       11.849      392.584      207.992      140.389        0.180        0.037       53.463       10.907        0.042      334.544        4.586      862.500
11/17/2013  23:52:00      -81.635       -9.041       -6.639       17.832       14.659        9.598      317.976      214.885       92.116        0.371        0.031       82.134        8.687        0.011      334.553        4.601      862.494
11/17/2013  23:53:00      -84.981      -22.741       -3.220       16.052       11.901        9.483      257.669      141.627       89.927        0.412        0.024       87.971        8.737        0.010      334.529        4.563      862.488
11/17/2013  23:54:00     -102.206      -21.966      -13.376       17.039       13.934       11.233      290.328      194.150      126.169        0.586        0.031      104.539        9.304        0.008      334.446        4.424      862.488
11/17/2013  23:55:00     -102.283      -28.232       -9.570       19.039       10.864       11.166      362.474      118.027      124.688        0.598        0.030      106.107       10.498        0.010      334.474        4.471      862.486
11/17/2013  23:56:00      -69.589      -22.033       -2.490       19.377       15.518       12.481      375.472      240.800      155.767        0.305        0.039       72.994       10.730        0.022      334.421        4.382      862.474
11/17/2013  23:57:00      -82.350      -19.727       -5.071       18.704       14.217        8.770      349.838      202.125       76.908        0.391        0.031       84.680        6.099        0.005      334.445        4.422      862.464
11/17/2013  23:58:00      -98.973      -22.815       -4.427       16.723       13.103       12.470      279.668      171.682      155.500        0.547        0.030      101.568        9.895        0.009      334.383        4.319      862.455
11/17/2013  23:59:00      -58.504      -29.165        1.721       25.912       20.939       15.245      671.416      438.441      232.402        0.281        0.067       65.371       15.906        0.059      334.300        4.181      862.458
